<?xml version="1.0" encoding="UTF-8" standalone="no" ?>
<gpx xmlns="http://www.topografix.com/GPX/1/1" xmlns:xsi="http://www.w3.org/2001/XMLSchema-instance" xsi:schemaLocation="http://www.topografix.com/GPX/1/1 http://www.topografix.com/GPX/1/1/gpx.xsd" version="1.1" creator="VisuGPX - https://www.visugpx.com">
  <metadata>
    <name>83-Me-Cotignac</name>
    <desc><![CDATA[grp_trc:]]></desc>
  </metadata>
  <trk>
    <name><![CDATA[11 déc. 2024]]></name>
    <cmt><![CDATA[13:56:34]]></cmt>
    <desc><![CDATA[comment ...]]></desc>
    <trkseg>
      <trkpt lat="43.52458" lon="6.14984">
        <ele>155</ele>
        <time>2024-12-11T12:56:34Z</time>
      </trkpt>
      <trkpt lat="43.52458" lon="6.14985">
        <ele>154</ele>
        <time>2024-12-11T12:56:36Z</time>
      </trkpt>
      <trkpt lat="43.5246" lon="6.14988">
        <ele>154</ele>
        <time>2024-12-11T12:56:44Z</time>
      </trkpt>
      <trkpt lat="43.52461" lon="6.1499">
        <ele>153</ele>
        <time>2024-12-11T12:56:52Z</time>
      </trkpt>
      <trkpt lat="43.5246" lon="6.14993">
        <ele>160</ele>
        <time>2024-12-11T12:57:08Z</time>
      </trkpt>
      <trkpt lat="43.52459" lon="6.14999">
        <ele>167</ele>
        <time>2024-12-11T12:57:30Z</time>
      </trkpt>
      <trkpt lat="43.5246" lon="6.15004">
        <ele>184</ele>
        <time>2024-12-11T12:57:44Z</time>
      </trkpt>
      <trkpt lat="43.52456" lon="6.15012">
        <ele>199</ele>
        <time>2024-12-11T12:58:10Z</time>
      </trkpt>
      <trkpt lat="43.52454" lon="6.15017">
        <ele>209</ele>
        <time>2024-12-11T12:59:44Z</time>
      </trkpt>
      <trkpt lat="43.5246" lon="6.15018">
        <ele>212</ele>
        <time>2024-12-11T13:02:28Z</time>
      </trkpt>
      <trkpt lat="43.52462" lon="6.15017">
        <ele>211</ele>
        <time>2024-12-11T13:02:30Z</time>
      </trkpt>
      <trkpt lat="43.52475" lon="6.15015">
        <ele>209</ele>
        <time>2024-12-11T13:02:40Z</time>
      </trkpt>
      <trkpt lat="43.52477" lon="6.15014">
        <ele>210</ele>
        <time>2024-12-11T13:02:42Z</time>
      </trkpt>
      <trkpt lat="43.5248" lon="6.15014">
        <ele>210</ele>
        <time>2024-12-11T13:02:44Z</time>
      </trkpt>
      <trkpt lat="43.52486" lon="6.15011">
        <ele>211</ele>
        <time>2024-12-11T13:02:54Z</time>
      </trkpt>
      <trkpt lat="43.52487" lon="6.15008">
        <ele>211</ele>
        <time>2024-12-11T13:02:58Z</time>
      </trkpt>
      <trkpt lat="43.52488" lon="6.15007">
        <ele>212</ele>
        <time>2024-12-11T13:03:00Z</time>
      </trkpt>
      <trkpt lat="43.5249" lon="6.14996">
        <ele>213</ele>
        <time>2024-12-11T13:03:06Z</time>
      </trkpt>
      <trkpt lat="43.5249" lon="6.14993">
        <ele>214</ele>
        <time>2024-12-11T13:03:08Z</time>
      </trkpt>
      <trkpt lat="43.5249" lon="6.1499">
        <ele>215</ele>
        <time>2024-12-11T13:03:12Z</time>
      </trkpt>
      <trkpt lat="43.52495" lon="6.14986">
        <ele>218</ele>
        <time>2024-12-11T13:03:40Z</time>
      </trkpt>
      <trkpt lat="43.52502" lon="6.14981">
        <ele>217</ele>
        <time>2024-12-11T13:03:46Z</time>
      </trkpt>
      <trkpt lat="43.5251" lon="6.14972">
        <ele>215</ele>
        <time>2024-12-11T13:03:54Z</time>
      </trkpt>
      <trkpt lat="43.52515" lon="6.14965">
        <ele>216</ele>
        <time>2024-12-11T13:03:58Z</time>
      </trkpt>
      <trkpt lat="43.52517" lon="6.14962">
        <ele>216</ele>
        <time>2024-12-11T13:04:00Z</time>
      </trkpt>
      <trkpt lat="43.52523" lon="6.14956">
        <ele>216</ele>
        <time>2024-12-11T13:04:06Z</time>
      </trkpt>
      <trkpt lat="43.52534" lon="6.14939">
        <ele>215</ele>
        <time>2024-12-11T13:04:18Z</time>
      </trkpt>
      <trkpt lat="43.5254" lon="6.14936">
        <ele>216</ele>
        <time>2024-12-11T13:04:24Z</time>
      </trkpt>
      <trkpt lat="43.52542" lon="6.14934">
        <ele>216</ele>
        <time>2024-12-11T13:04:26Z</time>
      </trkpt>
      <trkpt lat="43.52546" lon="6.14929">
        <ele>215</ele>
        <time>2024-12-11T13:04:32Z</time>
      </trkpt>
      <trkpt lat="43.52547" lon="6.14916">
        <ele>214</ele>
        <time>2024-12-11T13:04:36Z</time>
      </trkpt>
      <trkpt lat="43.52547" lon="6.14913">
        <ele>214</ele>
        <time>2024-12-11T13:04:38Z</time>
      </trkpt>
      <trkpt lat="43.5255" lon="6.14915">
        <ele>214</ele>
        <time>2024-12-11T13:04:40Z</time>
      </trkpt>
      <trkpt lat="43.52551" lon="6.14912">
        <ele>213</ele>
        <time>2024-12-11T13:04:42Z</time>
      </trkpt>
      <trkpt lat="43.52548" lon="6.14912">
        <ele>214</ele>
        <time>2024-12-11T13:04:46Z</time>
      </trkpt>
      <trkpt lat="43.52549" lon="6.14918">
        <ele>215</ele>
        <time>2024-12-11T13:04:52Z</time>
      </trkpt>
      <trkpt lat="43.5255" lon="6.1492">
        <ele>216</ele>
        <time>2024-12-11T13:05:00Z</time>
      </trkpt>
      <trkpt lat="43.52548" lon="6.14916">
        <ele>217</ele>
        <time>2024-12-11T13:05:04Z</time>
      </trkpt>
      <trkpt lat="43.52547" lon="6.14912">
        <ele>219</ele>
        <time>2024-12-11T13:05:06Z</time>
      </trkpt>
      <trkpt lat="43.52547" lon="6.14911">
        <ele>219</ele>
        <time>2024-12-11T13:05:24Z</time>
      </trkpt>
      <trkpt lat="43.52543" lon="6.14915">
        <ele>216</ele>
        <time>2024-12-11T13:05:28Z</time>
      </trkpt>
      <trkpt lat="43.5254" lon="6.14916">
        <ele>216</ele>
        <time>2024-12-11T13:05:30Z</time>
      </trkpt>
      <trkpt lat="43.52537" lon="6.14916">
        <ele>216</ele>
        <time>2024-12-11T13:05:32Z</time>
      </trkpt>
      <trkpt lat="43.52531" lon="6.14918">
        <ele>217</ele>
        <time>2024-12-11T13:05:38Z</time>
      </trkpt>
      <trkpt lat="43.52529" lon="6.14917">
        <ele>217</ele>
        <time>2024-12-11T13:05:42Z</time>
      </trkpt>
      <trkpt lat="43.52526" lon="6.14916">
        <ele>218</ele>
        <time>2024-12-11T13:05:46Z</time>
      </trkpt>
      <trkpt lat="43.52523" lon="6.14918">
        <ele>218</ele>
        <time>2024-12-11T13:05:48Z</time>
      </trkpt>
      <trkpt lat="43.52518" lon="6.14921">
        <ele>218</ele>
        <time>2024-12-11T13:05:52Z</time>
      </trkpt>
      <trkpt lat="43.52516" lon="6.14921">
        <ele>218</ele>
        <time>2024-12-11T13:05:54Z</time>
      </trkpt>
      <trkpt lat="43.52495" lon="6.14926">
        <ele>223</ele>
        <time>2024-12-11T13:06:10Z</time>
      </trkpt>
      <trkpt lat="43.52492" lon="6.14927">
        <ele>224</ele>
        <time>2024-12-11T13:06:12Z</time>
      </trkpt>
      <trkpt lat="43.52489" lon="6.14928">
        <ele>225</ele>
        <time>2024-12-11T13:06:14Z</time>
      </trkpt>
      <trkpt lat="43.52486" lon="6.1493">
        <ele>225</ele>
        <time>2024-12-11T13:06:16Z</time>
      </trkpt>
      <trkpt lat="43.52484" lon="6.14933">
        <ele>225</ele>
        <time>2024-12-11T13:06:18Z</time>
      </trkpt>
      <trkpt lat="43.52479" lon="6.14934">
        <ele>224</ele>
        <time>2024-12-11T13:06:22Z</time>
      </trkpt>
      <trkpt lat="43.52476" lon="6.14933">
        <ele>223</ele>
        <time>2024-12-11T13:06:24Z</time>
      </trkpt>
      <trkpt lat="43.52471" lon="6.14932">
        <ele>222</ele>
        <time>2024-12-11T13:06:28Z</time>
      </trkpt>
      <trkpt lat="43.52469" lon="6.14933">
        <ele>221</ele>
        <time>2024-12-11T13:06:30Z</time>
      </trkpt>
      <trkpt lat="43.52465" lon="6.14932">
        <ele>221</ele>
        <time>2024-12-11T13:06:32Z</time>
      </trkpt>
      <trkpt lat="43.5246" lon="6.14932">
        <ele>221</ele>
        <time>2024-12-11T13:06:36Z</time>
      </trkpt>
      <trkpt lat="43.52456" lon="6.1493">
        <ele>221</ele>
        <time>2024-12-11T13:06:38Z</time>
      </trkpt>
      <trkpt lat="43.52452" lon="6.14931">
        <ele>221</ele>
        <time>2024-12-11T13:06:40Z</time>
      </trkpt>
      <trkpt lat="43.52445" lon="6.14921">
        <ele>221</ele>
        <time>2024-12-11T13:06:48Z</time>
      </trkpt>
      <trkpt lat="43.52444" lon="6.14918">
        <ele>222</ele>
        <time>2024-12-11T13:06:50Z</time>
      </trkpt>
      <trkpt lat="43.52444" lon="6.14911">
        <ele>223</ele>
        <time>2024-12-11T13:06:54Z</time>
      </trkpt>
      <trkpt lat="43.52443" lon="6.14904">
        <ele>225</ele>
        <time>2024-12-11T13:06:58Z</time>
      </trkpt>
      <trkpt lat="43.52443" lon="6.14902">
        <ele>226</ele>
        <time>2024-12-11T13:07:00Z</time>
      </trkpt>
      <trkpt lat="43.52442" lon="6.149">
        <ele>227</ele>
        <time>2024-12-11T13:07:02Z</time>
      </trkpt>
      <trkpt lat="43.52442" lon="6.14897">
        <ele>228</ele>
        <time>2024-12-11T13:07:04Z</time>
      </trkpt>
      <trkpt lat="43.52442" lon="6.14893">
        <ele>228</ele>
        <time>2024-12-11T13:07:06Z</time>
      </trkpt>
      <trkpt lat="43.52442" lon="6.1489">
        <ele>228</ele>
        <time>2024-12-11T13:07:08Z</time>
      </trkpt>
      <trkpt lat="43.52438" lon="6.14875">
        <ele>231</ele>
        <time>2024-12-11T13:07:16Z</time>
      </trkpt>
      <trkpt lat="43.52437" lon="6.14873">
        <ele>231</ele>
        <time>2024-12-11T13:07:18Z</time>
      </trkpt>
      <trkpt lat="43.52435" lon="6.14871">
        <ele>232</ele>
        <time>2024-12-11T13:07:26Z</time>
      </trkpt>
      <trkpt lat="43.52435" lon="6.14868">
        <ele>232</ele>
        <time>2024-12-11T13:07:28Z</time>
      </trkpt>
      <trkpt lat="43.52434" lon="6.14864">
        <ele>232</ele>
        <time>2024-12-11T13:07:30Z</time>
      </trkpt>
      <trkpt lat="43.52432" lon="6.14861">
        <ele>232</ele>
        <time>2024-12-11T13:07:32Z</time>
      </trkpt>
      <trkpt lat="43.52431" lon="6.14858">
        <ele>233</ele>
        <time>2024-12-11T13:07:34Z</time>
      </trkpt>
      <trkpt lat="43.5243" lon="6.14855">
        <ele>233</ele>
        <time>2024-12-11T13:07:36Z</time>
      </trkpt>
      <trkpt lat="43.52429" lon="6.14852">
        <ele>234</ele>
        <time>2024-12-11T13:07:38Z</time>
      </trkpt>
      <trkpt lat="43.52422" lon="6.14833">
        <ele>236</ele>
        <time>2024-12-11T13:07:52Z</time>
      </trkpt>
      <trkpt lat="43.52422" lon="6.1483">
        <ele>237</ele>
        <time>2024-12-11T13:07:54Z</time>
      </trkpt>
      <trkpt lat="43.52419" lon="6.14821">
        <ele>237</ele>
        <time>2024-12-11T13:08:00Z</time>
      </trkpt>
      <trkpt lat="43.52416" lon="6.14808">
        <ele>237</ele>
        <time>2024-12-11T13:08:08Z</time>
      </trkpt>
      <trkpt lat="43.52416" lon="6.14805">
        <ele>237</ele>
        <time>2024-12-11T13:08:10Z</time>
      </trkpt>
      <trkpt lat="43.52413" lon="6.14791">
        <ele>237</ele>
        <time>2024-12-11T13:08:18Z</time>
      </trkpt>
      <trkpt lat="43.52412" lon="6.14789">
        <ele>237</ele>
        <time>2024-12-11T13:08:20Z</time>
      </trkpt>
      <trkpt lat="43.52411" lon="6.14786">
        <ele>236</ele>
        <time>2024-12-11T13:08:22Z</time>
      </trkpt>
      <trkpt lat="43.5241" lon="6.14781">
        <ele>237</ele>
        <time>2024-12-11T13:08:24Z</time>
      </trkpt>
      <trkpt lat="43.52407" lon="6.14775">
        <ele>238</ele>
        <time>2024-12-11T13:08:30Z</time>
      </trkpt>
      <trkpt lat="43.52398" lon="6.14768">
        <ele>242</ele>
        <time>2024-12-11T13:08:38Z</time>
      </trkpt>
      <trkpt lat="43.52398" lon="6.14765">
        <ele>243</ele>
        <time>2024-12-11T13:08:40Z</time>
      </trkpt>
      <trkpt lat="43.52397" lon="6.14763">
        <ele>244</ele>
        <time>2024-12-11T13:08:42Z</time>
      </trkpt>
      <trkpt lat="43.52385" lon="6.14749">
        <ele>250</ele>
        <time>2024-12-11T13:08:58Z</time>
      </trkpt>
      <trkpt lat="43.52382" lon="6.14745">
        <ele>251</ele>
        <time>2024-12-11T13:09:02Z</time>
      </trkpt>
      <trkpt lat="43.52379" lon="6.14744">
        <ele>251</ele>
        <time>2024-12-11T13:09:06Z</time>
      </trkpt>
      <trkpt lat="43.52376" lon="6.14738">
        <ele>251</ele>
        <time>2024-12-11T13:09:10Z</time>
      </trkpt>
      <trkpt lat="43.52375" lon="6.14735">
        <ele>251</ele>
        <time>2024-12-11T13:09:12Z</time>
      </trkpt>
      <trkpt lat="43.52371" lon="6.14725">
        <ele>250</ele>
        <time>2024-12-11T13:09:20Z</time>
      </trkpt>
      <trkpt lat="43.52367" lon="6.14721">
        <ele>251</ele>
        <time>2024-12-11T13:09:28Z</time>
      </trkpt>
      <trkpt lat="43.5236" lon="6.14716">
        <ele>253</ele>
        <time>2024-12-11T13:09:38Z</time>
      </trkpt>
      <trkpt lat="43.52357" lon="6.14715">
        <ele>254</ele>
        <time>2024-12-11T13:09:42Z</time>
      </trkpt>
      <trkpt lat="43.52348" lon="6.14707">
        <ele>260</ele>
        <time>2024-12-11T13:09:58Z</time>
      </trkpt>
      <trkpt lat="43.52346" lon="6.14705">
        <ele>262</ele>
        <time>2024-12-11T13:10:02Z</time>
      </trkpt>
      <trkpt lat="43.52345" lon="6.147">
        <ele>263</ele>
        <time>2024-12-11T13:10:06Z</time>
      </trkpt>
      <trkpt lat="43.52344" lon="6.14699">
        <ele>263</ele>
        <time>2024-12-11T13:10:08Z</time>
      </trkpt>
      <trkpt lat="43.52341" lon="6.14699">
        <ele>264</ele>
        <time>2024-12-11T13:10:12Z</time>
      </trkpt>
      <trkpt lat="43.52339" lon="6.1469">
        <ele>263</ele>
        <time>2024-12-11T13:10:26Z</time>
      </trkpt>
      <trkpt lat="43.52336" lon="6.1469">
        <ele>264</ele>
        <time>2024-12-11T13:10:34Z</time>
      </trkpt>
      <trkpt lat="43.52332" lon="6.14687">
        <ele>268</ele>
        <time>2024-12-11T13:11:06Z</time>
      </trkpt>
      <trkpt lat="43.52326" lon="6.14686">
        <ele>272</ele>
        <time>2024-12-11T13:12:00Z</time>
      </trkpt>
      <trkpt lat="43.52327" lon="6.14688">
        <ele>273</ele>
        <time>2024-12-11T13:12:26Z</time>
      </trkpt>
      <trkpt lat="43.52328" lon="6.14688">
        <ele>273</ele>
        <time>2024-12-11T13:12:32Z</time>
      </trkpt>
      <trkpt lat="43.52328" lon="6.14686">
        <ele>274</ele>
        <time>2024-12-11T13:12:40Z</time>
      </trkpt>
      <trkpt lat="43.52324" lon="6.14685">
        <ele>274</ele>
        <time>2024-12-11T13:12:54Z</time>
      </trkpt>
      <trkpt lat="43.52322" lon="6.14689">
        <ele>274</ele>
        <time>2024-12-11T13:12:58Z</time>
      </trkpt>
      <trkpt lat="43.52316" lon="6.14693">
        <ele>272</ele>
        <time>2024-12-11T13:13:06Z</time>
      </trkpt>
      <trkpt lat="43.52312" lon="6.14693">
        <ele>271</ele>
        <time>2024-12-11T13:13:10Z</time>
      </trkpt>
      <trkpt lat="43.52309" lon="6.14691">
        <ele>270</ele>
        <time>2024-12-11T13:13:12Z</time>
      </trkpt>
      <trkpt lat="43.52307" lon="6.14691">
        <ele>270</ele>
        <time>2024-12-11T13:13:14Z</time>
      </trkpt>
      <trkpt lat="43.52305" lon="6.14693">
        <ele>269</ele>
        <time>2024-12-11T13:13:16Z</time>
      </trkpt>
      <trkpt lat="43.52303" lon="6.14696">
        <ele>269</ele>
        <time>2024-12-11T13:13:18Z</time>
      </trkpt>
      <trkpt lat="43.52302" lon="6.14698">
        <ele>269</ele>
        <time>2024-12-11T13:13:20Z</time>
      </trkpt>
      <trkpt lat="43.52294" lon="6.14705">
        <ele>269</ele>
        <time>2024-12-11T13:13:26Z</time>
      </trkpt>
      <trkpt lat="43.52291" lon="6.14707">
        <ele>270</ele>
        <time>2024-12-11T13:13:28Z</time>
      </trkpt>
      <trkpt lat="43.52289" lon="6.14708">
        <ele>271</ele>
        <time>2024-12-11T13:13:30Z</time>
      </trkpt>
      <trkpt lat="43.52287" lon="6.1471">
        <ele>272</ele>
        <time>2024-12-11T13:13:32Z</time>
      </trkpt>
      <trkpt lat="43.52285" lon="6.14714">
        <ele>273</ele>
        <time>2024-12-11T13:13:36Z</time>
      </trkpt>
      <trkpt lat="43.52284" lon="6.14716">
        <ele>275</ele>
        <time>2024-12-11T13:13:42Z</time>
      </trkpt>
      <trkpt lat="43.52275" lon="6.14718">
        <ele>277</ele>
        <time>2024-12-11T13:13:54Z</time>
      </trkpt>
      <trkpt lat="43.5227" lon="6.1472">
        <ele>278</ele>
        <time>2024-12-11T13:14:00Z</time>
      </trkpt>
      <trkpt lat="43.52264" lon="6.14722">
        <ele>279</ele>
        <time>2024-12-11T13:14:06Z</time>
      </trkpt>
      <trkpt lat="43.52259" lon="6.14722">
        <ele>279</ele>
        <time>2024-12-11T13:14:10Z</time>
      </trkpt>
      <trkpt lat="43.52257" lon="6.14722">
        <ele>280</ele>
        <time>2024-12-11T13:14:12Z</time>
      </trkpt>
      <trkpt lat="43.52255" lon="6.14722">
        <ele>280</ele>
        <time>2024-12-11T13:14:14Z</time>
      </trkpt>
      <trkpt lat="43.52252" lon="6.14722">
        <ele>280</ele>
        <time>2024-12-11T13:14:16Z</time>
      </trkpt>
      <trkpt lat="43.52251" lon="6.14722">
        <ele>280</ele>
        <time>2024-12-11T13:14:18Z</time>
      </trkpt>
      <trkpt lat="43.52247" lon="6.14723">
        <ele>280</ele>
        <time>2024-12-11T13:14:22Z</time>
      </trkpt>
      <trkpt lat="43.52243" lon="6.14723">
        <ele>281</ele>
        <time>2024-12-11T13:14:26Z</time>
      </trkpt>
      <trkpt lat="43.52232" lon="6.14717">
        <ele>284</ele>
        <time>2024-12-11T13:14:38Z</time>
      </trkpt>
      <trkpt lat="43.52229" lon="6.14717">
        <ele>284</ele>
        <time>2024-12-11T13:14:40Z</time>
      </trkpt>
      <trkpt lat="43.52217" lon="6.14712">
        <ele>285</ele>
        <time>2024-12-11T13:14:50Z</time>
      </trkpt>
      <trkpt lat="43.52211" lon="6.1471">
        <ele>286</ele>
        <time>2024-12-11T13:14:56Z</time>
      </trkpt>
      <trkpt lat="43.52201" lon="6.14713">
        <ele>287</ele>
        <time>2024-12-11T13:15:04Z</time>
      </trkpt>
      <trkpt lat="43.52198" lon="6.14715">
        <ele>288</ele>
        <time>2024-12-11T13:15:06Z</time>
      </trkpt>
      <trkpt lat="43.52196" lon="6.14717">
        <ele>289</ele>
        <time>2024-12-11T13:15:08Z</time>
      </trkpt>
      <trkpt lat="43.52194" lon="6.14718">
        <ele>289</ele>
        <time>2024-12-11T13:15:10Z</time>
      </trkpt>
      <trkpt lat="43.52192" lon="6.14718">
        <ele>290</ele>
        <time>2024-12-11T13:15:12Z</time>
      </trkpt>
      <trkpt lat="43.52188" lon="6.14718">
        <ele>290</ele>
        <time>2024-12-11T13:15:16Z</time>
      </trkpt>
      <trkpt lat="43.5218" lon="6.14722">
        <ele>289</ele>
        <time>2024-12-11T13:15:24Z</time>
      </trkpt>
      <trkpt lat="43.52168" lon="6.14724">
        <ele>290</ele>
        <time>2024-12-11T13:15:38Z</time>
      </trkpt>
      <trkpt lat="43.52165" lon="6.14725">
        <ele>290</ele>
        <time>2024-12-11T13:15:40Z</time>
      </trkpt>
      <trkpt lat="43.52163" lon="6.14726">
        <ele>290</ele>
        <time>2024-12-11T13:15:42Z</time>
      </trkpt>
      <trkpt lat="43.52158" lon="6.14728">
        <ele>291</ele>
        <time>2024-12-11T13:15:46Z</time>
      </trkpt>
      <trkpt lat="43.52155" lon="6.14729">
        <ele>291</ele>
        <time>2024-12-11T13:15:48Z</time>
      </trkpt>
      <trkpt lat="43.52151" lon="6.14731">
        <ele>293</ele>
        <time>2024-12-11T13:15:52Z</time>
      </trkpt>
      <trkpt lat="43.52148" lon="6.1473">
        <ele>293</ele>
        <time>2024-12-11T13:15:54Z</time>
      </trkpt>
      <trkpt lat="43.52146" lon="6.1473">
        <ele>294</ele>
        <time>2024-12-11T13:15:56Z</time>
      </trkpt>
      <trkpt lat="43.52144" lon="6.14732">
        <ele>295</ele>
        <time>2024-12-11T13:15:58Z</time>
      </trkpt>
      <trkpt lat="43.52141" lon="6.14732">
        <ele>295</ele>
        <time>2024-12-11T13:16:00Z</time>
      </trkpt>
      <trkpt lat="43.52135" lon="6.14735">
        <ele>297</ele>
        <time>2024-12-11T13:16:06Z</time>
      </trkpt>
      <trkpt lat="43.52129" lon="6.14739">
        <ele>299</ele>
        <time>2024-12-11T13:16:14Z</time>
      </trkpt>
      <trkpt lat="43.52127" lon="6.14739">
        <ele>299</ele>
        <time>2024-12-11T13:16:16Z</time>
      </trkpt>
      <trkpt lat="43.52124" lon="6.1474">
        <ele>299</ele>
        <time>2024-12-11T13:16:18Z</time>
      </trkpt>
      <trkpt lat="43.52121" lon="6.14739">
        <ele>300</ele>
        <time>2024-12-11T13:16:20Z</time>
      </trkpt>
      <trkpt lat="43.52119" lon="6.14739">
        <ele>301</ele>
        <time>2024-12-11T13:16:22Z</time>
      </trkpt>
      <trkpt lat="43.52117" lon="6.1474">
        <ele>302</ele>
        <time>2024-12-11T13:16:24Z</time>
      </trkpt>
      <trkpt lat="43.52115" lon="6.14741">
        <ele>302</ele>
        <time>2024-12-11T13:16:26Z</time>
      </trkpt>
      <trkpt lat="43.5211" lon="6.14742">
        <ele>304</ele>
        <time>2024-12-11T13:16:30Z</time>
      </trkpt>
      <trkpt lat="43.52108" lon="6.14742">
        <ele>305</ele>
        <time>2024-12-11T13:16:32Z</time>
      </trkpt>
      <trkpt lat="43.52106" lon="6.14743">
        <ele>305</ele>
        <time>2024-12-11T13:16:34Z</time>
      </trkpt>
      <trkpt lat="43.52104" lon="6.14743">
        <ele>305</ele>
        <time>2024-12-11T13:16:36Z</time>
      </trkpt>
      <trkpt lat="43.52102" lon="6.14744">
        <ele>305</ele>
        <time>2024-12-11T13:16:38Z</time>
      </trkpt>
      <trkpt lat="43.521" lon="6.14743">
        <ele>305</ele>
        <time>2024-12-11T13:16:40Z</time>
      </trkpt>
      <trkpt lat="43.52098" lon="6.14741">
        <ele>305</ele>
        <time>2024-12-11T13:16:44Z</time>
      </trkpt>
      <trkpt lat="43.52091" lon="6.14742">
        <ele>305</ele>
        <time>2024-12-11T13:16:50Z</time>
      </trkpt>
      <trkpt lat="43.52087" lon="6.14742">
        <ele>305</ele>
        <time>2024-12-11T13:16:54Z</time>
      </trkpt>
      <trkpt lat="43.52084" lon="6.14743">
        <ele>305</ele>
        <time>2024-12-11T13:16:56Z</time>
      </trkpt>
      <trkpt lat="43.52082" lon="6.14745">
        <ele>305</ele>
        <time>2024-12-11T13:16:58Z</time>
      </trkpt>
      <trkpt lat="43.52075" lon="6.14747">
        <ele>305</ele>
        <time>2024-12-11T13:17:06Z</time>
      </trkpt>
      <trkpt lat="43.52072" lon="6.14748">
        <ele>305</ele>
        <time>2024-12-11T13:17:08Z</time>
      </trkpt>
      <trkpt lat="43.5207" lon="6.14747">
        <ele>305</ele>
        <time>2024-12-11T13:17:10Z</time>
      </trkpt>
      <trkpt lat="43.52068" lon="6.14748">
        <ele>306</ele>
        <time>2024-12-11T13:17:12Z</time>
      </trkpt>
      <trkpt lat="43.52065" lon="6.14748">
        <ele>306</ele>
        <time>2024-12-11T13:17:14Z</time>
      </trkpt>
      <trkpt lat="43.52063" lon="6.14749">
        <ele>307</ele>
        <time>2024-12-11T13:17:16Z</time>
      </trkpt>
      <trkpt lat="43.52045" lon="6.14751">
        <ele>311</ele>
        <time>2024-12-11T13:17:32Z</time>
      </trkpt>
      <trkpt lat="43.52044" lon="6.14749">
        <ele>310</ele>
        <time>2024-12-11T13:17:34Z</time>
      </trkpt>
      <trkpt lat="43.52042" lon="6.14748">
        <ele>311</ele>
        <time>2024-12-11T13:17:36Z</time>
      </trkpt>
      <trkpt lat="43.52034" lon="6.14744">
        <ele>311</ele>
        <time>2024-12-11T13:17:44Z</time>
      </trkpt>
      <trkpt lat="43.5203" lon="6.1474">
        <ele>312</ele>
        <time>2024-12-11T13:17:48Z</time>
      </trkpt>
      <trkpt lat="43.52029" lon="6.14738">
        <ele>312</ele>
        <time>2024-12-11T13:17:50Z</time>
      </trkpt>
      <trkpt lat="43.52027" lon="6.14735">
        <ele>313</ele>
        <time>2024-12-11T13:17:52Z</time>
      </trkpt>
      <trkpt lat="43.52026" lon="6.14733">
        <ele>313</ele>
        <time>2024-12-11T13:17:54Z</time>
      </trkpt>
      <trkpt lat="43.52026" lon="6.14736">
        <ele>314</ele>
        <time>2024-12-11T13:17:58Z</time>
      </trkpt>
      <trkpt lat="43.52027" lon="6.14739">
        <ele>314</ele>
        <time>2024-12-11T13:18:02Z</time>
      </trkpt>
      <trkpt lat="43.52024" lon="6.14727">
        <ele>315</ele>
        <time>2024-12-11T13:19:44Z</time>
      </trkpt>
      <trkpt lat="43.52019" lon="6.14727">
        <ele>316</ele>
        <time>2024-12-11T13:21:22Z</time>
      </trkpt>
      <trkpt lat="43.5201" lon="6.14718">
        <ele>316</ele>
        <time>2024-12-11T13:21:30Z</time>
      </trkpt>
      <trkpt lat="43.52008" lon="6.14716">
        <ele>316</ele>
        <time>2024-12-11T13:21:32Z</time>
      </trkpt>
      <trkpt lat="43.52004" lon="6.14713">
        <ele>316</ele>
        <time>2024-12-11T13:21:36Z</time>
      </trkpt>
      <trkpt lat="43.52001" lon="6.14713">
        <ele>317</ele>
        <time>2024-12-11T13:21:38Z</time>
      </trkpt>
      <trkpt lat="43.51999" lon="6.1471">
        <ele>317</ele>
        <time>2024-12-11T13:21:40Z</time>
      </trkpt>
      <trkpt lat="43.51998" lon="6.14708">
        <ele>318</ele>
        <time>2024-12-11T13:21:42Z</time>
      </trkpt>
      <trkpt lat="43.51993" lon="6.14703">
        <ele>318</ele>
        <time>2024-12-11T13:21:46Z</time>
      </trkpt>
      <trkpt lat="43.51992" lon="6.147">
        <ele>317</ele>
        <time>2024-12-11T13:21:48Z</time>
      </trkpt>
      <trkpt lat="43.51991" lon="6.14697">
        <ele>318</ele>
        <time>2024-12-11T13:21:50Z</time>
      </trkpt>
      <trkpt lat="43.51989" lon="6.14696">
        <ele>318</ele>
        <time>2024-12-11T13:21:56Z</time>
      </trkpt>
      <trkpt lat="43.51984" lon="6.14691">
        <ele>319</ele>
        <time>2024-12-11T13:22:00Z</time>
      </trkpt>
      <trkpt lat="43.51983" lon="6.14687">
        <ele>320</ele>
        <time>2024-12-11T13:22:02Z</time>
      </trkpt>
      <trkpt lat="43.51986" lon="6.14688">
        <ele>321</ele>
        <time>2024-12-11T13:22:10Z</time>
      </trkpt>
      <trkpt lat="43.51988" lon="6.14685">
        <ele>321</ele>
        <time>2024-12-11T13:22:12Z</time>
      </trkpt>
      <trkpt lat="43.5199" lon="6.14684">
        <ele>322</ele>
        <time>2024-12-11T13:22:14Z</time>
      </trkpt>
      <trkpt lat="43.51993" lon="6.14672">
        <ele>323</ele>
        <time>2024-12-11T13:23:54Z</time>
      </trkpt>
      <trkpt lat="43.51999" lon="6.14669">
        <ele>324</ele>
        <time>2024-12-11T13:24:12Z</time>
      </trkpt>
      <trkpt lat="43.51999" lon="6.14666">
        <ele>324</ele>
        <time>2024-12-11T13:24:16Z</time>
      </trkpt>
      <trkpt lat="43.52001" lon="6.14663">
        <ele>324</ele>
        <time>2024-12-11T13:24:20Z</time>
      </trkpt>
      <trkpt lat="43.52003" lon="6.14662">
        <ele>324</ele>
        <time>2024-12-11T13:24:24Z</time>
      </trkpt>
      <trkpt lat="43.52006" lon="6.14665">
        <ele>324</ele>
        <time>2024-12-11T13:24:32Z</time>
      </trkpt>
      <trkpt lat="43.52014" lon="6.14676">
        <ele>322</ele>
        <time>2024-12-11T13:24:40Z</time>
      </trkpt>
      <trkpt lat="43.52019" lon="6.14683">
        <ele>322</ele>
        <time>2024-12-11T13:24:48Z</time>
      </trkpt>
      <trkpt lat="43.52022" lon="6.14684">
        <ele>322</ele>
        <time>2024-12-11T13:24:52Z</time>
      </trkpt>
      <trkpt lat="43.52023" lon="6.14682">
        <ele>322</ele>
        <time>2024-12-11T13:24:54Z</time>
      </trkpt>
      <trkpt lat="43.52023" lon="6.14677">
        <ele>322</ele>
        <time>2024-12-11T13:25:32Z</time>
      </trkpt>
      <trkpt lat="43.51994" lon="6.14669">
        <ele>292</ele>
        <time>2024-12-11T13:26:18Z</time>
      </trkpt>
      <trkpt lat="43.52013" lon="6.14678">
        <ele>294</ele>
        <time>2024-12-11T13:26:20Z</time>
      </trkpt>
      <trkpt lat="43.52025" lon="6.1467">
        <ele>294</ele>
        <time>2024-12-11T13:26:26Z</time>
      </trkpt>
      <trkpt lat="43.52036" lon="6.14673">
        <ele>298</ele>
        <time>2024-12-11T13:26:36Z</time>
      </trkpt>
      <trkpt lat="43.52023" lon="6.14692">
        <ele>304</ele>
        <time>2024-12-11T13:26:38Z</time>
      </trkpt>
      <trkpt lat="43.52025" lon="6.14695">
        <ele>310</ele>
        <time>2024-12-11T13:26:46Z</time>
      </trkpt>
      <trkpt lat="43.52033" lon="6.14694">
        <ele>318</ele>
        <time>2024-12-11T13:26:48Z</time>
      </trkpt>
      <trkpt lat="43.52039" lon="6.14689">
        <ele>324</ele>
        <time>2024-12-11T13:26:52Z</time>
      </trkpt>
      <trkpt lat="43.52043" lon="6.14692">
        <ele>326</ele>
        <time>2024-12-11T13:26:56Z</time>
      </trkpt>
      <trkpt lat="43.52043" lon="6.14695">
        <ele>326</ele>
        <time>2024-12-11T13:27:02Z</time>
      </trkpt>
      <trkpt lat="43.52039" lon="6.14694">
        <ele>327</ele>
        <time>2024-12-11T13:27:28Z</time>
      </trkpt>
      <trkpt lat="43.52036" lon="6.14691">
        <ele>326</ele>
        <time>2024-12-11T13:28:24Z</time>
      </trkpt>
      <trkpt lat="43.52035" lon="6.14687">
        <ele>329</ele>
        <time>2024-12-11T13:28:28Z</time>
      </trkpt>
      <trkpt lat="43.52018" lon="6.14682">
        <ele>327</ele>
        <time>2024-12-11T13:28:38Z</time>
      </trkpt>
      <trkpt lat="43.52028" lon="6.14684">
        <ele>325</ele>
        <time>2024-12-11T13:29:14Z</time>
      </trkpt>
      <trkpt lat="43.52032" lon="6.14682">
        <ele>322</ele>
        <time>2024-12-11T13:29:20Z</time>
      </trkpt>
      <trkpt lat="43.5204" lon="6.1469">
        <ele>325</ele>
        <time>2024-12-11T13:29:32Z</time>
      </trkpt>
      <trkpt lat="43.52047" lon="6.1469">
        <ele>326</ele>
        <time>2024-12-11T13:29:38Z</time>
      </trkpt>
      <trkpt lat="43.5205" lon="6.14686">
        <ele>327</ele>
        <time>2024-12-11T13:29:46Z</time>
      </trkpt>
      <trkpt lat="43.52052" lon="6.14686">
        <ele>327</ele>
        <time>2024-12-11T13:29:50Z</time>
      </trkpt>
      <trkpt lat="43.52055" lon="6.14687">
        <ele>327</ele>
        <time>2024-12-11T13:29:54Z</time>
      </trkpt>
      <trkpt lat="43.52057" lon="6.14686">
        <ele>327</ele>
        <time>2024-12-11T13:29:58Z</time>
      </trkpt>
      <trkpt lat="43.5206" lon="6.14687">
        <ele>327</ele>
        <time>2024-12-11T13:30:02Z</time>
      </trkpt>
      <trkpt lat="43.52061" lon="6.14684">
        <ele>327</ele>
        <time>2024-12-11T13:30:38Z</time>
      </trkpt>
      <trkpt lat="43.52061" lon="6.14681">
        <ele>328</ele>
        <time>2024-12-11T13:30:42Z</time>
      </trkpt>
      <trkpt lat="43.5206" lon="6.14678">
        <ele>328</ele>
        <time>2024-12-11T13:30:44Z</time>
      </trkpt>
      <trkpt lat="43.52061" lon="6.14676">
        <ele>328</ele>
        <time>2024-12-11T13:30:46Z</time>
      </trkpt>
      <trkpt lat="43.52063" lon="6.14671">
        <ele>328</ele>
        <time>2024-12-11T13:30:50Z</time>
      </trkpt>
      <trkpt lat="43.52064" lon="6.14669">
        <ele>328</ele>
        <time>2024-12-11T13:30:52Z</time>
      </trkpt>
      <trkpt lat="43.52063" lon="6.14663">
        <ele>328</ele>
        <time>2024-12-11T13:30:58Z</time>
      </trkpt>
      <trkpt lat="43.52063" lon="6.14663">
        <ele>328</ele>
        <time>2024-12-11T13:31:12Z</time>
      </trkpt>
      <trkpt lat="43.52065" lon="6.14663">
        <ele>328</ele>
        <time>2024-12-11T13:31:16Z</time>
      </trkpt>
      <trkpt lat="43.52066" lon="6.14663">
        <ele>327</ele>
        <time>2024-12-11T13:32:04Z</time>
      </trkpt>
      <trkpt lat="43.52065" lon="6.14658">
        <ele>328</ele>
        <time>2024-12-11T13:32:08Z</time>
      </trkpt>
      <trkpt lat="43.52064" lon="6.14656">
        <ele>328</ele>
        <time>2024-12-11T13:32:10Z</time>
      </trkpt>
      <trkpt lat="43.52065" lon="6.14654">
        <ele>328</ele>
        <time>2024-12-11T13:32:12Z</time>
      </trkpt>
      <trkpt lat="43.52067" lon="6.14654">
        <ele>329</ele>
        <time>2024-12-11T13:32:22Z</time>
      </trkpt>
      <trkpt lat="43.52067" lon="6.14651">
        <ele>329</ele>
        <time>2024-12-11T13:32:34Z</time>
      </trkpt>
      <trkpt lat="43.5207" lon="6.14648">
        <ele>328</ele>
        <time>2024-12-11T13:32:38Z</time>
      </trkpt>
      <trkpt lat="43.52072" lon="6.14646">
        <ele>328</ele>
        <time>2024-12-11T13:32:40Z</time>
      </trkpt>
      <trkpt lat="43.52076" lon="6.1464">
        <ele>327</ele>
        <time>2024-12-11T13:32:48Z</time>
      </trkpt>
      <trkpt lat="43.52077" lon="6.14633">
        <ele>327</ele>
        <time>2024-12-11T13:32:54Z</time>
      </trkpt>
      <trkpt lat="43.52076" lon="6.1463">
        <ele>326</ele>
        <time>2024-12-11T13:32:56Z</time>
      </trkpt>
      <trkpt lat="43.52075" lon="6.14624">
        <ele>326</ele>
        <time>2024-12-11T13:33:00Z</time>
      </trkpt>
      <trkpt lat="43.52075" lon="6.14621">
        <ele>326</ele>
        <time>2024-12-11T13:33:02Z</time>
      </trkpt>
      <trkpt lat="43.52074" lon="6.14615">
        <ele>326</ele>
        <time>2024-12-11T13:33:08Z</time>
      </trkpt>
      <trkpt lat="43.52079" lon="6.14626">
        <ele>328</ele>
        <time>2024-12-11T13:34:08Z</time>
      </trkpt>
      <trkpt lat="43.52081" lon="6.14628">
        <ele>328</ele>
        <time>2024-12-11T13:34:10Z</time>
      </trkpt>
      <trkpt lat="43.52084" lon="6.14632">
        <ele>328</ele>
        <time>2024-12-11T13:34:14Z</time>
      </trkpt>
      <trkpt lat="43.52087" lon="6.14633">
        <ele>328</ele>
        <time>2024-12-11T13:34:16Z</time>
      </trkpt>
      <trkpt lat="43.5209" lon="6.14633">
        <ele>328</ele>
        <time>2024-12-11T13:34:18Z</time>
      </trkpt>
      <trkpt lat="43.52092" lon="6.14633">
        <ele>328</ele>
        <time>2024-12-11T13:34:20Z</time>
      </trkpt>
      <trkpt lat="43.52094" lon="6.14632">
        <ele>329</ele>
        <time>2024-12-11T13:34:22Z</time>
      </trkpt>
      <trkpt lat="43.52097" lon="6.14633">
        <ele>329</ele>
        <time>2024-12-11T13:34:24Z</time>
      </trkpt>
      <trkpt lat="43.52099" lon="6.14632">
        <ele>329</ele>
        <time>2024-12-11T13:34:26Z</time>
      </trkpt>
      <trkpt lat="43.52102" lon="6.14631">
        <ele>329</ele>
        <time>2024-12-11T13:34:28Z</time>
      </trkpt>
      <trkpt lat="43.52108" lon="6.14627">
        <ele>330</ele>
        <time>2024-12-11T13:34:34Z</time>
      </trkpt>
      <trkpt lat="43.5211" lon="6.14625">
        <ele>330</ele>
        <time>2024-12-11T13:34:36Z</time>
      </trkpt>
      <trkpt lat="43.52112" lon="6.14624">
        <ele>329</ele>
        <time>2024-12-11T13:34:44Z</time>
      </trkpt>
      <trkpt lat="43.52115" lon="6.14623">
        <ele>328</ele>
        <time>2024-12-11T13:34:46Z</time>
      </trkpt>
      <trkpt lat="43.52118" lon="6.14621">
        <ele>326</ele>
        <time>2024-12-11T13:34:48Z</time>
      </trkpt>
      <trkpt lat="43.5212" lon="6.14621">
        <ele>325</ele>
        <time>2024-12-11T13:34:50Z</time>
      </trkpt>
      <trkpt lat="43.52123" lon="6.14621">
        <ele>324</ele>
        <time>2024-12-11T13:34:52Z</time>
      </trkpt>
      <trkpt lat="43.52124" lon="6.14623">
        <ele>323</ele>
        <time>2024-12-11T13:34:56Z</time>
      </trkpt>
      <trkpt lat="43.52129" lon="6.1462">
        <ele>323</ele>
        <time>2024-12-11T13:35:04Z</time>
      </trkpt>
      <trkpt lat="43.52135" lon="6.14618">
        <ele>324</ele>
        <time>2024-12-11T13:35:08Z</time>
      </trkpt>
      <trkpt lat="43.5214" lon="6.14616">
        <ele>325</ele>
        <time>2024-12-11T13:35:14Z</time>
      </trkpt>
      <trkpt lat="43.52142" lon="6.14616">
        <ele>325</ele>
        <time>2024-12-11T13:35:20Z</time>
      </trkpt>
      <trkpt lat="43.52143" lon="6.14614">
        <ele>325</ele>
        <time>2024-12-11T13:35:26Z</time>
      </trkpt>
      <trkpt lat="43.52146" lon="6.1461">
        <ele>325</ele>
        <time>2024-12-11T13:35:30Z</time>
      </trkpt>
      <trkpt lat="43.52148" lon="6.14609">
        <ele>324</ele>
        <time>2024-12-11T13:35:32Z</time>
      </trkpt>
      <trkpt lat="43.52149" lon="6.14607">
        <ele>324</ele>
        <time>2024-12-11T13:35:34Z</time>
      </trkpt>
      <trkpt lat="43.52151" lon="6.14607">
        <ele>324</ele>
        <time>2024-12-11T13:35:36Z</time>
      </trkpt>
      <trkpt lat="43.52158" lon="6.14603">
        <ele>323</ele>
        <time>2024-12-11T13:35:42Z</time>
      </trkpt>
      <trkpt lat="43.5216" lon="6.14602">
        <ele>322</ele>
        <time>2024-12-11T13:35:44Z</time>
      </trkpt>
      <trkpt lat="43.52185" lon="6.14585">
        <ele>325</ele>
        <time>2024-12-11T13:36:10Z</time>
      </trkpt>
      <trkpt lat="43.52187" lon="6.14584">
        <ele>325</ele>
        <time>2024-12-11T13:36:12Z</time>
      </trkpt>
      <trkpt lat="43.5219" lon="6.14583">
        <ele>324</ele>
        <time>2024-12-11T13:36:14Z</time>
      </trkpt>
      <trkpt lat="43.52195" lon="6.14581">
        <ele>325</ele>
        <time>2024-12-11T13:36:18Z</time>
      </trkpt>
      <trkpt lat="43.52196" lon="6.14579">
        <ele>325</ele>
        <time>2024-12-11T13:36:22Z</time>
      </trkpt>
      <trkpt lat="43.52205" lon="6.14575">
        <ele>326</ele>
        <time>2024-12-11T13:36:30Z</time>
      </trkpt>
      <trkpt lat="43.5221" lon="6.14572">
        <ele>327</ele>
        <time>2024-12-11T13:36:36Z</time>
      </trkpt>
      <trkpt lat="43.52212" lon="6.14572">
        <ele>327</ele>
        <time>2024-12-11T13:36:38Z</time>
      </trkpt>
      <trkpt lat="43.52221" lon="6.14569">
        <ele>328</ele>
        <time>2024-12-11T13:36:44Z</time>
      </trkpt>
      <trkpt lat="43.52228" lon="6.14563">
        <ele>329</ele>
        <time>2024-12-11T13:36:52Z</time>
      </trkpt>
      <trkpt lat="43.5223" lon="6.14561">
        <ele>329</ele>
        <time>2024-12-11T13:36:54Z</time>
      </trkpt>
      <trkpt lat="43.52232" lon="6.14559">
        <ele>329</ele>
        <time>2024-12-11T13:36:56Z</time>
      </trkpt>
      <trkpt lat="43.52249" lon="6.1454">
        <ele>326</ele>
        <time>2024-12-11T13:37:14Z</time>
      </trkpt>
      <trkpt lat="43.52254" lon="6.14534">
        <ele>325</ele>
        <time>2024-12-11T13:37:20Z</time>
      </trkpt>
      <trkpt lat="43.52259" lon="6.14528">
        <ele>323</ele>
        <time>2024-12-11T13:37:26Z</time>
      </trkpt>
      <trkpt lat="43.5226" lon="6.14526">
        <ele>323</ele>
        <time>2024-12-11T13:37:28Z</time>
      </trkpt>
      <trkpt lat="43.52261" lon="6.14522">
        <ele>322</ele>
        <time>2024-12-11T13:37:30Z</time>
      </trkpt>
      <trkpt lat="43.52264" lon="6.14515">
        <ele>321</ele>
        <time>2024-12-11T13:37:36Z</time>
      </trkpt>
      <trkpt lat="43.52264" lon="6.14511">
        <ele>321</ele>
        <time>2024-12-11T13:37:38Z</time>
      </trkpt>
      <trkpt lat="43.52269" lon="6.14501">
        <ele>320</ele>
        <time>2024-12-11T13:37:44Z</time>
      </trkpt>
      <trkpt lat="43.52276" lon="6.14491">
        <ele>319</ele>
        <time>2024-12-11T13:37:50Z</time>
      </trkpt>
      <trkpt lat="43.52278" lon="6.14488">
        <ele>319</ele>
        <time>2024-12-11T13:37:52Z</time>
      </trkpt>
      <trkpt lat="43.5228" lon="6.14485">
        <ele>319</ele>
        <time>2024-12-11T13:37:54Z</time>
      </trkpt>
      <trkpt lat="43.52282" lon="6.14482">
        <ele>318</ele>
        <time>2024-12-11T13:37:56Z</time>
      </trkpt>
      <trkpt lat="43.52285" lon="6.14477">
        <ele>318</ele>
        <time>2024-12-11T13:38:00Z</time>
      </trkpt>
      <trkpt lat="43.52293" lon="6.14469">
        <ele>319</ele>
        <time>2024-12-11T13:38:08Z</time>
      </trkpt>
      <trkpt lat="43.52296" lon="6.14468">
        <ele>319</ele>
        <time>2024-12-11T13:38:10Z</time>
      </trkpt>
      <trkpt lat="43.52308" lon="6.14451">
        <ele>318</ele>
        <time>2024-12-11T13:38:22Z</time>
      </trkpt>
      <trkpt lat="43.52311" lon="6.14448">
        <ele>319</ele>
        <time>2024-12-11T13:38:24Z</time>
      </trkpt>
      <trkpt lat="43.52316" lon="6.14444">
        <ele>319</ele>
        <time>2024-12-11T13:38:28Z</time>
      </trkpt>
      <trkpt lat="43.52323" lon="6.14435">
        <ele>320</ele>
        <time>2024-12-11T13:38:36Z</time>
      </trkpt>
      <trkpt lat="43.52324" lon="6.14433">
        <ele>319</ele>
        <time>2024-12-11T13:38:38Z</time>
      </trkpt>
      <trkpt lat="43.52326" lon="6.1443">
        <ele>319</ele>
        <time>2024-12-11T13:38:40Z</time>
      </trkpt>
      <trkpt lat="43.52328" lon="6.14428">
        <ele>319</ele>
        <time>2024-12-11T13:38:42Z</time>
      </trkpt>
      <trkpt lat="43.5233" lon="6.14425">
        <ele>319</ele>
        <time>2024-12-11T13:38:44Z</time>
      </trkpt>
      <trkpt lat="43.52332" lon="6.14423">
        <ele>319</ele>
        <time>2024-12-11T13:38:46Z</time>
      </trkpt>
      <trkpt lat="43.52339" lon="6.14414">
        <ele>319</ele>
        <time>2024-12-11T13:38:54Z</time>
      </trkpt>
      <trkpt lat="43.52341" lon="6.14411">
        <ele>319</ele>
        <time>2024-12-11T13:38:56Z</time>
      </trkpt>
      <trkpt lat="43.52343" lon="6.1441">
        <ele>319</ele>
        <time>2024-12-11T13:38:58Z</time>
      </trkpt>
      <trkpt lat="43.52348" lon="6.14402">
        <ele>318</ele>
        <time>2024-12-11T13:39:04Z</time>
      </trkpt>
      <trkpt lat="43.52365" lon="6.14373">
        <ele>322</ele>
        <time>2024-12-11T13:39:26Z</time>
      </trkpt>
      <trkpt lat="43.52365" lon="6.14369">
        <ele>321</ele>
        <time>2024-12-11T13:39:28Z</time>
      </trkpt>
      <trkpt lat="43.52365" lon="6.14365">
        <ele>321</ele>
        <time>2024-12-11T13:39:30Z</time>
      </trkpt>
      <trkpt lat="43.52364" lon="6.14358">
        <ele>321</ele>
        <time>2024-12-11T13:39:34Z</time>
      </trkpt>
      <trkpt lat="43.52365" lon="6.14354">
        <ele>320</ele>
        <time>2024-12-11T13:39:36Z</time>
      </trkpt>
      <trkpt lat="43.52365" lon="6.14351">
        <ele>320</ele>
        <time>2024-12-11T13:39:38Z</time>
      </trkpt>
      <trkpt lat="43.52366" lon="6.14347">
        <ele>320</ele>
        <time>2024-12-11T13:39:40Z</time>
      </trkpt>
      <trkpt lat="43.52367" lon="6.14344">
        <ele>320</ele>
        <time>2024-12-11T13:39:42Z</time>
      </trkpt>
      <trkpt lat="43.52369" lon="6.14341">
        <ele>320</ele>
        <time>2024-12-11T13:39:44Z</time>
      </trkpt>
      <trkpt lat="43.52375" lon="6.14331">
        <ele>320</ele>
        <time>2024-12-11T13:39:50Z</time>
      </trkpt>
      <trkpt lat="43.52376" lon="6.14329">
        <ele>320</ele>
        <time>2024-12-11T13:39:52Z</time>
      </trkpt>
      <trkpt lat="43.52377" lon="6.14327">
        <ele>321</ele>
        <time>2024-12-11T13:39:54Z</time>
      </trkpt>
      <trkpt lat="43.52379" lon="6.14325">
        <ele>320</ele>
        <time>2024-12-11T13:39:56Z</time>
      </trkpt>
      <trkpt lat="43.52387" lon="6.14311">
        <ele>320</ele>
        <time>2024-12-11T13:40:06Z</time>
      </trkpt>
      <trkpt lat="43.52394" lon="6.143">
        <ele>319</ele>
        <time>2024-12-11T13:40:14Z</time>
      </trkpt>
      <trkpt lat="43.52395" lon="6.14292">
        <ele>318</ele>
        <time>2024-12-11T13:40:18Z</time>
      </trkpt>
      <trkpt lat="43.52396" lon="6.14289">
        <ele>318</ele>
        <time>2024-12-11T13:40:20Z</time>
      </trkpt>
      <trkpt lat="43.52406" lon="6.14266">
        <ele>316</ele>
        <time>2024-12-11T13:40:34Z</time>
      </trkpt>
      <trkpt lat="43.52407" lon="6.14264">
        <ele>316</ele>
        <time>2024-12-11T13:40:36Z</time>
      </trkpt>
      <trkpt lat="43.52416" lon="6.14247">
        <ele>317</ele>
        <time>2024-12-11T13:40:48Z</time>
      </trkpt>
      <trkpt lat="43.52419" lon="6.14241">
        <ele>318</ele>
        <time>2024-12-11T13:40:52Z</time>
      </trkpt>
      <trkpt lat="43.52419" lon="6.14237">
        <ele>319</ele>
        <time>2024-12-11T13:40:56Z</time>
      </trkpt>
      <trkpt lat="43.52423" lon="6.14233">
        <ele>319</ele>
        <time>2024-12-11T13:41:00Z</time>
      </trkpt>
      <trkpt lat="43.52425" lon="6.1423">
        <ele>318</ele>
        <time>2024-12-11T13:41:02Z</time>
      </trkpt>
      <trkpt lat="43.52426" lon="6.14224">
        <ele>318</ele>
        <time>2024-12-11T13:41:06Z</time>
      </trkpt>
      <trkpt lat="43.5243" lon="6.14203">
        <ele>318</ele>
        <time>2024-12-11T13:41:18Z</time>
      </trkpt>
      <trkpt lat="43.52429" lon="6.14197">
        <ele>319</ele>
        <time>2024-12-11T13:41:22Z</time>
      </trkpt>
      <trkpt lat="43.52428" lon="6.14193">
        <ele>319</ele>
        <time>2024-12-11T13:41:24Z</time>
      </trkpt>
      <trkpt lat="43.52428" lon="6.14186">
        <ele>320</ele>
        <time>2024-12-11T13:41:28Z</time>
      </trkpt>
      <trkpt lat="43.52426" lon="6.14182">
        <ele>320</ele>
        <time>2024-12-11T13:41:32Z</time>
      </trkpt>
      <trkpt lat="43.52426" lon="6.14179">
        <ele>320</ele>
        <time>2024-12-11T13:41:34Z</time>
      </trkpt>
      <trkpt lat="43.52424" lon="6.14172">
        <ele>321</ele>
        <time>2024-12-11T13:41:38Z</time>
      </trkpt>
      <trkpt lat="43.52423" lon="6.14168">
        <ele>321</ele>
        <time>2024-12-11T13:41:40Z</time>
      </trkpt>
      <trkpt lat="43.52421" lon="6.14162">
        <ele>322</ele>
        <time>2024-12-11T13:41:44Z</time>
      </trkpt>
      <trkpt lat="43.52421" lon="6.14159">
        <ele>323</ele>
        <time>2024-12-11T13:41:46Z</time>
      </trkpt>
      <trkpt lat="43.5242" lon="6.14156">
        <ele>324</ele>
        <time>2024-12-11T13:41:50Z</time>
      </trkpt>
      <trkpt lat="43.52417" lon="6.14156">
        <ele>325</ele>
        <time>2024-12-11T13:41:56Z</time>
      </trkpt>
      <trkpt lat="43.52416" lon="6.14153">
        <ele>324</ele>
        <time>2024-12-11T13:41:58Z</time>
      </trkpt>
      <trkpt lat="43.52416" lon="6.14149">
        <ele>323</ele>
        <time>2024-12-11T13:42:00Z</time>
      </trkpt>
      <trkpt lat="43.52416" lon="6.14144">
        <ele>322</ele>
        <time>2024-12-11T13:42:02Z</time>
      </trkpt>
      <trkpt lat="43.52415" lon="6.14142">
        <ele>322</ele>
        <time>2024-12-11T13:42:04Z</time>
      </trkpt>
      <trkpt lat="43.52413" lon="6.1412">
        <ele>320</ele>
        <time>2024-12-11T13:42:16Z</time>
      </trkpt>
      <trkpt lat="43.52413" lon="6.14117">
        <ele>320</ele>
        <time>2024-12-11T13:42:18Z</time>
      </trkpt>
      <trkpt lat="43.52413" lon="6.14113">
        <ele>320</ele>
        <time>2024-12-11T13:42:20Z</time>
      </trkpt>
      <trkpt lat="43.52409" lon="6.141">
        <ele>320</ele>
        <time>2024-12-11T13:42:28Z</time>
      </trkpt>
      <trkpt lat="43.52406" lon="6.14096">
        <ele>320</ele>
        <time>2024-12-11T13:42:30Z</time>
      </trkpt>
      <trkpt lat="43.52406" lon="6.14093">
        <ele>320</ele>
        <time>2024-12-11T13:42:32Z</time>
      </trkpt>
      <trkpt lat="43.52406" lon="6.14088">
        <ele>320</ele>
        <time>2024-12-11T13:42:36Z</time>
      </trkpt>
      <trkpt lat="43.52406" lon="6.14082">
        <ele>321</ele>
        <time>2024-12-11T13:42:40Z</time>
      </trkpt>
      <trkpt lat="43.52411" lon="6.14068">
        <ele>323</ele>
        <time>2024-12-11T13:42:48Z</time>
      </trkpt>
      <trkpt lat="43.52413" lon="6.14063">
        <ele>323</ele>
        <time>2024-12-11T13:42:52Z</time>
      </trkpt>
      <trkpt lat="43.52414" lon="6.14059">
        <ele>323</ele>
        <time>2024-12-11T13:42:54Z</time>
      </trkpt>
      <trkpt lat="43.52416" lon="6.14054">
        <ele>323</ele>
        <time>2024-12-11T13:42:58Z</time>
      </trkpt>
      <trkpt lat="43.5242" lon="6.14047">
        <ele>325</ele>
        <time>2024-12-11T13:43:04Z</time>
      </trkpt>
      <trkpt lat="43.52428" lon="6.14042">
        <ele>328</ele>
        <time>2024-12-11T13:43:10Z</time>
      </trkpt>
      <trkpt lat="43.52436" lon="6.14036">
        <ele>330</ele>
        <time>2024-12-11T13:43:18Z</time>
      </trkpt>
      <trkpt lat="43.52437" lon="6.14031">
        <ele>331</ele>
        <time>2024-12-11T13:43:22Z</time>
      </trkpt>
      <trkpt lat="43.5244" lon="6.14027">
        <ele>331</ele>
        <time>2024-12-11T13:43:26Z</time>
      </trkpt>
      <trkpt lat="43.52444" lon="6.14023">
        <ele>331</ele>
        <time>2024-12-11T13:43:30Z</time>
      </trkpt>
      <trkpt lat="43.52448" lon="6.14014">
        <ele>332</ele>
        <time>2024-12-11T13:43:36Z</time>
      </trkpt>
      <trkpt lat="43.52452" lon="6.13998">
        <ele>334</ele>
        <time>2024-12-11T13:43:46Z</time>
      </trkpt>
      <trkpt lat="43.52452" lon="6.13995">
        <ele>334</ele>
        <time>2024-12-11T13:43:48Z</time>
      </trkpt>
      <trkpt lat="43.52458" lon="6.13985">
        <ele>334</ele>
        <time>2024-12-11T13:43:56Z</time>
      </trkpt>
      <trkpt lat="43.52461" lon="6.13971">
        <ele>333</ele>
        <time>2024-12-11T13:44:04Z</time>
      </trkpt>
      <trkpt lat="43.52461" lon="6.13967">
        <ele>332</ele>
        <time>2024-12-11T13:44:06Z</time>
      </trkpt>
      <trkpt lat="43.52461" lon="6.13965">
        <ele>332</ele>
        <time>2024-12-11T13:44:08Z</time>
      </trkpt>
      <trkpt lat="43.52461" lon="6.13962">
        <ele>332</ele>
        <time>2024-12-11T13:44:10Z</time>
      </trkpt>
      <trkpt lat="43.52464" lon="6.13955">
        <ele>332</ele>
        <time>2024-12-11T13:44:14Z</time>
      </trkpt>
      <trkpt lat="43.52469" lon="6.13948">
        <ele>333</ele>
        <time>2024-12-11T13:44:20Z</time>
      </trkpt>
      <trkpt lat="43.52473" lon="6.13937">
        <ele>331</ele>
        <time>2024-12-11T13:44:28Z</time>
      </trkpt>
      <trkpt lat="43.52487" lon="6.1392">
        <ele>333</ele>
        <time>2024-12-11T13:44:40Z</time>
      </trkpt>
      <trkpt lat="43.52489" lon="6.13917">
        <ele>335</ele>
        <time>2024-12-11T13:44:42Z</time>
      </trkpt>
      <trkpt lat="43.52496" lon="6.13903">
        <ele>336</ele>
        <time>2024-12-11T13:44:52Z</time>
      </trkpt>
      <trkpt lat="43.52503" lon="6.13894">
        <ele>336</ele>
        <time>2024-12-11T13:45:02Z</time>
      </trkpt>
      <trkpt lat="43.52507" lon="6.13883">
        <ele>334</ele>
        <time>2024-12-11T13:45:10Z</time>
      </trkpt>
      <trkpt lat="43.52518" lon="6.13872">
        <ele>333</ele>
        <time>2024-12-11T13:45:22Z</time>
      </trkpt>
      <trkpt lat="43.5252" lon="6.13867">
        <ele>334</ele>
        <time>2024-12-11T13:45:26Z</time>
      </trkpt>
      <trkpt lat="43.52522" lon="6.13865">
        <ele>335</ele>
        <time>2024-12-11T13:45:28Z</time>
      </trkpt>
      <trkpt lat="43.52524" lon="6.13863">
        <ele>335</ele>
        <time>2024-12-11T13:45:30Z</time>
      </trkpt>
      <trkpt lat="43.52527" lon="6.13859">
        <ele>336</ele>
        <time>2024-12-11T13:45:34Z</time>
      </trkpt>
      <trkpt lat="43.52534" lon="6.13854">
        <ele>337</ele>
        <time>2024-12-11T13:45:40Z</time>
      </trkpt>
      <trkpt lat="43.52536" lon="6.13852">
        <ele>338</ele>
        <time>2024-12-11T13:45:42Z</time>
      </trkpt>
      <trkpt lat="43.52538" lon="6.1385">
        <ele>339</ele>
        <time>2024-12-11T13:45:46Z</time>
      </trkpt>
      <trkpt lat="43.52539" lon="6.13846">
        <ele>339</ele>
        <time>2024-12-11T13:45:50Z</time>
      </trkpt>
      <trkpt lat="43.52539" lon="6.13843">
        <ele>339</ele>
        <time>2024-12-11T13:45:52Z</time>
      </trkpt>
      <trkpt lat="43.52542" lon="6.13837">
        <ele>340</ele>
        <time>2024-12-11T13:45:56Z</time>
      </trkpt>
      <trkpt lat="43.52541" lon="6.13831">
        <ele>341</ele>
        <time>2024-12-11T13:46:00Z</time>
      </trkpt>
      <trkpt lat="43.5254" lon="6.13827">
        <ele>343</ele>
        <time>2024-12-11T13:46:16Z</time>
      </trkpt>
      <trkpt lat="43.52539" lon="6.1382">
        <ele>345</ele>
        <time>2024-12-11T13:46:20Z</time>
      </trkpt>
      <trkpt lat="43.52538" lon="6.13817">
        <ele>346</ele>
        <time>2024-12-11T13:46:22Z</time>
      </trkpt>
      <trkpt lat="43.52538" lon="6.13811">
        <ele>348</ele>
        <time>2024-12-11T13:46:26Z</time>
      </trkpt>
      <trkpt lat="43.52539" lon="6.13808">
        <ele>349</ele>
        <time>2024-12-11T13:46:28Z</time>
      </trkpt>
      <trkpt lat="43.52547" lon="6.13796">
        <ele>353</ele>
        <time>2024-12-11T13:46:38Z</time>
      </trkpt>
      <trkpt lat="43.52547" lon="6.1379">
        <ele>354</ele>
        <time>2024-12-11T13:46:42Z</time>
      </trkpt>
      <trkpt lat="43.52547" lon="6.13786">
        <ele>354</ele>
        <time>2024-12-11T13:46:44Z</time>
      </trkpt>
      <trkpt lat="43.52548" lon="6.13782">
        <ele>354</ele>
        <time>2024-12-11T13:46:48Z</time>
      </trkpt>
      <trkpt lat="43.52548" lon="6.13779">
        <ele>353</ele>
        <time>2024-12-11T13:46:50Z</time>
      </trkpt>
      <trkpt lat="43.52546" lon="6.13774">
        <ele>351</ele>
        <time>2024-12-11T13:46:54Z</time>
      </trkpt>
      <trkpt lat="43.52551" lon="6.13754">
        <ele>349</ele>
        <time>2024-12-11T13:47:08Z</time>
      </trkpt>
      <trkpt lat="43.52553" lon="6.13748">
        <ele>349</ele>
        <time>2024-12-11T13:47:12Z</time>
      </trkpt>
      <trkpt lat="43.52554" lon="6.13745">
        <ele>350</ele>
        <time>2024-12-11T13:47:14Z</time>
      </trkpt>
      <trkpt lat="43.52555" lon="6.13737">
        <ele>350</ele>
        <time>2024-12-11T13:47:18Z</time>
      </trkpt>
      <trkpt lat="43.52556" lon="6.13732">
        <ele>350</ele>
        <time>2024-12-11T13:47:22Z</time>
      </trkpt>
      <trkpt lat="43.52556" lon="6.1373">
        <ele>350</ele>
        <time>2024-12-11T13:47:24Z</time>
      </trkpt>
      <trkpt lat="43.52559" lon="6.13712">
        <ele>354</ele>
        <time>2024-12-11T13:47:38Z</time>
      </trkpt>
      <trkpt lat="43.52563" lon="6.13707">
        <ele>356</ele>
        <time>2024-12-11T13:47:42Z</time>
      </trkpt>
      <trkpt lat="43.52568" lon="6.13705">
        <ele>358</ele>
        <time>2024-12-11T13:47:44Z</time>
      </trkpt>
      <trkpt lat="43.5257" lon="6.13704">
        <ele>359</ele>
        <time>2024-12-11T13:47:46Z</time>
      </trkpt>
      <trkpt lat="43.52571" lon="6.13701">
        <ele>360</ele>
        <time>2024-12-11T13:47:48Z</time>
      </trkpt>
      <trkpt lat="43.52572" lon="6.13698">
        <ele>361</ele>
        <time>2024-12-11T13:47:50Z</time>
      </trkpt>
      <trkpt lat="43.52576" lon="6.13693">
        <ele>363</ele>
        <time>2024-12-11T13:47:56Z</time>
      </trkpt>
      <trkpt lat="43.52576" lon="6.13689">
        <ele>361</ele>
        <time>2024-12-11T13:48:00Z</time>
      </trkpt>
      <trkpt lat="43.52577" lon="6.13686">
        <ele>361</ele>
        <time>2024-12-11T13:48:02Z</time>
      </trkpt>
      <trkpt lat="43.52579" lon="6.13683">
        <ele>360</ele>
        <time>2024-12-11T13:48:04Z</time>
      </trkpt>
      <trkpt lat="43.52587" lon="6.13678">
        <ele>359</ele>
        <time>2024-12-11T13:48:14Z</time>
      </trkpt>
      <trkpt lat="43.52593" lon="6.13672">
        <ele>359</ele>
        <time>2024-12-11T13:48:20Z</time>
      </trkpt>
      <trkpt lat="43.52595" lon="6.13669">
        <ele>360</ele>
        <time>2024-12-11T13:48:22Z</time>
      </trkpt>
      <trkpt lat="43.52605" lon="6.13653">
        <ele>362</ele>
        <time>2024-12-11T13:48:36Z</time>
      </trkpt>
      <trkpt lat="43.52606" lon="6.1365">
        <ele>363</ele>
        <time>2024-12-11T13:48:38Z</time>
      </trkpt>
      <trkpt lat="43.5261" lon="6.13647">
        <ele>364</ele>
        <time>2024-12-11T13:48:42Z</time>
      </trkpt>
      <trkpt lat="43.52611" lon="6.13644">
        <ele>365</ele>
        <time>2024-12-11T13:48:44Z</time>
      </trkpt>
      <trkpt lat="43.52613" lon="6.13644">
        <ele>366</ele>
        <time>2024-12-11T13:48:52Z</time>
      </trkpt>
      <trkpt lat="43.52613" lon="6.13641">
        <ele>367</ele>
        <time>2024-12-11T13:50:50Z</time>
      </trkpt>
      <trkpt lat="43.5262" lon="6.13632">
        <ele>370</ele>
        <time>2024-12-11T13:51:32Z</time>
      </trkpt>
      <trkpt lat="43.52622" lon="6.13631">
        <ele>371</ele>
        <time>2024-12-11T13:51:34Z</time>
      </trkpt>
      <trkpt lat="43.52624" lon="6.13629">
        <ele>372</ele>
        <time>2024-12-11T13:51:36Z</time>
      </trkpt>
      <trkpt lat="43.52626" lon="6.13626">
        <ele>371</ele>
        <time>2024-12-11T13:51:38Z</time>
      </trkpt>
      <trkpt lat="43.52628" lon="6.13624">
        <ele>371</ele>
        <time>2024-12-11T13:51:40Z</time>
      </trkpt>
      <trkpt lat="43.52632" lon="6.13615">
        <ele>370</ele>
        <time>2024-12-11T13:51:46Z</time>
      </trkpt>
      <trkpt lat="43.52634" lon="6.13613">
        <ele>370</ele>
        <time>2024-12-11T13:51:48Z</time>
      </trkpt>
      <trkpt lat="43.52657" lon="6.13594">
        <ele>368</ele>
        <time>2024-12-11T13:52:10Z</time>
      </trkpt>
      <trkpt lat="43.52664" lon="6.13592">
        <ele>367</ele>
        <time>2024-12-11T13:52:16Z</time>
      </trkpt>
      <trkpt lat="43.52667" lon="6.13588">
        <ele>366</ele>
        <time>2024-12-11T13:52:20Z</time>
      </trkpt>
      <trkpt lat="43.5267" lon="6.13587">
        <ele>366</ele>
        <time>2024-12-11T13:52:22Z</time>
      </trkpt>
      <trkpt lat="43.52673" lon="6.13586">
        <ele>365</ele>
        <time>2024-12-11T13:52:24Z</time>
      </trkpt>
      <trkpt lat="43.52675" lon="6.13585">
        <ele>365</ele>
        <time>2024-12-11T13:52:26Z</time>
      </trkpt>
      <trkpt lat="43.52688" lon="6.13568">
        <ele>365</ele>
        <time>2024-12-11T13:52:40Z</time>
      </trkpt>
      <trkpt lat="43.5269" lon="6.13562">
        <ele>365</ele>
        <time>2024-12-11T13:52:44Z</time>
      </trkpt>
      <trkpt lat="43.52691" lon="6.13559">
        <ele>365</ele>
        <time>2024-12-11T13:52:46Z</time>
      </trkpt>
      <trkpt lat="43.52694" lon="6.13555">
        <ele>365</ele>
        <time>2024-12-11T13:52:50Z</time>
      </trkpt>
      <trkpt lat="43.52697" lon="6.13548">
        <ele>366</ele>
        <time>2024-12-11T13:52:54Z</time>
      </trkpt>
      <trkpt lat="43.52697" lon="6.13545">
        <ele>366</ele>
        <time>2024-12-11T13:52:56Z</time>
      </trkpt>
      <trkpt lat="43.52707" lon="6.13527">
        <ele>369</ele>
        <time>2024-12-11T13:53:08Z</time>
      </trkpt>
      <trkpt lat="43.52714" lon="6.13502">
        <ele>373</ele>
        <time>2024-12-11T13:53:22Z</time>
      </trkpt>
      <trkpt lat="43.52715" lon="6.13499">
        <ele>373</ele>
        <time>2024-12-11T13:53:24Z</time>
      </trkpt>
      <trkpt lat="43.52718" lon="6.13491">
        <ele>373</ele>
        <time>2024-12-11T13:53:30Z</time>
      </trkpt>
      <trkpt lat="43.52719" lon="6.13488">
        <ele>374</ele>
        <time>2024-12-11T13:53:32Z</time>
      </trkpt>
      <trkpt lat="43.52719" lon="6.13486">
        <ele>373</ele>
        <time>2024-12-11T13:53:34Z</time>
      </trkpt>
      <trkpt lat="43.52721" lon="6.13475">
        <ele>373</ele>
        <time>2024-12-11T13:53:40Z</time>
      </trkpt>
      <trkpt lat="43.52722" lon="6.13472">
        <ele>373</ele>
        <time>2024-12-11T13:53:42Z</time>
      </trkpt>
      <trkpt lat="43.52719" lon="6.13479">
        <ele>375</ele>
        <time>2024-12-11T13:53:46Z</time>
      </trkpt>
      <trkpt lat="43.52722" lon="6.13478">
        <ele>375</ele>
        <time>2024-12-11T13:53:48Z</time>
      </trkpt>
      <trkpt lat="43.52726" lon="6.13487">
        <ele>380</ele>
        <time>2024-12-11T13:53:54Z</time>
      </trkpt>
      <trkpt lat="43.52729" lon="6.13476">
        <ele>382</ele>
        <time>2024-12-11T13:53:56Z</time>
      </trkpt>
      <trkpt lat="43.5273" lon="6.13453">
        <ele>385</ele>
        <time>2024-12-11T13:53:58Z</time>
      </trkpt>
      <trkpt lat="43.5273" lon="6.1344">
        <ele>384</ele>
        <time>2024-12-11T13:54:00Z</time>
      </trkpt>
      <trkpt lat="43.52731" lon="6.13437">
        <ele>383</ele>
        <time>2024-12-11T13:54:02Z</time>
      </trkpt>
      <trkpt lat="43.52732" lon="6.1343">
        <ele>381</ele>
        <time>2024-12-11T13:54:06Z</time>
      </trkpt>
      <trkpt lat="43.52733" lon="6.13426">
        <ele>378</ele>
        <time>2024-12-11T13:54:10Z</time>
      </trkpt>
      <trkpt lat="43.52735" lon="6.13419">
        <ele>377</ele>
        <time>2024-12-11T13:54:14Z</time>
      </trkpt>
      <trkpt lat="43.52741" lon="6.13404">
        <ele>377</ele>
        <time>2024-12-11T13:54:24Z</time>
      </trkpt>
      <trkpt lat="43.5275" lon="6.1339">
        <ele>375</ele>
        <time>2024-12-11T13:54:36Z</time>
      </trkpt>
      <trkpt lat="43.5275" lon="6.13388">
        <ele>375</ele>
        <time>2024-12-11T13:54:38Z</time>
      </trkpt>
      <trkpt lat="43.5275" lon="6.13385">
        <ele>375</ele>
        <time>2024-12-11T13:54:40Z</time>
      </trkpt>
      <trkpt lat="43.5275" lon="6.13383">
        <ele>376</ele>
        <time>2024-12-11T13:54:42Z</time>
      </trkpt>
      <trkpt lat="43.52751" lon="6.13383">
        <ele>376</ele>
        <time>2024-12-11T13:54:52Z</time>
      </trkpt>
      <trkpt lat="43.52753" lon="6.13381">
        <ele>378</ele>
        <time>2024-12-11T13:55:12Z</time>
      </trkpt>
      <trkpt lat="43.52752" lon="6.13378">
        <ele>378</ele>
        <time>2024-12-11T13:55:16Z</time>
      </trkpt>
      <trkpt lat="43.52751" lon="6.13374">
        <ele>377</ele>
        <time>2024-12-11T13:55:38Z</time>
      </trkpt>
      <trkpt lat="43.52747" lon="6.13365">
        <ele>375</ele>
        <time>2024-12-11T13:55:44Z</time>
      </trkpt>
      <trkpt lat="43.52745" lon="6.13364">
        <ele>375</ele>
        <time>2024-12-11T13:55:46Z</time>
      </trkpt>
      <trkpt lat="43.52744" lon="6.1336">
        <ele>375</ele>
        <time>2024-12-11T13:55:48Z</time>
      </trkpt>
      <trkpt lat="43.52744" lon="6.13357">
        <ele>375</ele>
        <time>2024-12-11T13:55:50Z</time>
      </trkpt>
      <trkpt lat="43.52743" lon="6.13351">
        <ele>377</ele>
        <time>2024-12-11T13:55:54Z</time>
      </trkpt>
      <trkpt lat="43.52742" lon="6.13346">
        <ele>378</ele>
        <time>2024-12-11T13:55:56Z</time>
      </trkpt>
      <trkpt lat="43.5274" lon="6.13342">
        <ele>378</ele>
        <time>2024-12-11T13:56:00Z</time>
      </trkpt>
      <trkpt lat="43.52741" lon="6.13338">
        <ele>378</ele>
        <time>2024-12-11T13:56:02Z</time>
      </trkpt>
      <trkpt lat="43.52741" lon="6.13331">
        <ele>378</ele>
        <time>2024-12-11T13:56:06Z</time>
      </trkpt>
      <trkpt lat="43.5274" lon="6.13328">
        <ele>378</ele>
        <time>2024-12-11T13:56:08Z</time>
      </trkpt>
      <trkpt lat="43.52739" lon="6.13319">
        <ele>377</ele>
        <time>2024-12-11T13:56:14Z</time>
      </trkpt>
      <trkpt lat="43.52739" lon="6.13311">
        <ele>377</ele>
        <time>2024-12-11T13:56:20Z</time>
      </trkpt>
      <trkpt lat="43.52738" lon="6.13303">
        <ele>376</ele>
        <time>2024-12-11T13:56:24Z</time>
      </trkpt>
      <trkpt lat="43.52741" lon="6.13288">
        <ele>374</ele>
        <time>2024-12-11T13:56:32Z</time>
      </trkpt>
      <trkpt lat="43.52746" lon="6.13276">
        <ele>373</ele>
        <time>2024-12-11T13:56:40Z</time>
      </trkpt>
      <trkpt lat="43.52745" lon="6.13273">
        <ele>373</ele>
        <time>2024-12-11T13:56:42Z</time>
      </trkpt>
      <trkpt lat="43.52744" lon="6.13269">
        <ele>373</ele>
        <time>2024-12-11T13:56:44Z</time>
      </trkpt>
      <trkpt lat="43.52743" lon="6.13267">
        <ele>373</ele>
        <time>2024-12-11T13:56:46Z</time>
      </trkpt>
      <trkpt lat="43.52741" lon="6.13265">
        <ele>373</ele>
        <time>2024-12-11T13:56:48Z</time>
      </trkpt>
      <trkpt lat="43.52738" lon="6.13261">
        <ele>373</ele>
        <time>2024-12-11T13:56:52Z</time>
      </trkpt>
      <trkpt lat="43.5274" lon="6.1326">
        <ele>373</ele>
        <time>2024-12-11T13:56:56Z</time>
      </trkpt>
      <trkpt lat="43.52741" lon="6.13258">
        <ele>375</ele>
        <time>2024-12-11T13:57:04Z</time>
      </trkpt>
      <trkpt lat="43.52735" lon="6.13254">
        <ele>374</ele>
        <time>2024-12-11T13:58:14Z</time>
      </trkpt>
      <trkpt lat="43.52733" lon="6.13252">
        <ele>374</ele>
        <time>2024-12-11T13:58:16Z</time>
      </trkpt>
      <trkpt lat="43.52711" lon="6.1322">
        <ele>373</ele>
        <time>2024-12-11T13:58:40Z</time>
      </trkpt>
      <trkpt lat="43.52706" lon="6.13215">
        <ele>373</ele>
        <time>2024-12-11T13:58:44Z</time>
      </trkpt>
      <trkpt lat="43.52691" lon="6.13192">
        <ele>375</ele>
        <time>2024-12-11T13:59:00Z</time>
      </trkpt>
      <trkpt lat="43.52686" lon="6.13187">
        <ele>374</ele>
        <time>2024-12-11T13:59:04Z</time>
      </trkpt>
      <trkpt lat="43.52684" lon="6.1318">
        <ele>373</ele>
        <time>2024-12-11T13:59:08Z</time>
      </trkpt>
      <trkpt lat="43.52682" lon="6.13177">
        <ele>373</ele>
        <time>2024-12-11T13:59:10Z</time>
      </trkpt>
      <trkpt lat="43.5268" lon="6.13174">
        <ele>372</ele>
        <time>2024-12-11T13:59:12Z</time>
      </trkpt>
      <trkpt lat="43.52679" lon="6.13172">
        <ele>372</ele>
        <time>2024-12-11T13:59:14Z</time>
      </trkpt>
      <trkpt lat="43.52677" lon="6.13171">
        <ele>379</ele>
        <time>2024-12-11T13:59:16Z</time>
      </trkpt>
      <trkpt lat="43.52675" lon="6.13167">
        <ele>380</ele>
        <time>2024-12-11T13:59:18Z</time>
      </trkpt>
      <trkpt lat="43.52656" lon="6.13135">
        <ele>376</ele>
        <time>2024-12-11T13:59:40Z</time>
      </trkpt>
      <trkpt lat="43.52655" lon="6.13132">
        <ele>376</ele>
        <time>2024-12-11T13:59:42Z</time>
      </trkpt>
      <trkpt lat="43.52646" lon="6.13116">
        <ele>374</ele>
        <time>2024-12-11T13:59:52Z</time>
      </trkpt>
      <trkpt lat="43.52644" lon="6.13112">
        <ele>373</ele>
        <time>2024-12-11T13:59:54Z</time>
      </trkpt>
      <trkpt lat="43.52643" lon="6.13102">
        <ele>372</ele>
        <time>2024-12-11T14:00:00Z</time>
      </trkpt>
      <trkpt lat="43.5264" lon="6.13091">
        <ele>373</ele>
        <time>2024-12-11T14:00:06Z</time>
      </trkpt>
      <trkpt lat="43.5264" lon="6.13088">
        <ele>373</ele>
        <time>2024-12-11T14:00:08Z</time>
      </trkpt>
      <trkpt lat="43.52637" lon="6.13079">
        <ele>371</ele>
        <time>2024-12-11T14:00:12Z</time>
      </trkpt>
      <trkpt lat="43.52635" lon="6.13076">
        <ele>370</ele>
        <time>2024-12-11T14:00:14Z</time>
      </trkpt>
      <trkpt lat="43.52636" lon="6.13074">
        <ele>370</ele>
        <time>2024-12-11T14:00:16Z</time>
      </trkpt>
      <trkpt lat="43.52635" lon="6.13068">
        <ele>370</ele>
        <time>2024-12-11T14:00:18Z</time>
      </trkpt>
      <trkpt lat="43.52635" lon="6.13063">
        <ele>369</ele>
        <time>2024-12-11T14:00:20Z</time>
      </trkpt>
      <trkpt lat="43.52629" lon="6.13053">
        <ele>370</ele>
        <time>2024-12-11T14:00:26Z</time>
      </trkpt>
      <trkpt lat="43.52624" lon="6.13042">
        <ele>370</ele>
        <time>2024-12-11T14:00:34Z</time>
      </trkpt>
      <trkpt lat="43.52612" lon="6.1303">
        <ele>372</ele>
        <time>2024-12-11T14:00:44Z</time>
      </trkpt>
      <trkpt lat="43.5261" lon="6.13028">
        <ele>372</ele>
        <time>2024-12-11T14:00:46Z</time>
      </trkpt>
      <trkpt lat="43.52608" lon="6.13026">
        <ele>372</ele>
        <time>2024-12-11T14:00:48Z</time>
      </trkpt>
      <trkpt lat="43.52606" lon="6.13025">
        <ele>373</ele>
        <time>2024-12-11T14:00:50Z</time>
      </trkpt>
      <trkpt lat="43.52601" lon="6.1302">
        <ele>373</ele>
        <time>2024-12-11T14:00:54Z</time>
      </trkpt>
      <trkpt lat="43.52597" lon="6.13014">
        <ele>373</ele>
        <time>2024-12-11T14:00:58Z</time>
      </trkpt>
      <trkpt lat="43.52583" lon="6.12996">
        <ele>372</ele>
        <time>2024-12-11T14:01:10Z</time>
      </trkpt>
      <trkpt lat="43.52581" lon="6.12993">
        <ele>372</ele>
        <time>2024-12-11T14:01:12Z</time>
      </trkpt>
      <trkpt lat="43.52576" lon="6.12988">
        <ele>372</ele>
        <time>2024-12-11T14:01:16Z</time>
      </trkpt>
      <trkpt lat="43.52573" lon="6.12985">
        <ele>372</ele>
        <time>2024-12-11T14:01:18Z</time>
      </trkpt>
      <trkpt lat="43.52571" lon="6.12982">
        <ele>372</ele>
        <time>2024-12-11T14:01:20Z</time>
      </trkpt>
      <trkpt lat="43.52572" lon="6.12979">
        <ele>373</ele>
        <time>2024-12-11T14:01:22Z</time>
      </trkpt>
      <trkpt lat="43.52569" lon="6.12977">
        <ele>374</ele>
        <time>2024-12-11T14:01:24Z</time>
      </trkpt>
      <trkpt lat="43.52566" lon="6.12975">
        <ele>375</ele>
        <time>2024-12-11T14:01:26Z</time>
      </trkpt>
      <trkpt lat="43.52563" lon="6.12975">
        <ele>375</ele>
        <time>2024-12-11T14:01:28Z</time>
      </trkpt>
      <trkpt lat="43.52561" lon="6.12974">
        <ele>375</ele>
        <time>2024-12-11T14:01:30Z</time>
      </trkpt>
      <trkpt lat="43.52559" lon="6.12972">
        <ele>375</ele>
        <time>2024-12-11T14:01:32Z</time>
      </trkpt>
      <trkpt lat="43.52554" lon="6.12972">
        <ele>375</ele>
        <time>2024-12-11T14:01:34Z</time>
      </trkpt>
      <trkpt lat="43.52552" lon="6.12967">
        <ele>377</ele>
        <time>2024-12-11T14:01:38Z</time>
      </trkpt>
      <trkpt lat="43.52553" lon="6.12962">
        <ele>377</ele>
        <time>2024-12-11T14:01:40Z</time>
      </trkpt>
      <trkpt lat="43.52554" lon="6.12959">
        <ele>376</ele>
        <time>2024-12-11T14:01:42Z</time>
      </trkpt>
      <trkpt lat="43.52555" lon="6.12957">
        <ele>376</ele>
        <time>2024-12-11T14:01:44Z</time>
      </trkpt>
      <trkpt lat="43.52557" lon="6.12958">
        <ele>374</ele>
        <time>2024-12-11T14:01:54Z</time>
      </trkpt>
      <trkpt lat="43.52556" lon="6.12951">
        <ele>372</ele>
        <time>2024-12-11T14:03:10Z</time>
      </trkpt>
      <trkpt lat="43.52557" lon="6.12948">
        <ele>371</ele>
        <time>2024-12-11T14:03:12Z</time>
      </trkpt>
      <trkpt lat="43.5256" lon="6.12937">
        <ele>370</ele>
        <time>2024-12-11T14:03:18Z</time>
      </trkpt>
      <trkpt lat="43.52559" lon="6.12932">
        <ele>369</ele>
        <time>2024-12-11T14:03:22Z</time>
      </trkpt>
      <trkpt lat="43.52558" lon="6.12929">
        <ele>369</ele>
        <time>2024-12-11T14:03:24Z</time>
      </trkpt>
      <trkpt lat="43.52556" lon="6.12918">
        <ele>366</ele>
        <time>2024-12-11T14:03:32Z</time>
      </trkpt>
      <trkpt lat="43.52554" lon="6.12911">
        <ele>365</ele>
        <time>2024-12-11T14:03:36Z</time>
      </trkpt>
      <trkpt lat="43.52553" lon="6.12909">
        <ele>365</ele>
        <time>2024-12-11T14:03:38Z</time>
      </trkpt>
      <trkpt lat="43.52535" lon="6.12894">
        <ele>365</ele>
        <time>2024-12-11T14:03:52Z</time>
      </trkpt>
      <trkpt lat="43.52533" lon="6.12892">
        <ele>365</ele>
        <time>2024-12-11T14:03:54Z</time>
      </trkpt>
      <trkpt lat="43.52528" lon="6.12886">
        <ele>368</ele>
        <time>2024-12-11T14:03:58Z</time>
      </trkpt>
      <trkpt lat="43.52526" lon="6.12883">
        <ele>368</ele>
        <time>2024-12-11T14:04:00Z</time>
      </trkpt>
      <trkpt lat="43.52525" lon="6.12881">
        <ele>368</ele>
        <time>2024-12-11T14:04:02Z</time>
      </trkpt>
      <trkpt lat="43.52527" lon="6.12873">
        <ele>368</ele>
        <time>2024-12-11T14:04:06Z</time>
      </trkpt>
      <trkpt lat="43.52528" lon="6.1287">
        <ele>368</ele>
        <time>2024-12-11T14:04:08Z</time>
      </trkpt>
      <trkpt lat="43.52529" lon="6.12868">
        <ele>368</ele>
        <time>2024-12-11T14:04:10Z</time>
      </trkpt>
      <trkpt lat="43.52532" lon="6.12862">
        <ele>368</ele>
        <time>2024-12-11T14:04:14Z</time>
      </trkpt>
      <trkpt lat="43.52533" lon="6.12859">
        <ele>367</ele>
        <time>2024-12-11T14:04:16Z</time>
      </trkpt>
      <trkpt lat="43.52532" lon="6.12857">
        <ele>367</ele>
        <time>2024-12-11T14:04:18Z</time>
      </trkpt>
      <trkpt lat="43.52534" lon="6.12851">
        <ele>366</ele>
        <time>2024-12-11T14:04:20Z</time>
      </trkpt>
      <trkpt lat="43.52535" lon="6.12847">
        <ele>365</ele>
        <time>2024-12-11T14:04:22Z</time>
      </trkpt>
      <trkpt lat="43.52534" lon="6.12842">
        <ele>365</ele>
        <time>2024-12-11T14:04:24Z</time>
      </trkpt>
      <trkpt lat="43.52535" lon="6.12839">
        <ele>364</ele>
        <time>2024-12-11T14:04:26Z</time>
      </trkpt>
      <trkpt lat="43.52534" lon="6.12835">
        <ele>364</ele>
        <time>2024-12-11T14:04:28Z</time>
      </trkpt>
      <trkpt lat="43.52533" lon="6.12824">
        <ele>364</ele>
        <time>2024-12-11T14:04:34Z</time>
      </trkpt>
      <trkpt lat="43.52532" lon="6.12821">
        <ele>365</ele>
        <time>2024-12-11T14:04:36Z</time>
      </trkpt>
      <trkpt lat="43.52534" lon="6.12817">
        <ele>367</ele>
        <time>2024-12-11T14:04:38Z</time>
      </trkpt>
      <trkpt lat="43.52534" lon="6.12811">
        <ele>369</ele>
        <time>2024-12-11T14:04:42Z</time>
      </trkpt>
      <trkpt lat="43.52533" lon="6.12803">
        <ele>366</ele>
        <time>2024-12-11T14:04:46Z</time>
      </trkpt>
      <trkpt lat="43.52532" lon="6.12798">
        <ele>365</ele>
        <time>2024-12-11T14:04:48Z</time>
      </trkpt>
      <trkpt lat="43.52532" lon="6.12795">
        <ele>365</ele>
        <time>2024-12-11T14:04:50Z</time>
      </trkpt>
      <trkpt lat="43.52537" lon="6.12788">
        <ele>364</ele>
        <time>2024-12-11T14:04:54Z</time>
      </trkpt>
      <trkpt lat="43.52539" lon="6.12782">
        <ele>363</ele>
        <time>2024-12-11T14:04:58Z</time>
      </trkpt>
      <trkpt lat="43.5254" lon="6.12776">
        <ele>363</ele>
        <time>2024-12-11T14:05:00Z</time>
      </trkpt>
      <trkpt lat="43.52541" lon="6.12773">
        <ele>363</ele>
        <time>2024-12-11T14:05:02Z</time>
      </trkpt>
      <trkpt lat="43.52541" lon="6.1277">
        <ele>362</ele>
        <time>2024-12-11T14:05:04Z</time>
      </trkpt>
      <trkpt lat="43.52541" lon="6.12766">
        <ele>363</ele>
        <time>2024-12-11T14:05:06Z</time>
      </trkpt>
      <trkpt lat="43.52541" lon="6.12759">
        <ele>362</ele>
        <time>2024-12-11T14:05:10Z</time>
      </trkpt>
      <trkpt lat="43.52539" lon="6.12753">
        <ele>362</ele>
        <time>2024-12-11T14:05:14Z</time>
      </trkpt>
      <trkpt lat="43.52538" lon="6.1275">
        <ele>361</ele>
        <time>2024-12-11T14:05:16Z</time>
      </trkpt>
      <trkpt lat="43.52537" lon="6.12746">
        <ele>361</ele>
        <time>2024-12-11T14:05:18Z</time>
      </trkpt>
      <trkpt lat="43.52535" lon="6.12743">
        <ele>360</ele>
        <time>2024-12-11T14:05:20Z</time>
      </trkpt>
      <trkpt lat="43.52533" lon="6.12739">
        <ele>360</ele>
        <time>2024-12-11T14:05:22Z</time>
      </trkpt>
      <trkpt lat="43.52531" lon="6.12737">
        <ele>360</ele>
        <time>2024-12-11T14:05:24Z</time>
      </trkpt>
      <trkpt lat="43.52529" lon="6.12735">
        <ele>361</ele>
        <time>2024-12-11T14:05:26Z</time>
      </trkpt>
      <trkpt lat="43.52526" lon="6.12732">
        <ele>360</ele>
        <time>2024-12-11T14:05:28Z</time>
      </trkpt>
      <trkpt lat="43.52524" lon="6.12731">
        <ele>359</ele>
        <time>2024-12-11T14:05:30Z</time>
      </trkpt>
      <trkpt lat="43.52521" lon="6.12728">
        <ele>359</ele>
        <time>2024-12-11T14:05:32Z</time>
      </trkpt>
      <trkpt lat="43.5252" lon="6.12725">
        <ele>360</ele>
        <time>2024-12-11T14:05:34Z</time>
      </trkpt>
      <trkpt lat="43.52516" lon="6.1272">
        <ele>360</ele>
        <time>2024-12-11T14:05:38Z</time>
      </trkpt>
      <trkpt lat="43.52511" lon="6.12711">
        <ele>360</ele>
        <time>2024-12-11T14:05:44Z</time>
      </trkpt>
      <trkpt lat="43.52509" lon="6.12709">
        <ele>359</ele>
        <time>2024-12-11T14:05:46Z</time>
      </trkpt>
      <trkpt lat="43.52507" lon="6.12706">
        <ele>359</ele>
        <time>2024-12-11T14:05:48Z</time>
      </trkpt>
      <trkpt lat="43.52505" lon="6.12704">
        <ele>358</ele>
        <time>2024-12-11T14:05:50Z</time>
      </trkpt>
      <trkpt lat="43.52503" lon="6.12701">
        <ele>358</ele>
        <time>2024-12-11T14:05:52Z</time>
      </trkpt>
      <trkpt lat="43.52502" lon="6.12698">
        <ele>358</ele>
        <time>2024-12-11T14:05:54Z</time>
      </trkpt>
      <trkpt lat="43.52501" lon="6.12695">
        <ele>358</ele>
        <time>2024-12-11T14:05:56Z</time>
      </trkpt>
      <trkpt lat="43.52497" lon="6.1269">
        <ele>358</ele>
        <time>2024-12-11T14:06:00Z</time>
      </trkpt>
      <trkpt lat="43.52491" lon="6.12679">
        <ele>358</ele>
        <time>2024-12-11T14:06:06Z</time>
      </trkpt>
      <trkpt lat="43.52487" lon="6.12671">
        <ele>357</ele>
        <time>2024-12-11T14:06:10Z</time>
      </trkpt>
      <trkpt lat="43.52478" lon="6.12655">
        <ele>355</ele>
        <time>2024-12-11T14:06:20Z</time>
      </trkpt>
      <trkpt lat="43.52476" lon="6.12654">
        <ele>355</ele>
        <time>2024-12-11T14:06:22Z</time>
      </trkpt>
      <trkpt lat="43.52477" lon="6.12647">
        <ele>355</ele>
        <time>2024-12-11T14:06:26Z</time>
      </trkpt>
      <trkpt lat="43.52476" lon="6.12644">
        <ele>356</ele>
        <time>2024-12-11T14:06:28Z</time>
      </trkpt>
      <trkpt lat="43.52476" lon="6.1264">
        <ele>355</ele>
        <time>2024-12-11T14:06:30Z</time>
      </trkpt>
      <trkpt lat="43.52474" lon="6.12636">
        <ele>354</ele>
        <time>2024-12-11T14:06:32Z</time>
      </trkpt>
      <trkpt lat="43.5247" lon="6.12631">
        <ele>352</ele>
        <time>2024-12-11T14:06:34Z</time>
      </trkpt>
      <trkpt lat="43.52469" lon="6.12629">
        <ele>353</ele>
        <time>2024-12-11T14:06:36Z</time>
      </trkpt>
      <trkpt lat="43.52467" lon="6.12626">
        <ele>354</ele>
        <time>2024-12-11T14:06:38Z</time>
      </trkpt>
      <trkpt lat="43.52455" lon="6.12607">
        <ele>357</ele>
        <time>2024-12-11T14:06:50Z</time>
      </trkpt>
      <trkpt lat="43.52452" lon="6.126">
        <ele>357</ele>
        <time>2024-12-11T14:06:54Z</time>
      </trkpt>
      <trkpt lat="43.52449" lon="6.12592">
        <ele>357</ele>
        <time>2024-12-11T14:06:58Z</time>
      </trkpt>
      <trkpt lat="43.52448" lon="6.12585">
        <ele>356</ele>
        <time>2024-12-11T14:07:02Z</time>
      </trkpt>
      <trkpt lat="43.52445" lon="6.12578">
        <ele>356</ele>
        <time>2024-12-11T14:07:06Z</time>
      </trkpt>
      <trkpt lat="43.52445" lon="6.12572">
        <ele>355</ele>
        <time>2024-12-11T14:07:10Z</time>
      </trkpt>
      <trkpt lat="43.5244" lon="6.12563">
        <ele>353</ele>
        <time>2024-12-11T14:07:16Z</time>
      </trkpt>
      <trkpt lat="43.5244" lon="6.12561">
        <ele>352</ele>
        <time>2024-12-11T14:07:20Z</time>
      </trkpt>
      <trkpt lat="43.52441" lon="6.1256">
        <ele>353</ele>
        <time>2024-12-11T14:07:26Z</time>
      </trkpt>
      <trkpt lat="43.5244" lon="6.12557">
        <ele>357</ele>
        <time>2024-12-11T14:08:18Z</time>
      </trkpt>
      <trkpt lat="43.52442" lon="6.12554">
        <ele>357</ele>
        <time>2024-12-11T14:08:20Z</time>
      </trkpt>
      <trkpt lat="43.52443" lon="6.12551">
        <ele>358</ele>
        <time>2024-12-11T14:08:22Z</time>
      </trkpt>
      <trkpt lat="43.52445" lon="6.1255">
        <ele>358</ele>
        <time>2024-12-11T14:08:24Z</time>
      </trkpt>
      <trkpt lat="43.52447" lon="6.12549">
        <ele>358</ele>
        <time>2024-12-11T14:08:26Z</time>
      </trkpt>
      <trkpt lat="43.52455" lon="6.12542">
        <ele>356</ele>
        <time>2024-12-11T14:08:34Z</time>
      </trkpt>
      <trkpt lat="43.52456" lon="6.1254">
        <ele>356</ele>
        <time>2024-12-11T14:08:36Z</time>
      </trkpt>
      <trkpt lat="43.52466" lon="6.12528">
        <ele>354</ele>
        <time>2024-12-11T14:08:48Z</time>
      </trkpt>
      <trkpt lat="43.52468" lon="6.12526">
        <ele>353</ele>
        <time>2024-12-11T14:08:50Z</time>
      </trkpt>
      <trkpt lat="43.5247" lon="6.12526">
        <ele>352</ele>
        <time>2024-12-11T14:08:52Z</time>
      </trkpt>
      <trkpt lat="43.52473" lon="6.12525">
        <ele>351</ele>
        <time>2024-12-11T14:08:56Z</time>
      </trkpt>
      <trkpt lat="43.52476" lon="6.12524">
        <ele>351</ele>
        <time>2024-12-11T14:08:58Z</time>
      </trkpt>
      <trkpt lat="43.52477" lon="6.12524">
        <ele>351</ele>
        <time>2024-12-11T14:09:00Z</time>
      </trkpt>
      <trkpt lat="43.52479" lon="6.12521">
        <ele>351</ele>
        <time>2024-12-11T14:09:02Z</time>
      </trkpt>
      <trkpt lat="43.52481" lon="6.12519">
        <ele>351</ele>
        <time>2024-12-11T14:09:04Z</time>
      </trkpt>
      <trkpt lat="43.52483" lon="6.12506">
        <ele>350</ele>
        <time>2024-12-11T14:09:14Z</time>
      </trkpt>
      <trkpt lat="43.52483" lon="6.12503">
        <ele>350</ele>
        <time>2024-12-11T14:09:16Z</time>
      </trkpt>
      <trkpt lat="43.52483" lon="6.125">
        <ele>350</ele>
        <time>2024-12-11T14:09:18Z</time>
      </trkpt>
      <trkpt lat="43.52482" lon="6.12497">
        <ele>350</ele>
        <time>2024-12-11T14:09:20Z</time>
      </trkpt>
      <trkpt lat="43.52482" lon="6.12494">
        <ele>351</ele>
        <time>2024-12-11T14:09:22Z</time>
      </trkpt>
      <trkpt lat="43.52482" lon="6.1249">
        <ele>351</ele>
        <time>2024-12-11T14:09:24Z</time>
      </trkpt>
      <trkpt lat="43.52482" lon="6.12485">
        <ele>353</ele>
        <time>2024-12-11T14:09:26Z</time>
      </trkpt>
      <trkpt lat="43.52482" lon="6.12481">
        <ele>353</ele>
        <time>2024-12-11T14:09:28Z</time>
      </trkpt>
      <trkpt lat="43.52481" lon="6.12479">
        <ele>353</ele>
        <time>2024-12-11T14:09:30Z</time>
      </trkpt>
      <trkpt lat="43.52481" lon="6.12477">
        <ele>354</ele>
        <time>2024-12-11T14:09:32Z</time>
      </trkpt>
      <trkpt lat="43.5248" lon="6.12473">
        <ele>354</ele>
        <time>2024-12-11T14:09:34Z</time>
      </trkpt>
      <trkpt lat="43.52481" lon="6.12469">
        <ele>354</ele>
        <time>2024-12-11T14:09:36Z</time>
      </trkpt>
      <trkpt lat="43.52481" lon="6.12463">
        <ele>355</ele>
        <time>2024-12-11T14:09:40Z</time>
      </trkpt>
      <trkpt lat="43.52482" lon="6.1246">
        <ele>355</ele>
        <time>2024-12-11T14:09:42Z</time>
      </trkpt>
      <trkpt lat="43.52484" lon="6.12456">
        <ele>356</ele>
        <time>2024-12-11T14:09:44Z</time>
      </trkpt>
      <trkpt lat="43.52486" lon="6.12455">
        <ele>356</ele>
        <time>2024-12-11T14:09:46Z</time>
      </trkpt>
      <trkpt lat="43.52493" lon="6.12454">
        <ele>356</ele>
        <time>2024-12-11T14:09:52Z</time>
      </trkpt>
      <trkpt lat="43.52499" lon="6.12455">
        <ele>356</ele>
        <time>2024-12-11T14:09:58Z</time>
      </trkpt>
      <trkpt lat="43.52505" lon="6.12453">
        <ele>356</ele>
        <time>2024-12-11T14:10:02Z</time>
      </trkpt>
      <trkpt lat="43.52509" lon="6.1245">
        <ele>356</ele>
        <time>2024-12-11T14:10:06Z</time>
      </trkpt>
      <trkpt lat="43.52512" lon="6.12446">
        <ele>356</ele>
        <time>2024-12-11T14:10:10Z</time>
      </trkpt>
      <trkpt lat="43.52513" lon="6.12442">
        <ele>356</ele>
        <time>2024-12-11T14:10:12Z</time>
      </trkpt>
      <trkpt lat="43.52516" lon="6.12438">
        <ele>356</ele>
        <time>2024-12-11T14:10:16Z</time>
      </trkpt>
      <trkpt lat="43.52517" lon="6.12433">
        <ele>356</ele>
        <time>2024-12-11T14:10:20Z</time>
      </trkpt>
      <trkpt lat="43.52521" lon="6.12422">
        <ele>356</ele>
        <time>2024-12-11T14:10:26Z</time>
      </trkpt>
      <trkpt lat="43.52522" lon="6.12419">
        <ele>356</ele>
        <time>2024-12-11T14:10:28Z</time>
      </trkpt>
      <trkpt lat="43.52526" lon="6.12414">
        <ele>356</ele>
        <time>2024-12-11T14:10:34Z</time>
      </trkpt>
      <trkpt lat="43.52528" lon="6.12412">
        <ele>357</ele>
        <time>2024-12-11T14:10:36Z</time>
      </trkpt>
      <trkpt lat="43.52535" lon="6.12404">
        <ele>358</ele>
        <time>2024-12-11T14:10:42Z</time>
      </trkpt>
      <trkpt lat="43.52536" lon="6.12403">
        <ele>358</ele>
        <time>2024-12-11T14:10:44Z</time>
      </trkpt>
      <trkpt lat="43.52544" lon="6.12395">
        <ele>357</ele>
        <time>2024-12-11T14:10:50Z</time>
      </trkpt>
      <trkpt lat="43.52545" lon="6.12391">
        <ele>358</ele>
        <time>2024-12-11T14:10:54Z</time>
      </trkpt>
      <trkpt lat="43.52547" lon="6.12387">
        <ele>358</ele>
        <time>2024-12-11T14:10:56Z</time>
      </trkpt>
      <trkpt lat="43.52548" lon="6.12383">
        <ele>359</ele>
        <time>2024-12-11T14:10:58Z</time>
      </trkpt>
      <trkpt lat="43.5255" lon="6.1238">
        <ele>359</ele>
        <time>2024-12-11T14:11:00Z</time>
      </trkpt>
      <trkpt lat="43.5255" lon="6.12378">
        <ele>360</ele>
        <time>2024-12-11T14:11:02Z</time>
      </trkpt>
      <trkpt lat="43.52553" lon="6.12367">
        <ele>360</ele>
        <time>2024-12-11T14:11:08Z</time>
      </trkpt>
      <trkpt lat="43.52553" lon="6.12364">
        <ele>360</ele>
        <time>2024-12-11T14:11:10Z</time>
      </trkpt>
      <trkpt lat="43.52555" lon="6.12355">
        <ele>361</ele>
        <time>2024-12-11T14:11:16Z</time>
      </trkpt>
      <trkpt lat="43.52557" lon="6.1235">
        <ele>361</ele>
        <time>2024-12-11T14:11:18Z</time>
      </trkpt>
      <trkpt lat="43.52557" lon="6.12347">
        <ele>361</ele>
        <time>2024-12-11T14:11:20Z</time>
      </trkpt>
      <trkpt lat="43.52559" lon="6.12341">
        <ele>361</ele>
        <time>2024-12-11T14:11:24Z</time>
      </trkpt>
      <trkpt lat="43.5256" lon="6.12338">
        <ele>362</ele>
        <time>2024-12-11T14:11:26Z</time>
      </trkpt>
      <trkpt lat="43.52561" lon="6.12335">
        <ele>362</ele>
        <time>2024-12-11T14:11:28Z</time>
      </trkpt>
      <trkpt lat="43.52561" lon="6.12331">
        <ele>362</ele>
        <time>2024-12-11T14:11:30Z</time>
      </trkpt>
      <trkpt lat="43.52562" lon="6.12329">
        <ele>362</ele>
        <time>2024-12-11T14:11:32Z</time>
      </trkpt>
      <trkpt lat="43.52562" lon="6.12325">
        <ele>362</ele>
        <time>2024-12-11T14:11:34Z</time>
      </trkpt>
      <trkpt lat="43.52561" lon="6.12322">
        <ele>363</ele>
        <time>2024-12-11T14:11:36Z</time>
      </trkpt>
      <trkpt lat="43.5256" lon="6.1232">
        <ele>363</ele>
        <time>2024-12-11T14:11:38Z</time>
      </trkpt>
      <trkpt lat="43.52558" lon="6.12302">
        <ele>362</ele>
        <time>2024-12-11T14:11:46Z</time>
      </trkpt>
      <trkpt lat="43.52558" lon="6.12298">
        <ele>361</ele>
        <time>2024-12-11T14:11:48Z</time>
      </trkpt>
      <trkpt lat="43.5256" lon="6.12296">
        <ele>360</ele>
        <time>2024-12-11T14:11:50Z</time>
      </trkpt>
      <trkpt lat="43.52564" lon="6.12292">
        <ele>360</ele>
        <time>2024-12-11T14:11:54Z</time>
      </trkpt>
      <trkpt lat="43.52566" lon="6.1229">
        <ele>361</ele>
        <time>2024-12-11T14:11:56Z</time>
      </trkpt>
      <trkpt lat="43.52568" lon="6.12289">
        <ele>361</ele>
        <time>2024-12-11T14:11:58Z</time>
      </trkpt>
      <trkpt lat="43.52575" lon="6.12284">
        <ele>362</ele>
        <time>2024-12-11T14:12:04Z</time>
      </trkpt>
      <trkpt lat="43.5259" lon="6.12282">
        <ele>361</ele>
        <time>2024-12-11T14:12:16Z</time>
      </trkpt>
      <trkpt lat="43.52594" lon="6.12282">
        <ele>362</ele>
        <time>2024-12-11T14:12:18Z</time>
      </trkpt>
      <trkpt lat="43.52603" lon="6.12283">
        <ele>364</ele>
        <time>2024-12-11T14:12:26Z</time>
      </trkpt>
      <trkpt lat="43.52615" lon="6.12282">
        <ele>370</ele>
        <time>2024-12-11T14:12:34Z</time>
      </trkpt>
      <trkpt lat="43.52618" lon="6.12279">
        <ele>370</ele>
        <time>2024-12-11T14:12:36Z</time>
      </trkpt>
      <trkpt lat="43.52639" lon="6.12259">
        <ele>366</ele>
        <time>2024-12-11T14:12:58Z</time>
      </trkpt>
      <trkpt lat="43.52648" lon="6.12254">
        <ele>366</ele>
        <time>2024-12-11T14:13:04Z</time>
      </trkpt>
      <trkpt lat="43.5265" lon="6.12252">
        <ele>366</ele>
        <time>2024-12-11T14:13:06Z</time>
      </trkpt>
      <trkpt lat="43.52652" lon="6.12251">
        <ele>366</ele>
        <time>2024-12-11T14:13:08Z</time>
      </trkpt>
      <trkpt lat="43.52653" lon="6.12251">
        <ele>367</ele>
        <time>2024-12-11T14:13:10Z</time>
      </trkpt>
      <trkpt lat="43.52655" lon="6.12249">
        <ele>367</ele>
        <time>2024-12-11T14:13:12Z</time>
      </trkpt>
      <trkpt lat="43.52661" lon="6.12246">
        <ele>368</ele>
        <time>2024-12-11T14:13:16Z</time>
      </trkpt>
      <trkpt lat="43.52665" lon="6.12242">
        <ele>369</ele>
        <time>2024-12-11T14:13:18Z</time>
      </trkpt>
      <trkpt lat="43.52669" lon="6.1224">
        <ele>369</ele>
        <time>2024-12-11T14:13:20Z</time>
      </trkpt>
      <trkpt lat="43.52672" lon="6.12239">
        <ele>369</ele>
        <time>2024-12-11T14:13:24Z</time>
      </trkpt>
      <trkpt lat="43.52681" lon="6.12233">
        <ele>372</ele>
        <time>2024-12-11T14:13:32Z</time>
      </trkpt>
      <trkpt lat="43.52683" lon="6.12232">
        <ele>372</ele>
        <time>2024-12-11T14:13:34Z</time>
      </trkpt>
      <trkpt lat="43.52685" lon="6.1223">
        <ele>372</ele>
        <time>2024-12-11T14:13:36Z</time>
      </trkpt>
      <trkpt lat="43.52693" lon="6.12228">
        <ele>371</ele>
        <time>2024-12-11T14:13:42Z</time>
      </trkpt>
      <trkpt lat="43.52695" lon="6.12227">
        <ele>370</ele>
        <time>2024-12-11T14:13:44Z</time>
      </trkpt>
      <trkpt lat="43.52699" lon="6.12224">
        <ele>370</ele>
        <time>2024-12-11T14:13:48Z</time>
      </trkpt>
      <trkpt lat="43.52703" lon="6.12224">
        <ele>369</ele>
        <time>2024-12-11T14:13:50Z</time>
      </trkpt>
      <trkpt lat="43.52706" lon="6.12223">
        <ele>369</ele>
        <time>2024-12-11T14:13:52Z</time>
      </trkpt>
      <trkpt lat="43.52708" lon="6.12222">
        <ele>369</ele>
        <time>2024-12-11T14:13:54Z</time>
      </trkpt>
      <trkpt lat="43.52716" lon="6.1222">
        <ele>370</ele>
        <time>2024-12-11T14:14:00Z</time>
      </trkpt>
      <trkpt lat="43.52721" lon="6.12218">
        <ele>370</ele>
        <time>2024-12-11T14:14:04Z</time>
      </trkpt>
      <trkpt lat="43.52722" lon="6.12216">
        <ele>371</ele>
        <time>2024-12-11T14:14:06Z</time>
      </trkpt>
      <trkpt lat="43.52726" lon="6.12213">
        <ele>373</ele>
        <time>2024-12-11T14:14:10Z</time>
      </trkpt>
      <trkpt lat="43.52731" lon="6.12212">
        <ele>374</ele>
        <time>2024-12-11T14:14:14Z</time>
      </trkpt>
      <trkpt lat="43.52737" lon="6.12211">
        <ele>375</ele>
        <time>2024-12-11T14:14:18Z</time>
      </trkpt>
      <trkpt lat="43.52754" lon="6.12207">
        <ele>373</ele>
        <time>2024-12-11T14:14:32Z</time>
      </trkpt>
      <trkpt lat="43.52758" lon="6.12206">
        <ele>373</ele>
        <time>2024-12-11T14:14:34Z</time>
      </trkpt>
      <trkpt lat="43.52761" lon="6.12205">
        <ele>373</ele>
        <time>2024-12-11T14:14:36Z</time>
      </trkpt>
      <trkpt lat="43.52764" lon="6.12204">
        <ele>374</ele>
        <time>2024-12-11T14:14:38Z</time>
      </trkpt>
      <trkpt lat="43.52781" lon="6.12206">
        <ele>375</ele>
        <time>2024-12-11T14:14:52Z</time>
      </trkpt>
      <trkpt lat="43.52783" lon="6.12205">
        <ele>374</ele>
        <time>2024-12-11T14:14:54Z</time>
      </trkpt>
      <trkpt lat="43.52794" lon="6.12205">
        <ele>376</ele>
        <time>2024-12-11T14:15:02Z</time>
      </trkpt>
      <trkpt lat="43.52796" lon="6.12204">
        <ele>376</ele>
        <time>2024-12-11T14:15:04Z</time>
      </trkpt>
      <trkpt lat="43.52807" lon="6.12206">
        <ele>377</ele>
        <time>2024-12-11T14:15:12Z</time>
      </trkpt>
      <trkpt lat="43.52809" lon="6.12207">
        <ele>377</ele>
        <time>2024-12-11T14:15:16Z</time>
      </trkpt>
      <trkpt lat="43.52821" lon="6.12212">
        <ele>375</ele>
        <time>2024-12-11T14:15:24Z</time>
      </trkpt>
      <trkpt lat="43.52823" lon="6.12214">
        <ele>375</ele>
        <time>2024-12-11T14:15:26Z</time>
      </trkpt>
      <trkpt lat="43.52828" lon="6.12213">
        <ele>373</ele>
        <time>2024-12-11T14:15:30Z</time>
      </trkpt>
      <trkpt lat="43.52832" lon="6.1221">
        <ele>373</ele>
        <time>2024-12-11T14:15:34Z</time>
      </trkpt>
      <trkpt lat="43.52846" lon="6.12199">
        <ele>373</ele>
        <time>2024-12-11T14:15:42Z</time>
      </trkpt>
      <trkpt lat="43.52848" lon="6.12196">
        <ele>373</ele>
        <time>2024-12-11T14:15:44Z</time>
      </trkpt>
      <trkpt lat="43.5285" lon="6.12194">
        <ele>373</ele>
        <time>2024-12-11T14:15:46Z</time>
      </trkpt>
      <trkpt lat="43.52853" lon="6.12187">
        <ele>373</ele>
        <time>2024-12-11T14:15:52Z</time>
      </trkpt>
      <trkpt lat="43.52863" lon="6.12175">
        <ele>375</ele>
        <time>2024-12-11T14:16:00Z</time>
      </trkpt>
      <trkpt lat="43.52864" lon="6.12171">
        <ele>376</ele>
        <time>2024-12-11T14:16:02Z</time>
      </trkpt>
      <trkpt lat="43.52866" lon="6.12167">
        <ele>377</ele>
        <time>2024-12-11T14:16:06Z</time>
      </trkpt>
      <trkpt lat="43.52866" lon="6.12164">
        <ele>377</ele>
        <time>2024-12-11T14:16:08Z</time>
      </trkpt>
      <trkpt lat="43.52867" lon="6.12163">
        <ele>377</ele>
        <time>2024-12-11T14:16:10Z</time>
      </trkpt>
      <trkpt lat="43.52873" lon="6.12151">
        <ele>376</ele>
        <time>2024-12-11T14:16:16Z</time>
      </trkpt>
      <trkpt lat="43.52883" lon="6.12133">
        <ele>375</ele>
        <time>2024-12-11T14:16:28Z</time>
      </trkpt>
      <trkpt lat="43.52885" lon="6.1213">
        <ele>375</ele>
        <time>2024-12-11T14:16:30Z</time>
      </trkpt>
      <trkpt lat="43.52892" lon="6.12118">
        <ele>373</ele>
        <time>2024-12-11T14:16:38Z</time>
      </trkpt>
      <trkpt lat="43.52895" lon="6.12114">
        <ele>373</ele>
        <time>2024-12-11T14:16:44Z</time>
      </trkpt>
      <trkpt lat="43.52909" lon="6.12102">
        <ele>374</ele>
        <time>2024-12-11T14:16:54Z</time>
      </trkpt>
      <trkpt lat="43.5291" lon="6.121">
        <ele>374</ele>
        <time>2024-12-11T14:16:56Z</time>
      </trkpt>
      <trkpt lat="43.52939" lon="6.12076">
        <ele>379</ele>
        <time>2024-12-11T14:17:22Z</time>
      </trkpt>
      <trkpt lat="43.52945" lon="6.12068">
        <ele>380</ele>
        <time>2024-12-11T14:17:28Z</time>
      </trkpt>
      <trkpt lat="43.52957" lon="6.12055">
        <ele>382</ele>
        <time>2024-12-11T14:17:40Z</time>
      </trkpt>
      <trkpt lat="43.52963" lon="6.1205">
        <ele>382</ele>
        <time>2024-12-11T14:17:46Z</time>
      </trkpt>
      <trkpt lat="43.52969" lon="6.12052">
        <ele>382</ele>
        <time>2024-12-11T14:17:54Z</time>
      </trkpt>
      <trkpt lat="43.52973" lon="6.12055">
        <ele>382</ele>
        <time>2024-12-11T14:19:20Z</time>
      </trkpt>
      <trkpt lat="43.5298" lon="6.12065">
        <ele>395</ele>
        <time>2024-12-11T14:19:24Z</time>
      </trkpt>
      <trkpt lat="43.52973" lon="6.12059">
        <ele>394</ele>
        <time>2024-12-11T14:19:28Z</time>
      </trkpt>
      <trkpt lat="43.52972" lon="6.12056">
        <ele>392</ele>
        <time>2024-12-11T14:19:32Z</time>
      </trkpt>
      <trkpt lat="43.5297" lon="6.12055">
        <ele>389</ele>
        <time>2024-12-11T14:20:58Z</time>
      </trkpt>
      <trkpt lat="43.52972" lon="6.12053">
        <ele>389</ele>
        <time>2024-12-11T14:21:04Z</time>
      </trkpt>
      <trkpt lat="43.52982" lon="6.12062">
        <ele>381</ele>
        <time>2024-12-11T14:21:34Z</time>
      </trkpt>
      <trkpt lat="43.52983" lon="6.12064">
        <ele>381</ele>
        <time>2024-12-11T14:21:36Z</time>
      </trkpt>
      <trkpt lat="43.52986" lon="6.12068">
        <ele>381</ele>
        <time>2024-12-11T14:21:40Z</time>
      </trkpt>
      <trkpt lat="43.52989" lon="6.1207">
        <ele>381</ele>
        <time>2024-12-11T14:21:42Z</time>
      </trkpt>
      <trkpt lat="43.52991" lon="6.12072">
        <ele>381</ele>
        <time>2024-12-11T14:21:44Z</time>
      </trkpt>
      <trkpt lat="43.52995" lon="6.12079">
        <ele>380</ele>
        <time>2024-12-11T14:21:48Z</time>
      </trkpt>
      <trkpt lat="43.52997" lon="6.12082">
        <ele>380</ele>
        <time>2024-12-11T14:21:50Z</time>
      </trkpt>
      <trkpt lat="43.53004" lon="6.12094">
        <ele>379</ele>
        <time>2024-12-11T14:22:00Z</time>
      </trkpt>
      <trkpt lat="43.53009" lon="6.12101">
        <ele>378</ele>
        <time>2024-12-11T14:22:06Z</time>
      </trkpt>
      <trkpt lat="43.53012" lon="6.12103">
        <ele>378</ele>
        <time>2024-12-11T14:22:08Z</time>
      </trkpt>
      <trkpt lat="43.53017" lon="6.12109">
        <ele>378</ele>
        <time>2024-12-11T14:22:12Z</time>
      </trkpt>
      <trkpt lat="43.53026" lon="6.12121">
        <ele>378</ele>
        <time>2024-12-11T14:22:20Z</time>
      </trkpt>
      <trkpt lat="43.53029" lon="6.12127">
        <ele>379</ele>
        <time>2024-12-11T14:22:24Z</time>
      </trkpt>
      <trkpt lat="43.53033" lon="6.12136">
        <ele>379</ele>
        <time>2024-12-11T14:22:32Z</time>
      </trkpt>
      <trkpt lat="43.53042" lon="6.1215">
        <ele>379</ele>
        <time>2024-12-11T14:22:42Z</time>
      </trkpt>
      <trkpt lat="43.53043" lon="6.12153">
        <ele>379</ele>
        <time>2024-12-11T14:22:44Z</time>
      </trkpt>
      <trkpt lat="43.53067" lon="6.1219">
        <ele>378</ele>
        <time>2024-12-11T14:23:08Z</time>
      </trkpt>
      <trkpt lat="43.53069" lon="6.12192">
        <ele>378</ele>
        <time>2024-12-11T14:23:10Z</time>
      </trkpt>
      <trkpt lat="43.53093" lon="6.12233">
        <ele>379</ele>
        <time>2024-12-11T14:23:36Z</time>
      </trkpt>
      <trkpt lat="43.53095" lon="6.12235">
        <ele>379</ele>
        <time>2024-12-11T14:23:38Z</time>
      </trkpt>
      <trkpt lat="43.53101" lon="6.12244">
        <ele>379</ele>
        <time>2024-12-11T14:23:44Z</time>
      </trkpt>
      <trkpt lat="43.53104" lon="6.1225">
        <ele>378</ele>
        <time>2024-12-11T14:23:48Z</time>
      </trkpt>
      <trkpt lat="43.53105" lon="6.12253">
        <ele>378</ele>
        <time>2024-12-11T14:23:50Z</time>
      </trkpt>
      <trkpt lat="43.53108" lon="6.12259">
        <ele>378</ele>
        <time>2024-12-11T14:23:54Z</time>
      </trkpt>
      <trkpt lat="43.53109" lon="6.12262">
        <ele>378</ele>
        <time>2024-12-11T14:23:56Z</time>
      </trkpt>
      <trkpt lat="43.53125" lon="6.12281">
        <ele>377</ele>
        <time>2024-12-11T14:24:10Z</time>
      </trkpt>
      <trkpt lat="43.5314" lon="6.12295">
        <ele>378</ele>
        <time>2024-12-11T14:24:22Z</time>
      </trkpt>
      <trkpt lat="43.53142" lon="6.12298">
        <ele>378</ele>
        <time>2024-12-11T14:24:24Z</time>
      </trkpt>
      <trkpt lat="43.53143" lon="6.12299">
        <ele>378</ele>
        <time>2024-12-11T14:24:26Z</time>
      </trkpt>
      <trkpt lat="43.53157" lon="6.12314">
        <ele>378</ele>
        <time>2024-12-11T14:24:38Z</time>
      </trkpt>
      <trkpt lat="43.53159" lon="6.12317">
        <ele>378</ele>
        <time>2024-12-11T14:24:40Z</time>
      </trkpt>
      <trkpt lat="43.53161" lon="6.12319">
        <ele>378</ele>
        <time>2024-12-11T14:24:42Z</time>
      </trkpt>
      <trkpt lat="43.53167" lon="6.12323">
        <ele>378</ele>
        <time>2024-12-11T14:24:46Z</time>
      </trkpt>
      <trkpt lat="43.53169" lon="6.12325">
        <ele>378</ele>
        <time>2024-12-11T14:24:48Z</time>
      </trkpt>
      <trkpt lat="43.53171" lon="6.12327">
        <ele>378</ele>
        <time>2024-12-11T14:24:50Z</time>
      </trkpt>
      <trkpt lat="43.53174" lon="6.12329">
        <ele>377</ele>
        <time>2024-12-11T14:24:52Z</time>
      </trkpt>
      <trkpt lat="43.53179" lon="6.12334">
        <ele>378</ele>
        <time>2024-12-11T14:24:56Z</time>
      </trkpt>
      <trkpt lat="43.53187" lon="6.12343">
        <ele>377</ele>
        <time>2024-12-11T14:25:02Z</time>
      </trkpt>
      <trkpt lat="43.53191" lon="6.12346">
        <ele>378</ele>
        <time>2024-12-11T14:25:04Z</time>
      </trkpt>
      <trkpt lat="43.53195" lon="6.1235">
        <ele>377</ele>
        <time>2024-12-11T14:25:08Z</time>
      </trkpt>
      <trkpt lat="43.53198" lon="6.12354">
        <ele>375</ele>
        <time>2024-12-11T14:25:12Z</time>
      </trkpt>
      <trkpt lat="43.53203" lon="6.12359">
        <ele>374</ele>
        <time>2024-12-11T14:25:16Z</time>
      </trkpt>
      <trkpt lat="43.53209" lon="6.12367">
        <ele>375</ele>
        <time>2024-12-11T14:25:22Z</time>
      </trkpt>
      <trkpt lat="43.53213" lon="6.12372">
        <ele>376</ele>
        <time>2024-12-11T14:25:26Z</time>
      </trkpt>
      <trkpt lat="43.53216" lon="6.12374">
        <ele>377</ele>
        <time>2024-12-11T14:25:28Z</time>
      </trkpt>
      <trkpt lat="43.53229" lon="6.12389">
        <ele>379</ele>
        <time>2024-12-11T14:25:40Z</time>
      </trkpt>
      <trkpt lat="43.53234" lon="6.12395">
        <ele>380</ele>
        <time>2024-12-11T14:25:44Z</time>
      </trkpt>
      <trkpt lat="43.53239" lon="6.124">
        <ele>380</ele>
        <time>2024-12-11T14:25:48Z</time>
      </trkpt>
      <trkpt lat="43.5325" lon="6.12415">
        <ele>381</ele>
        <time>2024-12-11T14:26:00Z</time>
      </trkpt>
      <trkpt lat="43.53253" lon="6.12417">
        <ele>381</ele>
        <time>2024-12-11T14:26:02Z</time>
      </trkpt>
      <trkpt lat="43.53255" lon="6.1242">
        <ele>381</ele>
        <time>2024-12-11T14:26:04Z</time>
      </trkpt>
      <trkpt lat="43.53257" lon="6.12422">
        <ele>381</ele>
        <time>2024-12-11T14:26:06Z</time>
      </trkpt>
      <trkpt lat="43.53265" lon="6.12426">
        <ele>377</ele>
        <time>2024-12-11T14:26:14Z</time>
      </trkpt>
      <trkpt lat="43.53263" lon="6.12427">
        <ele>378</ele>
        <time>2024-12-11T14:26:36Z</time>
      </trkpt>
      <trkpt lat="43.5326" lon="6.12426">
        <ele>379</ele>
        <time>2024-12-11T14:27:14Z</time>
      </trkpt>
      <trkpt lat="43.53264" lon="6.12421">
        <ele>379</ele>
        <time>2024-12-11T14:27:18Z</time>
      </trkpt>
      <trkpt lat="43.53265" lon="6.12418">
        <ele>379</ele>
        <time>2024-12-11T14:27:20Z</time>
      </trkpt>
      <trkpt lat="43.53264" lon="6.12415">
        <ele>378</ele>
        <time>2024-12-11T14:27:22Z</time>
      </trkpt>
      <trkpt lat="43.53264" lon="6.12406">
        <ele>377</ele>
        <time>2024-12-11T14:27:28Z</time>
      </trkpt>
      <trkpt lat="43.53268" lon="6.12402">
        <ele>377</ele>
        <time>2024-12-11T14:27:32Z</time>
      </trkpt>
      <trkpt lat="43.5327" lon="6.124">
        <ele>376</ele>
        <time>2024-12-11T14:27:34Z</time>
      </trkpt>
      <trkpt lat="43.53273" lon="6.12398">
        <ele>375</ele>
        <time>2024-12-11T14:27:36Z</time>
      </trkpt>
      <trkpt lat="43.53274" lon="6.12397">
        <ele>375</ele>
        <time>2024-12-11T14:27:38Z</time>
      </trkpt>
      <trkpt lat="43.53277" lon="6.12394">
        <ele>374</ele>
        <time>2024-12-11T14:27:42Z</time>
      </trkpt>
      <trkpt lat="43.5328" lon="6.12386">
        <ele>374</ele>
        <time>2024-12-11T14:27:48Z</time>
      </trkpt>
      <trkpt lat="43.53281" lon="6.1238">
        <ele>374</ele>
        <time>2024-12-11T14:27:54Z</time>
      </trkpt>
      <trkpt lat="43.53282" lon="6.12377">
        <ele>374</ele>
        <time>2024-12-11T14:27:56Z</time>
      </trkpt>
      <trkpt lat="43.53283" lon="6.12374">
        <ele>375</ele>
        <time>2024-12-11T14:28:00Z</time>
      </trkpt>
      <trkpt lat="43.53285" lon="6.12372">
        <ele>375</ele>
        <time>2024-12-11T14:28:02Z</time>
      </trkpt>
      <trkpt lat="43.53286" lon="6.12371">
        <ele>377</ele>
        <time>2024-12-11T14:28:04Z</time>
      </trkpt>
      <trkpt lat="43.53297" lon="6.1237">
        <ele>384</ele>
        <time>2024-12-11T14:28:12Z</time>
      </trkpt>
      <trkpt lat="43.53299" lon="6.12369">
        <ele>385</ele>
        <time>2024-12-11T14:28:14Z</time>
      </trkpt>
      <trkpt lat="43.53297" lon="6.12368">
        <ele>387</ele>
        <time>2024-12-11T14:28:22Z</time>
      </trkpt>
      <trkpt lat="43.53293" lon="6.12365">
        <ele>387</ele>
        <time>2024-12-11T14:28:26Z</time>
      </trkpt>
      <trkpt lat="43.53291" lon="6.12365">
        <ele>388</ele>
        <time>2024-12-11T14:28:30Z</time>
      </trkpt>
      <trkpt lat="43.53289" lon="6.12365">
        <ele>388</ele>
        <time>2024-12-11T14:28:32Z</time>
      </trkpt>
      <trkpt lat="43.53287" lon="6.12363">
        <ele>388</ele>
        <time>2024-12-11T14:28:36Z</time>
      </trkpt>
      <trkpt lat="43.53286" lon="6.12361">
        <ele>388</ele>
        <time>2024-12-11T14:28:38Z</time>
      </trkpt>
      <trkpt lat="43.53284" lon="6.12359">
        <ele>388</ele>
        <time>2024-12-11T14:28:40Z</time>
      </trkpt>
      <trkpt lat="43.53283" lon="6.12357">
        <ele>388</ele>
        <time>2024-12-11T14:28:42Z</time>
      </trkpt>
      <trkpt lat="43.53281" lon="6.12355">
        <ele>388</ele>
        <time>2024-12-11T14:28:44Z</time>
      </trkpt>
      <trkpt lat="43.53279" lon="6.12353">
        <ele>388</ele>
        <time>2024-12-11T14:28:46Z</time>
      </trkpt>
      <trkpt lat="43.53278" lon="6.12351">
        <ele>388</ele>
        <time>2024-12-11T14:28:48Z</time>
      </trkpt>
      <trkpt lat="43.53277" lon="6.12349">
        <ele>387</ele>
        <time>2024-12-11T14:28:50Z</time>
      </trkpt>
      <trkpt lat="43.53277" lon="6.12347">
        <ele>387</ele>
        <time>2024-12-11T14:28:52Z</time>
      </trkpt>
      <trkpt lat="43.53276" lon="6.12345">
        <ele>387</ele>
        <time>2024-12-11T14:28:54Z</time>
      </trkpt>
      <trkpt lat="43.53276" lon="6.12343">
        <ele>387</ele>
        <time>2024-12-11T14:28:56Z</time>
      </trkpt>
      <trkpt lat="43.53274" lon="6.12342">
        <ele>387</ele>
        <time>2024-12-11T14:29:00Z</time>
      </trkpt>
      <trkpt lat="43.53276" lon="6.1235">
        <ele>387</ele>
        <time>2024-12-11T14:29:06Z</time>
      </trkpt>
      <trkpt lat="43.53275" lon="6.12353">
        <ele>386</ele>
        <time>2024-12-11T14:29:08Z</time>
      </trkpt>
      <trkpt lat="43.53269" lon="6.12364">
        <ele>387</ele>
        <time>2024-12-11T14:29:16Z</time>
      </trkpt>
      <trkpt lat="43.53265" lon="6.12368">
        <ele>386</ele>
        <time>2024-12-11T14:29:20Z</time>
      </trkpt>
      <trkpt lat="43.53263" lon="6.12366">
        <ele>386</ele>
        <time>2024-12-11T14:29:24Z</time>
      </trkpt>
      <trkpt lat="43.53262" lon="6.12363">
        <ele>385</ele>
        <time>2024-12-11T14:29:26Z</time>
      </trkpt>
      <trkpt lat="43.53261" lon="6.12361">
        <ele>385</ele>
        <time>2024-12-11T14:29:28Z</time>
      </trkpt>
      <trkpt lat="43.53258" lon="6.12354">
        <ele>385</ele>
        <time>2024-12-11T14:29:34Z</time>
      </trkpt>
      <trkpt lat="43.53258" lon="6.12351">
        <ele>385</ele>
        <time>2024-12-11T14:29:36Z</time>
      </trkpt>
      <trkpt lat="43.53257" lon="6.12343">
        <ele>385</ele>
        <time>2024-12-11T14:29:42Z</time>
      </trkpt>
      <trkpt lat="43.53257" lon="6.12341">
        <ele>385</ele>
        <time>2024-12-11T14:29:44Z</time>
      </trkpt>
      <trkpt lat="43.53254" lon="6.12322">
        <ele>384</ele>
        <time>2024-12-11T14:29:54Z</time>
      </trkpt>
      <trkpt lat="43.53253" lon="6.12318">
        <ele>384</ele>
        <time>2024-12-11T14:29:56Z</time>
      </trkpt>
      <trkpt lat="43.53253" lon="6.12314">
        <ele>385</ele>
        <time>2024-12-11T14:29:58Z</time>
      </trkpt>
      <trkpt lat="43.53254" lon="6.12312">
        <ele>384</ele>
        <time>2024-12-11T14:30:00Z</time>
      </trkpt>
      <trkpt lat="43.53255" lon="6.12302">
        <ele>384</ele>
        <time>2024-12-11T14:30:06Z</time>
      </trkpt>
      <trkpt lat="43.53255" lon="6.12298">
        <ele>384</ele>
        <time>2024-12-11T14:30:08Z</time>
      </trkpt>
      <trkpt lat="43.53254" lon="6.12295">
        <ele>384</ele>
        <time>2024-12-11T14:30:10Z</time>
      </trkpt>
      <trkpt lat="43.53253" lon="6.12292">
        <ele>384</ele>
        <time>2024-12-11T14:30:12Z</time>
      </trkpt>
      <trkpt lat="43.53252" lon="6.1229">
        <ele>384</ele>
        <time>2024-12-11T14:30:14Z</time>
      </trkpt>
      <trkpt lat="43.53245" lon="6.12279">
        <ele>385</ele>
        <time>2024-12-11T14:30:22Z</time>
      </trkpt>
      <trkpt lat="43.53242" lon="6.12273">
        <ele>385</ele>
        <time>2024-12-11T14:30:26Z</time>
      </trkpt>
      <trkpt lat="43.5324" lon="6.12271">
        <ele>385</ele>
        <time>2024-12-11T14:30:28Z</time>
      </trkpt>
      <trkpt lat="43.53239" lon="6.12269">
        <ele>385</ele>
        <time>2024-12-11T14:30:30Z</time>
      </trkpt>
      <trkpt lat="43.53238" lon="6.12267">
        <ele>385</ele>
        <time>2024-12-11T14:30:32Z</time>
      </trkpt>
      <trkpt lat="43.53233" lon="6.12263">
        <ele>385</ele>
        <time>2024-12-11T14:30:36Z</time>
      </trkpt>
      <trkpt lat="43.53229" lon="6.12262">
        <ele>387</ele>
        <time>2024-12-11T14:30:40Z</time>
      </trkpt>
      <trkpt lat="43.53226" lon="6.12262">
        <ele>387</ele>
        <time>2024-12-11T14:30:42Z</time>
      </trkpt>
      <trkpt lat="43.53231" lon="6.12259">
        <ele>387</ele>
        <time>2024-12-11T14:30:52Z</time>
      </trkpt>
      <trkpt lat="43.53236" lon="6.12261">
        <ele>387</ele>
        <time>2024-12-11T14:30:56Z</time>
      </trkpt>
      <trkpt lat="43.53237" lon="6.1226">
        <ele>387</ele>
        <time>2024-12-11T14:31:00Z</time>
      </trkpt>
      <trkpt lat="43.53237" lon="6.12255">
        <ele>386</ele>
        <time>2024-12-11T14:31:02Z</time>
      </trkpt>
      <trkpt lat="43.53237" lon="6.12252">
        <ele>387</ele>
        <time>2024-12-11T14:31:04Z</time>
      </trkpt>
      <trkpt lat="43.53237" lon="6.12249">
        <ele>387</ele>
        <time>2024-12-11T14:31:06Z</time>
      </trkpt>
      <trkpt lat="43.53239" lon="6.12246">
        <ele>387</ele>
        <time>2024-12-11T14:31:08Z</time>
      </trkpt>
      <trkpt lat="43.5324" lon="6.12243">
        <ele>387</ele>
        <time>2024-12-11T14:31:10Z</time>
      </trkpt>
      <trkpt lat="43.53244" lon="6.12235">
        <ele>387</ele>
        <time>2024-12-11T14:31:18Z</time>
      </trkpt>
      <trkpt lat="43.53244" lon="6.12232">
        <ele>387</ele>
        <time>2024-12-11T14:31:20Z</time>
      </trkpt>
      <trkpt lat="43.53241" lon="6.12225">
        <ele>388</ele>
        <time>2024-12-11T14:31:24Z</time>
      </trkpt>
      <trkpt lat="43.5324" lon="6.12222">
        <ele>389</ele>
        <time>2024-12-11T14:31:26Z</time>
      </trkpt>
      <trkpt lat="43.53239" lon="6.1222">
        <ele>389</ele>
        <time>2024-12-11T14:31:28Z</time>
      </trkpt>
      <trkpt lat="43.53238" lon="6.12217">
        <ele>390</ele>
        <time>2024-12-11T14:31:30Z</time>
      </trkpt>
      <trkpt lat="43.53236" lon="6.12214">
        <ele>390</ele>
        <time>2024-12-11T14:31:32Z</time>
      </trkpt>
      <trkpt lat="43.53235" lon="6.12211">
        <ele>390</ele>
        <time>2024-12-11T14:31:34Z</time>
      </trkpt>
      <trkpt lat="43.53233" lon="6.12209">
        <ele>390</ele>
        <time>2024-12-11T14:31:36Z</time>
      </trkpt>
      <trkpt lat="43.53228" lon="6.12208">
        <ele>390</ele>
        <time>2024-12-11T14:31:40Z</time>
      </trkpt>
      <trkpt lat="43.53226" lon="6.12206">
        <ele>390</ele>
        <time>2024-12-11T14:31:42Z</time>
      </trkpt>
      <trkpt lat="43.53224" lon="6.12204">
        <ele>389</ele>
        <time>2024-12-11T14:31:44Z</time>
      </trkpt>
      <trkpt lat="43.53222" lon="6.12198">
        <ele>389</ele>
        <time>2024-12-11T14:31:48Z</time>
      </trkpt>
      <trkpt lat="43.53221" lon="6.12196">
        <ele>389</ele>
        <time>2024-12-11T14:31:50Z</time>
      </trkpt>
      <trkpt lat="43.5322" lon="6.12194">
        <ele>389</ele>
        <time>2024-12-11T14:31:52Z</time>
      </trkpt>
      <trkpt lat="43.53219" lon="6.12191">
        <ele>390</ele>
        <time>2024-12-11T14:31:54Z</time>
      </trkpt>
      <trkpt lat="43.53217" lon="6.12182">
        <ele>389</ele>
        <time>2024-12-11T14:32:00Z</time>
      </trkpt>
      <trkpt lat="43.53219" lon="6.1218">
        <ele>389</ele>
        <time>2024-12-11T14:32:04Z</time>
      </trkpt>
      <trkpt lat="43.5322" lon="6.12177">
        <ele>391</ele>
        <time>2024-12-11T14:32:48Z</time>
      </trkpt>
      <trkpt lat="43.53224" lon="6.12174">
        <ele>391</ele>
        <time>2024-12-11T14:32:54Z</time>
      </trkpt>
      <trkpt lat="43.53228" lon="6.12169">
        <ele>391</ele>
        <time>2024-12-11T14:32:58Z</time>
      </trkpt>
      <trkpt lat="43.5323" lon="6.12167">
        <ele>391</ele>
        <time>2024-12-11T14:33:00Z</time>
      </trkpt>
      <trkpt lat="43.53234" lon="6.12164">
        <ele>391</ele>
        <time>2024-12-11T14:33:04Z</time>
      </trkpt>
      <trkpt lat="43.53244" lon="6.12156">
        <ele>393</ele>
        <time>2024-12-11T14:33:16Z</time>
      </trkpt>
      <trkpt lat="43.53246" lon="6.12154">
        <ele>394</ele>
        <time>2024-12-11T14:33:18Z</time>
      </trkpt>
      <trkpt lat="43.53249" lon="6.1215">
        <ele>394</ele>
        <time>2024-12-11T14:33:22Z</time>
      </trkpt>
      <trkpt lat="43.53251" lon="6.12147">
        <ele>395</ele>
        <time>2024-12-11T14:33:26Z</time>
      </trkpt>
      <trkpt lat="43.53251" lon="6.12144">
        <ele>396</ele>
        <time>2024-12-11T14:33:28Z</time>
      </trkpt>
      <trkpt lat="43.53252" lon="6.12141">
        <ele>396</ele>
        <time>2024-12-11T14:33:32Z</time>
      </trkpt>
      <trkpt lat="43.53256" lon="6.12134">
        <ele>397</ele>
        <time>2024-12-11T14:33:40Z</time>
      </trkpt>
      <trkpt lat="43.53261" lon="6.12132">
        <ele>398</ele>
        <time>2024-12-11T14:33:46Z</time>
      </trkpt>
      <trkpt lat="43.53262" lon="6.12131">
        <ele>398</ele>
        <time>2024-12-11T14:33:48Z</time>
      </trkpt>
      <trkpt lat="43.53264" lon="6.1213">
        <ele>398</ele>
        <time>2024-12-11T14:33:52Z</time>
      </trkpt>
      <trkpt lat="43.53268" lon="6.12128">
        <ele>399</ele>
        <time>2024-12-11T14:34:06Z</time>
      </trkpt>
      <trkpt lat="43.53271" lon="6.12128">
        <ele>399</ele>
        <time>2024-12-11T14:34:08Z</time>
      </trkpt>
      <trkpt lat="43.53272" lon="6.12126">
        <ele>399</ele>
        <time>2024-12-11T14:34:10Z</time>
      </trkpt>
      <trkpt lat="43.53274" lon="6.12121">
        <ele>400</ele>
        <time>2024-12-11T14:34:14Z</time>
      </trkpt>
      <trkpt lat="43.5327" lon="6.12123">
        <ele>405</ele>
        <time>2024-12-11T14:34:24Z</time>
      </trkpt>
      <trkpt lat="43.53272" lon="6.12119">
        <ele>407</ele>
        <time>2024-12-11T14:34:38Z</time>
      </trkpt>
      <trkpt lat="43.53272" lon="6.12117">
        <ele>407</ele>
        <time>2024-12-11T14:34:46Z</time>
      </trkpt>
      <trkpt lat="43.5327" lon="6.12114">
        <ele>407</ele>
        <time>2024-12-11T14:34:56Z</time>
      </trkpt>
      <trkpt lat="43.53276" lon="6.12113">
        <ele>405</ele>
        <time>2024-12-11T14:35:06Z</time>
      </trkpt>
      <trkpt lat="43.5328" lon="6.12114">
        <ele>405</ele>
        <time>2024-12-11T14:35:16Z</time>
      </trkpt>
      <trkpt lat="43.53278" lon="6.12113">
        <ele>405</ele>
        <time>2024-12-11T14:35:46Z</time>
      </trkpt>
      <trkpt lat="43.53275" lon="6.12109">
        <ele>400</ele>
        <time>2024-12-11T14:36:16Z</time>
      </trkpt>
      <trkpt lat="43.53276" lon="6.12105">
        <ele>399</ele>
        <time>2024-12-11T14:36:20Z</time>
      </trkpt>
      <trkpt lat="43.53279" lon="6.12093">
        <ele>398</ele>
        <time>2024-12-11T14:36:28Z</time>
      </trkpt>
      <trkpt lat="43.53279" lon="6.12089">
        <ele>398</ele>
        <time>2024-12-11T14:36:30Z</time>
      </trkpt>
      <trkpt lat="43.53277" lon="6.12086">
        <ele>398</ele>
        <time>2024-12-11T14:36:32Z</time>
      </trkpt>
      <trkpt lat="43.53272" lon="6.12081">
        <ele>398</ele>
        <time>2024-12-11T14:36:38Z</time>
      </trkpt>
      <trkpt lat="43.53269" lon="6.12079">
        <ele>398</ele>
        <time>2024-12-11T14:36:40Z</time>
      </trkpt>
      <trkpt lat="43.53266" lon="6.12077">
        <ele>397</ele>
        <time>2024-12-11T14:36:42Z</time>
      </trkpt>
      <trkpt lat="43.53259" lon="6.12071">
        <ele>394</ele>
        <time>2024-12-11T14:36:52Z</time>
      </trkpt>
      <trkpt lat="43.53257" lon="6.12069">
        <ele>394</ele>
        <time>2024-12-11T14:36:54Z</time>
      </trkpt>
      <trkpt lat="43.53251" lon="6.12064">
        <ele>394</ele>
        <time>2024-12-11T14:36:58Z</time>
      </trkpt>
      <trkpt lat="43.53247" lon="6.1206">
        <ele>394</ele>
        <time>2024-12-11T14:37:02Z</time>
      </trkpt>
      <trkpt lat="43.53242" lon="6.12057">
        <ele>395</ele>
        <time>2024-12-11T14:37:06Z</time>
      </trkpt>
      <trkpt lat="43.53237" lon="6.12053">
        <ele>395</ele>
        <time>2024-12-11T14:37:10Z</time>
      </trkpt>
      <trkpt lat="43.53232" lon="6.12047">
        <ele>397</ele>
        <time>2024-12-11T14:37:14Z</time>
      </trkpt>
      <trkpt lat="43.53228" lon="6.12041">
        <ele>398</ele>
        <time>2024-12-11T14:37:18Z</time>
      </trkpt>
      <trkpt lat="43.53226" lon="6.12037">
        <ele>398</ele>
        <time>2024-12-11T14:37:20Z</time>
      </trkpt>
      <trkpt lat="43.53225" lon="6.12035">
        <ele>398</ele>
        <time>2024-12-11T14:37:22Z</time>
      </trkpt>
      <trkpt lat="43.53224" lon="6.12033">
        <ele>397</ele>
        <time>2024-12-11T14:37:24Z</time>
      </trkpt>
      <trkpt lat="43.53223" lon="6.12029">
        <ele>397</ele>
        <time>2024-12-11T14:37:26Z</time>
      </trkpt>
      <trkpt lat="43.53222" lon="6.12022">
        <ele>396</ele>
        <time>2024-12-11T14:37:30Z</time>
      </trkpt>
      <trkpt lat="43.53218" lon="6.12015">
        <ele>396</ele>
        <time>2024-12-11T14:37:34Z</time>
      </trkpt>
      <trkpt lat="43.53216" lon="6.12009">
        <ele>395</ele>
        <time>2024-12-11T14:37:38Z</time>
      </trkpt>
      <trkpt lat="43.5321" lon="6.11993">
        <ele>394</ele>
        <time>2024-12-11T14:37:48Z</time>
      </trkpt>
      <trkpt lat="43.5321" lon="6.1199">
        <ele>394</ele>
        <time>2024-12-11T14:37:50Z</time>
      </trkpt>
      <trkpt lat="43.53209" lon="6.11987">
        <ele>393</ele>
        <time>2024-12-11T14:37:52Z</time>
      </trkpt>
      <trkpt lat="43.53206" lon="6.11983">
        <ele>393</ele>
        <time>2024-12-11T14:37:54Z</time>
      </trkpt>
      <trkpt lat="43.53204" lon="6.1198">
        <ele>392</ele>
        <time>2024-12-11T14:37:56Z</time>
      </trkpt>
      <trkpt lat="43.53198" lon="6.11977">
        <ele>390</ele>
        <time>2024-12-11T14:38:02Z</time>
      </trkpt>
      <trkpt lat="43.53196" lon="6.11974">
        <ele>390</ele>
        <time>2024-12-11T14:38:06Z</time>
      </trkpt>
      <trkpt lat="43.53193" lon="6.1196">
        <ele>390</ele>
        <time>2024-12-11T14:38:16Z</time>
      </trkpt>
      <trkpt lat="43.53191" lon="6.11947">
        <ele>390</ele>
        <time>2024-12-11T14:38:22Z</time>
      </trkpt>
      <trkpt lat="43.53188" lon="6.1194">
        <ele>391</ele>
        <time>2024-12-11T14:38:26Z</time>
      </trkpt>
      <trkpt lat="43.5319" lon="6.11929">
        <ele>391</ele>
        <time>2024-12-11T14:38:32Z</time>
      </trkpt>
      <trkpt lat="43.53191" lon="6.11926">
        <ele>391</ele>
        <time>2024-12-11T14:38:34Z</time>
      </trkpt>
      <trkpt lat="43.53191" lon="6.11923">
        <ele>391</ele>
        <time>2024-12-11T14:38:36Z</time>
      </trkpt>
      <trkpt lat="43.5319" lon="6.1192">
        <ele>391</ele>
        <time>2024-12-11T14:38:38Z</time>
      </trkpt>
      <trkpt lat="43.5319" lon="6.11917">
        <ele>390</ele>
        <time>2024-12-11T14:38:40Z</time>
      </trkpt>
      <trkpt lat="43.53189" lon="6.11913">
        <ele>390</ele>
        <time>2024-12-11T14:38:42Z</time>
      </trkpt>
      <trkpt lat="43.53189" lon="6.1191">
        <ele>389</ele>
        <time>2024-12-11T14:38:44Z</time>
      </trkpt>
      <trkpt lat="43.53189" lon="6.11907">
        <ele>388</ele>
        <time>2024-12-11T14:38:46Z</time>
      </trkpt>
      <trkpt lat="43.53188" lon="6.11903">
        <ele>388</ele>
        <time>2024-12-11T14:38:48Z</time>
      </trkpt>
      <trkpt lat="43.53187" lon="6.11899">
        <ele>387</ele>
        <time>2024-12-11T14:38:50Z</time>
      </trkpt>
      <trkpt lat="43.53185" lon="6.11895">
        <ele>386</ele>
        <time>2024-12-11T14:38:52Z</time>
      </trkpt>
      <trkpt lat="43.53184" lon="6.11891">
        <ele>385</ele>
        <time>2024-12-11T14:38:54Z</time>
      </trkpt>
      <trkpt lat="43.53176" lon="6.1188">
        <ele>390</ele>
        <time>2024-12-11T14:38:58Z</time>
      </trkpt>
      <trkpt lat="43.53174" lon="6.11871">
        <ele>391</ele>
        <time>2024-12-11T14:39:02Z</time>
      </trkpt>
      <trkpt lat="43.53173" lon="6.11865">
        <ele>392</ele>
        <time>2024-12-11T14:39:06Z</time>
      </trkpt>
      <trkpt lat="43.53173" lon="6.11862">
        <ele>393</ele>
        <time>2024-12-11T14:39:08Z</time>
      </trkpt>
      <trkpt lat="43.53173" lon="6.11864">
        <ele>407</ele>
        <time>2024-12-11T14:39:56Z</time>
      </trkpt>
      <trkpt lat="43.53176" lon="6.11864">
        <ele>410</ele>
        <time>2024-12-11T14:40:00Z</time>
      </trkpt>
      <trkpt lat="43.53182" lon="6.11868">
        <ele>412</ele>
        <time>2024-12-11T14:40:20Z</time>
      </trkpt>
      <trkpt lat="43.53186" lon="6.1187">
        <ele>412</ele>
        <time>2024-12-11T14:40:28Z</time>
      </trkpt>
      <trkpt lat="43.53189" lon="6.11871">
        <ele>412</ele>
        <time>2024-12-11T14:40:30Z</time>
      </trkpt>
      <trkpt lat="43.53195" lon="6.11875">
        <ele>411</ele>
        <time>2024-12-11T14:40:36Z</time>
      </trkpt>
      <trkpt lat="43.53197" lon="6.11878">
        <ele>411</ele>
        <time>2024-12-11T14:40:40Z</time>
      </trkpt>
      <trkpt lat="43.532" lon="6.11879">
        <ele>411</ele>
        <time>2024-12-11T14:40:44Z</time>
      </trkpt>
      <trkpt lat="43.53202" lon="6.11881">
        <ele>412</ele>
        <time>2024-12-11T14:40:46Z</time>
      </trkpt>
      <trkpt lat="43.53204" lon="6.11885">
        <ele>412</ele>
        <time>2024-12-11T14:40:50Z</time>
      </trkpt>
      <trkpt lat="43.53214" lon="6.11899">
        <ele>412</ele>
        <time>2024-12-11T14:41:00Z</time>
      </trkpt>
      <trkpt lat="43.53218" lon="6.11903">
        <ele>411</ele>
        <time>2024-12-11T14:41:04Z</time>
      </trkpt>
      <trkpt lat="43.53219" lon="6.11905">
        <ele>411</ele>
        <time>2024-12-11T14:41:06Z</time>
      </trkpt>
      <trkpt lat="43.53222" lon="6.11914">
        <ele>409</ele>
        <time>2024-12-11T14:41:16Z</time>
      </trkpt>
      <trkpt lat="43.53226" lon="6.11916">
        <ele>409</ele>
        <time>2024-12-11T14:41:20Z</time>
      </trkpt>
      <trkpt lat="43.53228" lon="6.11918">
        <ele>409</ele>
        <time>2024-12-11T14:41:22Z</time>
      </trkpt>
      <trkpt lat="43.5323" lon="6.11921">
        <ele>409</ele>
        <time>2024-12-11T14:41:24Z</time>
      </trkpt>
      <trkpt lat="43.53236" lon="6.11924">
        <ele>410</ele>
        <time>2024-12-11T14:41:30Z</time>
      </trkpt>
      <trkpt lat="43.53242" lon="6.11923">
        <ele>413</ele>
        <time>2024-12-11T14:41:36Z</time>
      </trkpt>
      <trkpt lat="43.53245" lon="6.11922">
        <ele>414</ele>
        <time>2024-12-11T14:41:38Z</time>
      </trkpt>
      <trkpt lat="43.53246" lon="6.1192">
        <ele>415</ele>
        <time>2024-12-11T14:41:40Z</time>
      </trkpt>
      <trkpt lat="43.53256" lon="6.1192">
        <ele>419</ele>
        <time>2024-12-11T14:41:50Z</time>
      </trkpt>
      <trkpt lat="43.53258" lon="6.11919">
        <ele>420</ele>
        <time>2024-12-11T14:41:52Z</time>
      </trkpt>
      <trkpt lat="43.53262" lon="6.1192">
        <ele>420</ele>
        <time>2024-12-11T14:41:54Z</time>
      </trkpt>
      <trkpt lat="43.53268" lon="6.11921">
        <ele>420</ele>
        <time>2024-12-11T14:41:58Z</time>
      </trkpt>
      <trkpt lat="43.53271" lon="6.11918">
        <ele>421</ele>
        <time>2024-12-11T14:42:02Z</time>
      </trkpt>
      <trkpt lat="43.53275" lon="6.11919">
        <ele>421</ele>
        <time>2024-12-11T14:42:06Z</time>
      </trkpt>
      <trkpt lat="43.53288" lon="6.11919">
        <ele>422</ele>
        <time>2024-12-11T14:42:16Z</time>
      </trkpt>
      <trkpt lat="43.53306" lon="6.11922">
        <ele>425</ele>
        <time>2024-12-11T14:42:30Z</time>
      </trkpt>
      <trkpt lat="43.53309" lon="6.11921">
        <ele>426</ele>
        <time>2024-12-11T14:42:34Z</time>
      </trkpt>
      <trkpt lat="43.53316" lon="6.11919">
        <ele>429</ele>
        <time>2024-12-11T14:42:40Z</time>
      </trkpt>
      <trkpt lat="43.53318" lon="6.11918">
        <ele>430</ele>
        <time>2024-12-11T14:42:42Z</time>
      </trkpt>
      <trkpt lat="43.53317" lon="6.11915">
        <ele>430</ele>
        <time>2024-12-11T14:42:46Z</time>
      </trkpt>
      <trkpt lat="43.53314" lon="6.11916">
        <ele>432</ele>
        <time>2024-12-11T14:43:02Z</time>
      </trkpt>
      <trkpt lat="43.53311" lon="6.11916">
        <ele>433</ele>
        <time>2024-12-11T14:43:06Z</time>
      </trkpt>
      <trkpt lat="43.53308" lon="6.11917">
        <ele>433</ele>
        <time>2024-12-11T14:43:08Z</time>
      </trkpt>
      <trkpt lat="43.53306" lon="6.11916">
        <ele>433</ele>
        <time>2024-12-11T14:43:10Z</time>
      </trkpt>
      <trkpt lat="43.53305" lon="6.11914">
        <ele>434</ele>
        <time>2024-12-11T14:43:12Z</time>
      </trkpt>
      <trkpt lat="43.53299" lon="6.11913">
        <ele>433</ele>
        <time>2024-12-11T14:43:18Z</time>
      </trkpt>
      <trkpt lat="43.53297" lon="6.1191">
        <ele>432</ele>
        <time>2024-12-11T14:43:22Z</time>
      </trkpt>
      <trkpt lat="43.53295" lon="6.11908">
        <ele>432</ele>
        <time>2024-12-11T14:43:24Z</time>
      </trkpt>
      <trkpt lat="43.53292" lon="6.11908">
        <ele>433</ele>
        <time>2024-12-11T14:43:26Z</time>
      </trkpt>
      <trkpt lat="43.53289" lon="6.11905">
        <ele>433</ele>
        <time>2024-12-11T14:43:30Z</time>
      </trkpt>
      <trkpt lat="43.53287" lon="6.11905">
        <ele>433</ele>
        <time>2024-12-11T14:43:32Z</time>
      </trkpt>
      <trkpt lat="43.53285" lon="6.11904">
        <ele>433</ele>
        <time>2024-12-11T14:43:34Z</time>
      </trkpt>
      <trkpt lat="43.53283" lon="6.11902">
        <ele>433</ele>
        <time>2024-12-11T14:43:38Z</time>
      </trkpt>
      <trkpt lat="43.53284" lon="6.11899">
        <ele>433</ele>
        <time>2024-12-11T14:43:42Z</time>
      </trkpt>
      <trkpt lat="43.53284" lon="6.11896">
        <ele>433</ele>
        <time>2024-12-11T14:43:44Z</time>
      </trkpt>
      <trkpt lat="43.53283" lon="6.11895">
        <ele>433</ele>
        <time>2024-12-11T14:43:54Z</time>
      </trkpt>
      <trkpt lat="43.53281" lon="6.11899">
        <ele>433</ele>
        <time>2024-12-11T14:43:58Z</time>
      </trkpt>
      <trkpt lat="43.5328" lon="6.11903">
        <ele>433</ele>
        <time>2024-12-11T14:44:02Z</time>
      </trkpt>
      <trkpt lat="43.53285" lon="6.11891">
        <ele>432</ele>
        <time>2024-12-11T14:44:28Z</time>
      </trkpt>
      <trkpt lat="43.53287" lon="6.11889">
        <ele>432</ele>
        <time>2024-12-11T14:44:50Z</time>
      </trkpt>
      <trkpt lat="43.53286" lon="6.11889">
        <ele>434</ele>
        <time>2024-12-11T14:45:12Z</time>
      </trkpt>
      <trkpt lat="43.53283" lon="6.11889">
        <ele>434</ele>
        <time>2024-12-11T14:45:20Z</time>
      </trkpt>
      <trkpt lat="43.53286" lon="6.11893">
        <ele>433</ele>
        <time>2024-12-11T14:46:02Z</time>
      </trkpt>
      <trkpt lat="43.53286" lon="6.11898">
        <ele>431</ele>
        <time>2024-12-11T14:46:10Z</time>
      </trkpt>
      <trkpt lat="43.53284" lon="6.11896">
        <ele>431</ele>
        <time>2024-12-11T14:46:16Z</time>
      </trkpt>
      <trkpt lat="43.53283" lon="6.11892">
        <ele>431</ele>
        <time>2024-12-11T14:46:22Z</time>
      </trkpt>
      <trkpt lat="43.53286" lon="6.11896">
        <ele>432</ele>
        <time>2024-12-11T14:46:38Z</time>
      </trkpt>
      <trkpt lat="43.53287" lon="6.11899">
        <ele>432</ele>
        <time>2024-12-11T14:46:42Z</time>
      </trkpt>
      <trkpt lat="43.53283" lon="6.11895">
        <ele>431</ele>
        <time>2024-12-11T14:47:00Z</time>
      </trkpt>
      <trkpt lat="43.53289" lon="6.11887">
        <ele>430</ele>
        <time>2024-12-11T14:50:02Z</time>
      </trkpt>
      <trkpt lat="43.53298" lon="6.11901">
        <ele>431</ele>
        <time>2024-12-11T14:50:18Z</time>
      </trkpt>
      <trkpt lat="43.53297" lon="6.11903">
        <ele>431</ele>
        <time>2024-12-11T14:50:24Z</time>
      </trkpt>
      <trkpt lat="43.53297" lon="6.11905">
        <ele>433</ele>
        <time>2024-12-11T14:51:06Z</time>
      </trkpt>
      <trkpt lat="43.53302" lon="6.11908">
        <ele>434</ele>
        <time>2024-12-11T14:51:12Z</time>
      </trkpt>
      <trkpt lat="43.53304" lon="6.1191">
        <ele>434</ele>
        <time>2024-12-11T14:51:14Z</time>
      </trkpt>
      <trkpt lat="43.53316" lon="6.11912">
        <ele>431</ele>
        <time>2024-12-11T14:51:26Z</time>
      </trkpt>
      <trkpt lat="43.53318" lon="6.11915">
        <ele>431</ele>
        <time>2024-12-11T14:51:30Z</time>
      </trkpt>
      <trkpt lat="43.53325" lon="6.11919">
        <ele>429</ele>
        <time>2024-12-11T14:51:36Z</time>
      </trkpt>
      <trkpt lat="43.53328" lon="6.11921">
        <ele>428</ele>
        <time>2024-12-11T14:51:38Z</time>
      </trkpt>
      <trkpt lat="43.53336" lon="6.11926">
        <ele>427</ele>
        <time>2024-12-11T14:51:44Z</time>
      </trkpt>
      <trkpt lat="43.53339" lon="6.11928">
        <ele>427</ele>
        <time>2024-12-11T14:51:48Z</time>
      </trkpt>
      <trkpt lat="43.5334" lon="6.11924">
        <ele>427</ele>
        <time>2024-12-11T14:51:52Z</time>
      </trkpt>
      <trkpt lat="43.53338" lon="6.11922">
        <ele>427</ele>
        <time>2024-12-11T14:51:54Z</time>
      </trkpt>
      <trkpt lat="43.53337" lon="6.11919">
        <ele>427</ele>
        <time>2024-12-11T14:51:58Z</time>
      </trkpt>
      <trkpt lat="43.53334" lon="6.11919">
        <ele>427</ele>
        <time>2024-12-11T14:52:00Z</time>
      </trkpt>
      <trkpt lat="43.53331" lon="6.11915">
        <ele>427</ele>
        <time>2024-12-11T14:52:04Z</time>
      </trkpt>
      <trkpt lat="43.53329" lon="6.11915">
        <ele>427</ele>
        <time>2024-12-11T14:52:06Z</time>
      </trkpt>
      <trkpt lat="43.53328" lon="6.11914">
        <ele>427</ele>
        <time>2024-12-11T14:52:08Z</time>
      </trkpt>
      <trkpt lat="43.53325" lon="6.11913">
        <ele>428</ele>
        <time>2024-12-11T14:52:10Z</time>
      </trkpt>
      <trkpt lat="43.53324" lon="6.11912">
        <ele>428</ele>
        <time>2024-12-11T14:52:12Z</time>
      </trkpt>
      <trkpt lat="43.53321" lon="6.1191">
        <ele>428</ele>
        <time>2024-12-11T14:52:14Z</time>
      </trkpt>
      <trkpt lat="43.53318" lon="6.11908">
        <ele>429</ele>
        <time>2024-12-11T14:52:18Z</time>
      </trkpt>
      <trkpt lat="43.53316" lon="6.11907">
        <ele>430</ele>
        <time>2024-12-11T14:52:22Z</time>
      </trkpt>
      <trkpt lat="43.53315" lon="6.11903">
        <ele>431</ele>
        <time>2024-12-11T14:52:24Z</time>
      </trkpt>
      <trkpt lat="43.53307" lon="6.11897">
        <ele>434</ele>
        <time>2024-12-11T14:52:30Z</time>
      </trkpt>
      <trkpt lat="43.53305" lon="6.11894">
        <ele>436</ele>
        <time>2024-12-11T14:52:34Z</time>
      </trkpt>
      <trkpt lat="43.53309" lon="6.11887">
        <ele>438</ele>
        <time>2024-12-11T14:52:40Z</time>
      </trkpt>
      <trkpt lat="43.5331" lon="6.11885">
        <ele>439</ele>
        <time>2024-12-11T14:52:50Z</time>
      </trkpt>
      <trkpt lat="43.53313" lon="6.11893">
        <ele>445</ele>
        <time>2024-12-11T14:55:16Z</time>
      </trkpt>
      <trkpt lat="43.53307" lon="6.11893">
        <ele>441</ele>
        <time>2024-12-11T14:55:20Z</time>
      </trkpt>
      <trkpt lat="43.53308" lon="6.11896">
        <ele>441</ele>
        <time>2024-12-11T14:55:28Z</time>
      </trkpt>
      <trkpt lat="43.53309" lon="6.11897">
        <ele>440</ele>
        <time>2024-12-11T14:56:02Z</time>
      </trkpt>
      <trkpt lat="43.53307" lon="6.11899">
        <ele>439</ele>
        <time>2024-12-11T14:56:08Z</time>
      </trkpt>
      <trkpt lat="43.5331" lon="6.11902">
        <ele>438</ele>
        <time>2024-12-11T14:56:12Z</time>
      </trkpt>
      <trkpt lat="43.5331" lon="6.11902">
        <ele>437</ele>
        <time>2024-12-11T14:56:28Z</time>
      </trkpt>
      <trkpt lat="43.5331" lon="6.11904">
        <ele>438</ele>
        <time>2024-12-11T14:56:46Z</time>
      </trkpt>
      <trkpt lat="43.53313" lon="6.11904">
        <ele>439</ele>
        <time>2024-12-11T14:57:10Z</time>
      </trkpt>
      <trkpt lat="43.53313" lon="6.11906">
        <ele>439</ele>
        <time>2024-12-11T14:57:14Z</time>
      </trkpt>
      <trkpt lat="43.53309" lon="6.11905">
        <ele>440</ele>
        <time>2024-12-11T14:57:24Z</time>
      </trkpt>
      <trkpt lat="43.53308" lon="6.11903">
        <ele>440</ele>
        <time>2024-12-11T14:57:30Z</time>
      </trkpt>
      <trkpt lat="43.53311" lon="6.11901">
        <ele>440</ele>
        <time>2024-12-11T14:57:36Z</time>
      </trkpt>
      <trkpt lat="43.53313" lon="6.11901">
        <ele>440</ele>
        <time>2024-12-11T14:57:38Z</time>
      </trkpt>
      <trkpt lat="43.53316" lon="6.11902">
        <ele>440</ele>
        <time>2024-12-11T14:57:40Z</time>
      </trkpt>
      <trkpt lat="43.53319" lon="6.11903">
        <ele>437</ele>
        <time>2024-12-11T14:57:56Z</time>
      </trkpt>
      <trkpt lat="43.5332" lon="6.11905">
        <ele>437</ele>
        <time>2024-12-11T14:57:58Z</time>
      </trkpt>
      <trkpt lat="43.53322" lon="6.11907">
        <ele>436</ele>
        <time>2024-12-11T14:58:00Z</time>
      </trkpt>
      <trkpt lat="43.53333" lon="6.11916">
        <ele>436</ele>
        <time>2024-12-11T14:58:12Z</time>
      </trkpt>
      <trkpt lat="43.53336" lon="6.11918">
        <ele>436</ele>
        <time>2024-12-11T14:58:16Z</time>
      </trkpt>
      <trkpt lat="43.53338" lon="6.11919">
        <ele>436</ele>
        <time>2024-12-11T14:58:18Z</time>
      </trkpt>
      <trkpt lat="43.53343" lon="6.11923">
        <ele>436</ele>
        <time>2024-12-11T14:58:22Z</time>
      </trkpt>
      <trkpt lat="43.53345" lon="6.1193">
        <ele>435</ele>
        <time>2024-12-11T14:58:26Z</time>
      </trkpt>
      <trkpt lat="43.53371" lon="6.11966">
        <ele>434</ele>
        <time>2024-12-11T14:58:50Z</time>
      </trkpt>
      <trkpt lat="43.53377" lon="6.1197">
        <ele>435</ele>
        <time>2024-12-11T14:58:56Z</time>
      </trkpt>
      <trkpt lat="43.53378" lon="6.11974">
        <ele>435</ele>
        <time>2024-12-11T14:59:00Z</time>
      </trkpt>
      <trkpt lat="43.53385" lon="6.11986">
        <ele>434</ele>
        <time>2024-12-11T14:59:08Z</time>
      </trkpt>
      <trkpt lat="43.53393" lon="6.12002">
        <ele>429</ele>
        <time>2024-12-11T14:59:20Z</time>
      </trkpt>
      <trkpt lat="43.53397" lon="6.12006">
        <ele>428</ele>
        <time>2024-12-11T14:59:24Z</time>
      </trkpt>
      <trkpt lat="43.53413" lon="6.12011">
        <ele>425</ele>
        <time>2024-12-11T14:59:34Z</time>
      </trkpt>
      <trkpt lat="43.5342" lon="6.12022">
        <ele>424</ele>
        <time>2024-12-11T14:59:40Z</time>
      </trkpt>
      <trkpt lat="43.53428" lon="6.12029">
        <ele>425</ele>
        <time>2024-12-11T14:59:46Z</time>
      </trkpt>
      <trkpt lat="43.5343" lon="6.12031">
        <ele>426</ele>
        <time>2024-12-11T14:59:48Z</time>
      </trkpt>
      <trkpt lat="43.53432" lon="6.12033">
        <ele>427</ele>
        <time>2024-12-11T14:59:50Z</time>
      </trkpt>
      <trkpt lat="43.53435" lon="6.12037">
        <ele>427</ele>
        <time>2024-12-11T14:59:54Z</time>
      </trkpt>
      <trkpt lat="43.53438" lon="6.12041">
        <ele>427</ele>
        <time>2024-12-11T14:59:58Z</time>
      </trkpt>
      <trkpt lat="43.53441" lon="6.12043">
        <ele>427</ele>
        <time>2024-12-11T15:00:00Z</time>
      </trkpt>
      <trkpt lat="43.53444" lon="6.12045">
        <ele>427</ele>
        <time>2024-12-11T15:00:02Z</time>
      </trkpt>
      <trkpt lat="43.53446" lon="6.12051">
        <ele>426</ele>
        <time>2024-12-11T15:00:08Z</time>
      </trkpt>
      <trkpt lat="43.53444" lon="6.12055">
        <ele>426</ele>
        <time>2024-12-11T15:00:12Z</time>
      </trkpt>
      <trkpt lat="43.53437" lon="6.12085">
        <ele>423</ele>
        <time>2024-12-11T15:00:36Z</time>
      </trkpt>
      <trkpt lat="43.53436" lon="6.12089">
        <ele>423</ele>
        <time>2024-12-11T15:00:40Z</time>
      </trkpt>
      <trkpt lat="43.53433" lon="6.12093">
        <ele>421</ele>
        <time>2024-12-11T15:00:46Z</time>
      </trkpt>
      <trkpt lat="43.53427" lon="6.121">
        <ele>421</ele>
        <time>2024-12-11T15:00:52Z</time>
      </trkpt>
      <trkpt lat="43.53424" lon="6.12102">
        <ele>421</ele>
        <time>2024-12-11T15:00:56Z</time>
      </trkpt>
      <trkpt lat="43.53422" lon="6.12105">
        <ele>421</ele>
        <time>2024-12-11T15:01:00Z</time>
      </trkpt>
      <trkpt lat="43.5342" lon="6.12108">
        <ele>422</ele>
        <time>2024-12-11T15:01:04Z</time>
      </trkpt>
      <trkpt lat="43.53418" lon="6.1211">
        <ele>422</ele>
        <time>2024-12-11T15:01:08Z</time>
      </trkpt>
      <trkpt lat="43.53417" lon="6.12112">
        <ele>422</ele>
        <time>2024-12-11T15:01:10Z</time>
      </trkpt>
      <trkpt lat="43.53413" lon="6.12114">
        <ele>422</ele>
        <time>2024-12-11T15:01:14Z</time>
      </trkpt>
      <trkpt lat="43.53406" lon="6.12118">
        <ele>422</ele>
        <time>2024-12-11T15:01:20Z</time>
      </trkpt>
      <trkpt lat="43.534" lon="6.12123">
        <ele>422</ele>
        <time>2024-12-11T15:01:28Z</time>
      </trkpt>
      <trkpt lat="43.53397" lon="6.12125">
        <ele>422</ele>
        <time>2024-12-11T15:01:30Z</time>
      </trkpt>
      <trkpt lat="43.53394" lon="6.12127">
        <ele>421</ele>
        <time>2024-12-11T15:01:34Z</time>
      </trkpt>
      <trkpt lat="43.5339" lon="6.12129">
        <ele>420</ele>
        <time>2024-12-11T15:01:38Z</time>
      </trkpt>
      <trkpt lat="43.53387" lon="6.12133">
        <ele>418</ele>
        <time>2024-12-11T15:01:42Z</time>
      </trkpt>
      <trkpt lat="43.53385" lon="6.12136">
        <ele>417</ele>
        <time>2024-12-11T15:01:44Z</time>
      </trkpt>
      <trkpt lat="43.53383" lon="6.12139">
        <ele>416</ele>
        <time>2024-12-11T15:01:46Z</time>
      </trkpt>
      <trkpt lat="43.53377" lon="6.12143">
        <ele>414</ele>
        <time>2024-12-11T15:01:52Z</time>
      </trkpt>
      <trkpt lat="43.53374" lon="6.1215">
        <ele>411</ele>
        <time>2024-12-11T15:02:06Z</time>
      </trkpt>
      <trkpt lat="43.53367" lon="6.12155">
        <ele>411</ele>
        <time>2024-12-11T15:02:12Z</time>
      </trkpt>
      <trkpt lat="43.53366" lon="6.12158">
        <ele>410</ele>
        <time>2024-12-11T15:02:14Z</time>
      </trkpt>
      <trkpt lat="43.53364" lon="6.12161">
        <ele>410</ele>
        <time>2024-12-11T15:02:18Z</time>
      </trkpt>
      <trkpt lat="43.53364" lon="6.12165">
        <ele>409</ele>
        <time>2024-12-11T15:02:20Z</time>
      </trkpt>
      <trkpt lat="43.53365" lon="6.12168">
        <ele>409</ele>
        <time>2024-12-11T15:02:22Z</time>
      </trkpt>
      <trkpt lat="43.53366" lon="6.12171">
        <ele>408</ele>
        <time>2024-12-11T15:02:24Z</time>
      </trkpt>
      <trkpt lat="43.53368" lon="6.12176">
        <ele>407</ele>
        <time>2024-12-11T15:02:28Z</time>
      </trkpt>
      <trkpt lat="43.5337" lon="6.12183">
        <ele>406</ele>
        <time>2024-12-11T15:02:32Z</time>
      </trkpt>
      <trkpt lat="43.53376" lon="6.12191">
        <ele>405</ele>
        <time>2024-12-11T15:02:38Z</time>
      </trkpt>
      <trkpt lat="43.53378" lon="6.12191">
        <ele>405</ele>
        <time>2024-12-11T15:02:40Z</time>
      </trkpt>
      <trkpt lat="43.5338" lon="6.12193">
        <ele>404</ele>
        <time>2024-12-11T15:02:42Z</time>
      </trkpt>
      <trkpt lat="43.53382" lon="6.12194">
        <ele>403</ele>
        <time>2024-12-11T15:02:46Z</time>
      </trkpt>
      <trkpt lat="43.53384" lon="6.12192">
        <ele>403</ele>
        <time>2024-12-11T15:02:52Z</time>
      </trkpt>
      <trkpt lat="43.53388" lon="6.12197">
        <ele>402</ele>
        <time>2024-12-11T15:02:56Z</time>
      </trkpt>
      <trkpt lat="43.53395" lon="6.12211">
        <ele>399</ele>
        <time>2024-12-11T15:03:06Z</time>
      </trkpt>
      <trkpt lat="43.53398" lon="6.12221">
        <ele>399</ele>
        <time>2024-12-11T15:03:12Z</time>
      </trkpt>
      <trkpt lat="43.53399" lon="6.12225">
        <ele>399</ele>
        <time>2024-12-11T15:03:14Z</time>
      </trkpt>
      <trkpt lat="43.534" lon="6.12228">
        <ele>399</ele>
        <time>2024-12-11T15:03:16Z</time>
      </trkpt>
      <trkpt lat="43.534" lon="6.12231">
        <ele>400</ele>
        <time>2024-12-11T15:03:20Z</time>
      </trkpt>
      <trkpt lat="43.534" lon="6.12235">
        <ele>400</ele>
        <time>2024-12-11T15:03:24Z</time>
      </trkpt>
      <trkpt lat="43.53401" lon="6.12238">
        <ele>400</ele>
        <time>2024-12-11T15:03:26Z</time>
      </trkpt>
      <trkpt lat="43.53402" lon="6.12245">
        <ele>400</ele>
        <time>2024-12-11T15:03:30Z</time>
      </trkpt>
      <trkpt lat="43.53402" lon="6.1225">
        <ele>399</ele>
        <time>2024-12-11T15:03:32Z</time>
      </trkpt>
      <trkpt lat="43.53402" lon="6.12257">
        <ele>398</ele>
        <time>2024-12-11T15:03:38Z</time>
      </trkpt>
      <trkpt lat="43.53403" lon="6.12261">
        <ele>397</ele>
        <time>2024-12-11T15:03:42Z</time>
      </trkpt>
      <trkpt lat="43.53405" lon="6.12276">
        <ele>395</ele>
        <time>2024-12-11T15:03:50Z</time>
      </trkpt>
      <trkpt lat="43.53405" lon="6.12279">
        <ele>395</ele>
        <time>2024-12-11T15:03:52Z</time>
      </trkpt>
      <trkpt lat="43.53406" lon="6.12283">
        <ele>395</ele>
        <time>2024-12-11T15:03:54Z</time>
      </trkpt>
      <trkpt lat="43.53406" lon="6.12287">
        <ele>394</ele>
        <time>2024-12-11T15:03:56Z</time>
      </trkpt>
      <trkpt lat="43.53407" lon="6.12294">
        <ele>394</ele>
        <time>2024-12-11T15:04:00Z</time>
      </trkpt>
      <trkpt lat="43.53407" lon="6.12307">
        <ele>395</ele>
        <time>2024-12-11T15:04:06Z</time>
      </trkpt>
      <trkpt lat="43.53407" lon="6.12311">
        <ele>394</ele>
        <time>2024-12-11T15:04:08Z</time>
      </trkpt>
      <trkpt lat="43.53408" lon="6.12314">
        <ele>394</ele>
        <time>2024-12-11T15:04:10Z</time>
      </trkpt>
      <trkpt lat="43.53409" lon="6.12321">
        <ele>395</ele>
        <time>2024-12-11T15:04:14Z</time>
      </trkpt>
      <trkpt lat="43.53411" lon="6.12331">
        <ele>394</ele>
        <time>2024-12-11T15:04:20Z</time>
      </trkpt>
      <trkpt lat="43.5341" lon="6.12338">
        <ele>393</ele>
        <time>2024-12-11T15:04:24Z</time>
      </trkpt>
      <trkpt lat="43.5341" lon="6.12346">
        <ele>392</ele>
        <time>2024-12-11T15:04:28Z</time>
      </trkpt>
      <trkpt lat="43.53408" lon="6.12351">
        <ele>391</ele>
        <time>2024-12-11T15:04:32Z</time>
      </trkpt>
      <trkpt lat="43.53406" lon="6.12355">
        <ele>391</ele>
        <time>2024-12-11T15:04:34Z</time>
      </trkpt>
      <trkpt lat="43.53407" lon="6.12375">
        <ele>392</ele>
        <time>2024-12-11T15:04:42Z</time>
      </trkpt>
      <trkpt lat="43.53408" lon="6.12379">
        <ele>392</ele>
        <time>2024-12-11T15:04:44Z</time>
      </trkpt>
      <trkpt lat="43.53412" lon="6.12408">
        <ele>395</ele>
        <time>2024-12-11T15:05:02Z</time>
      </trkpt>
      <trkpt lat="43.53412" lon="6.12416">
        <ele>396</ele>
        <time>2024-12-11T15:05:06Z</time>
      </trkpt>
      <trkpt lat="43.53413" lon="6.12419">
        <ele>396</ele>
        <time>2024-12-11T15:05:08Z</time>
      </trkpt>
      <trkpt lat="43.53413" lon="6.12426">
        <ele>396</ele>
        <time>2024-12-11T15:05:12Z</time>
      </trkpt>
      <trkpt lat="43.53415" lon="6.12431">
        <ele>395</ele>
        <time>2024-12-11T15:05:16Z</time>
      </trkpt>
      <trkpt lat="43.53417" lon="6.12436">
        <ele>395</ele>
        <time>2024-12-11T15:05:20Z</time>
      </trkpt>
      <trkpt lat="43.53419" lon="6.12444">
        <ele>393</ele>
        <time>2024-12-11T15:05:24Z</time>
      </trkpt>
      <trkpt lat="43.5342" lon="6.12457">
        <ele>387</ele>
        <time>2024-12-11T15:05:32Z</time>
      </trkpt>
      <trkpt lat="43.53421" lon="6.12464">
        <ele>386</ele>
        <time>2024-12-11T15:05:36Z</time>
      </trkpt>
      <trkpt lat="43.53421" lon="6.12469">
        <ele>385</ele>
        <time>2024-12-11T15:05:38Z</time>
      </trkpt>
      <trkpt lat="43.53423" lon="6.12474">
        <ele>383</ele>
        <time>2024-12-11T15:05:42Z</time>
      </trkpt>
      <trkpt lat="43.53425" lon="6.12493">
        <ele>380</ele>
        <time>2024-12-11T15:05:52Z</time>
      </trkpt>
      <trkpt lat="43.53426" lon="6.12495">
        <ele>379</ele>
        <time>2024-12-11T15:05:54Z</time>
      </trkpt>
      <trkpt lat="43.53428" lon="6.12502">
        <ele>379</ele>
        <time>2024-12-11T15:05:58Z</time>
      </trkpt>
      <trkpt lat="43.53429" lon="6.12517">
        <ele>379</ele>
        <time>2024-12-11T15:06:06Z</time>
      </trkpt>
      <trkpt lat="43.5343" lon="6.1252">
        <ele>379</ele>
        <time>2024-12-11T15:06:08Z</time>
      </trkpt>
      <trkpt lat="43.53429" lon="6.12525">
        <ele>379</ele>
        <time>2024-12-11T15:06:12Z</time>
      </trkpt>
      <trkpt lat="43.53429" lon="6.12528">
        <ele>379</ele>
        <time>2024-12-11T15:06:14Z</time>
      </trkpt>
      <trkpt lat="43.53431" lon="6.12538">
        <ele>379</ele>
        <time>2024-12-11T15:06:22Z</time>
      </trkpt>
      <trkpt lat="43.53435" lon="6.12547">
        <ele>381</ele>
        <time>2024-12-11T15:06:28Z</time>
      </trkpt>
      <trkpt lat="43.53436" lon="6.12551">
        <ele>381</ele>
        <time>2024-12-11T15:06:30Z</time>
      </trkpt>
      <trkpt lat="43.53436" lon="6.12555">
        <ele>381</ele>
        <time>2024-12-11T15:06:32Z</time>
      </trkpt>
      <trkpt lat="43.53437" lon="6.12566">
        <ele>381</ele>
        <time>2024-12-11T15:06:40Z</time>
      </trkpt>
      <trkpt lat="43.53438" lon="6.12569">
        <ele>382</ele>
        <time>2024-12-11T15:06:42Z</time>
      </trkpt>
      <trkpt lat="43.53442" lon="6.12576">
        <ele>384</ele>
        <time>2024-12-11T15:06:46Z</time>
      </trkpt>
      <trkpt lat="43.53443" lon="6.12585">
        <ele>385</ele>
        <time>2024-12-11T15:06:52Z</time>
      </trkpt>
      <trkpt lat="43.53441" lon="6.12583">
        <ele>385</ele>
        <time>2024-12-11T15:07:00Z</time>
      </trkpt>
      <trkpt lat="43.53439" lon="6.12582">
        <ele>386</ele>
        <time>2024-12-11T15:07:54Z</time>
      </trkpt>
      <trkpt lat="43.53445" lon="6.12585">
        <ele>387</ele>
        <time>2024-12-11T15:08:08Z</time>
      </trkpt>
      <trkpt lat="43.53442" lon="6.12588">
        <ele>387</ele>
        <time>2024-12-11T15:08:34Z</time>
      </trkpt>
      <trkpt lat="43.53443" lon="6.12586">
        <ele>387</ele>
        <time>2024-12-11T15:10:00Z</time>
      </trkpt>
      <trkpt lat="43.53448" lon="6.12583">
        <ele>388</ele>
        <time>2024-12-11T15:10:24Z</time>
      </trkpt>
      <trkpt lat="43.5344" lon="6.1258">
        <ele>385</ele>
        <time>2024-12-11T15:11:08Z</time>
      </trkpt>
      <trkpt lat="43.53442" lon="6.12581">
        <ele>383</ele>
        <time>2024-12-11T15:11:16Z</time>
      </trkpt>
      <trkpt lat="43.53456" lon="6.12596">
        <ele>385</ele>
        <time>2024-12-11T15:11:26Z</time>
      </trkpt>
      <trkpt lat="43.53459" lon="6.12607">
        <ele>385</ele>
        <time>2024-12-11T15:11:34Z</time>
      </trkpt>
      <trkpt lat="43.53459" lon="6.12614">
        <ele>384</ele>
        <time>2024-12-11T15:11:38Z</time>
      </trkpt>
      <trkpt lat="43.5346" lon="6.12621">
        <ele>382</ele>
        <time>2024-12-11T15:11:42Z</time>
      </trkpt>
      <trkpt lat="43.53463" lon="6.12631">
        <ele>382</ele>
        <time>2024-12-11T15:11:48Z</time>
      </trkpt>
      <trkpt lat="43.53466" lon="6.12647">
        <ele>381</ele>
        <time>2024-12-11T15:11:56Z</time>
      </trkpt>
      <trkpt lat="43.53468" lon="6.12657">
        <ele>380</ele>
        <time>2024-12-11T15:12:04Z</time>
      </trkpt>
      <trkpt lat="43.5347" lon="6.12661">
        <ele>379</ele>
        <time>2024-12-11T15:12:06Z</time>
      </trkpt>
      <trkpt lat="43.53474" lon="6.1267">
        <ele>379</ele>
        <time>2024-12-11T15:12:12Z</time>
      </trkpt>
      <trkpt lat="43.53473" lon="6.12675">
        <ele>379</ele>
        <time>2024-12-11T15:12:16Z</time>
      </trkpt>
      <trkpt lat="43.53471" lon="6.12677">
        <ele>379</ele>
        <time>2024-12-11T15:12:18Z</time>
      </trkpt>
      <trkpt lat="43.53471" lon="6.1268">
        <ele>379</ele>
        <time>2024-12-11T15:12:22Z</time>
      </trkpt>
      <trkpt lat="43.53469" lon="6.12682">
        <ele>379</ele>
        <time>2024-12-11T15:12:28Z</time>
      </trkpt>
      <trkpt lat="43.53477" lon="6.12687">
        <ele>380</ele>
        <time>2024-12-11T15:12:36Z</time>
      </trkpt>
      <trkpt lat="43.53479" lon="6.1269">
        <ele>380</ele>
        <time>2024-12-11T15:12:38Z</time>
      </trkpt>
      <trkpt lat="43.53478" lon="6.12693">
        <ele>380</ele>
        <time>2024-12-11T15:12:40Z</time>
      </trkpt>
      <trkpt lat="43.53477" lon="6.12696">
        <ele>380</ele>
        <time>2024-12-11T15:12:42Z</time>
      </trkpt>
      <trkpt lat="43.53477" lon="6.127">
        <ele>379</ele>
        <time>2024-12-11T15:12:48Z</time>
      </trkpt>
      <trkpt lat="43.53479" lon="6.12704">
        <ele>378</ele>
        <time>2024-12-11T15:12:50Z</time>
      </trkpt>
      <trkpt lat="43.53484" lon="6.12728">
        <ele>376</ele>
        <time>2024-12-11T15:13:06Z</time>
      </trkpt>
      <trkpt lat="43.53485" lon="6.12733">
        <ele>375</ele>
        <time>2024-12-11T15:13:08Z</time>
      </trkpt>
      <trkpt lat="43.53486" lon="6.1274">
        <ele>375</ele>
        <time>2024-12-11T15:13:12Z</time>
      </trkpt>
      <trkpt lat="43.53485" lon="6.12748">
        <ele>374</ele>
        <time>2024-12-11T15:13:16Z</time>
      </trkpt>
      <trkpt lat="43.53486" lon="6.12752">
        <ele>374</ele>
        <time>2024-12-11T15:13:18Z</time>
      </trkpt>
      <trkpt lat="43.53486" lon="6.12761">
        <ele>373</ele>
        <time>2024-12-11T15:13:24Z</time>
      </trkpt>
      <trkpt lat="43.53487" lon="6.12767">
        <ele>374</ele>
        <time>2024-12-11T15:13:28Z</time>
      </trkpt>
      <trkpt lat="43.53488" lon="6.12769">
        <ele>374</ele>
        <time>2024-12-11T15:13:30Z</time>
      </trkpt>
      <trkpt lat="43.5349" lon="6.12785">
        <ele>376</ele>
        <time>2024-12-11T15:13:40Z</time>
      </trkpt>
      <trkpt lat="43.5349" lon="6.1279">
        <ele>376</ele>
        <time>2024-12-11T15:13:42Z</time>
      </trkpt>
      <trkpt lat="43.5349" lon="6.12801">
        <ele>376</ele>
        <time>2024-12-11T15:13:48Z</time>
      </trkpt>
      <trkpt lat="43.53491" lon="6.12809">
        <ele>376</ele>
        <time>2024-12-11T15:13:52Z</time>
      </trkpt>
      <trkpt lat="43.53493" lon="6.12822">
        <ele>375</ele>
        <time>2024-12-11T15:13:58Z</time>
      </trkpt>
      <trkpt lat="43.53494" lon="6.12836">
        <ele>375</ele>
        <time>2024-12-11T15:14:06Z</time>
      </trkpt>
      <trkpt lat="43.53494" lon="6.1284">
        <ele>374</ele>
        <time>2024-12-11T15:14:08Z</time>
      </trkpt>
      <trkpt lat="43.53494" lon="6.12846">
        <ele>374</ele>
        <time>2024-12-11T15:14:14Z</time>
      </trkpt>
      <trkpt lat="43.53495" lon="6.12851">
        <ele>375</ele>
        <time>2024-12-11T15:14:18Z</time>
      </trkpt>
      <trkpt lat="43.53496" lon="6.1288">
        <ele>374</ele>
        <time>2024-12-11T15:14:32Z</time>
      </trkpt>
      <trkpt lat="43.53496" lon="6.12884">
        <ele>374</ele>
        <time>2024-12-11T15:14:34Z</time>
      </trkpt>
      <trkpt lat="43.53498" lon="6.12889">
        <ele>374</ele>
        <time>2024-12-11T15:14:38Z</time>
      </trkpt>
      <trkpt lat="43.535" lon="6.12906">
        <ele>373</ele>
        <time>2024-12-11T15:14:48Z</time>
      </trkpt>
      <trkpt lat="43.535" lon="6.1291">
        <ele>373</ele>
        <time>2024-12-11T15:14:50Z</time>
      </trkpt>
      <trkpt lat="43.53499" lon="6.12914">
        <ele>374</ele>
        <time>2024-12-11T15:14:52Z</time>
      </trkpt>
      <trkpt lat="43.53501" lon="6.12936">
        <ele>376</ele>
        <time>2024-12-11T15:15:04Z</time>
      </trkpt>
      <trkpt lat="43.53499" lon="6.12961">
        <ele>377</ele>
        <time>2024-12-11T15:15:20Z</time>
      </trkpt>
      <trkpt lat="43.53498" lon="6.12968">
        <ele>376</ele>
        <time>2024-12-11T15:15:24Z</time>
      </trkpt>
      <trkpt lat="43.53495" lon="6.12999">
        <ele>375</ele>
        <time>2024-12-11T15:15:40Z</time>
      </trkpt>
      <trkpt lat="43.53491" lon="6.13022">
        <ele>376</ele>
        <time>2024-12-11T15:15:52Z</time>
      </trkpt>
      <trkpt lat="43.53491" lon="6.13039">
        <ele>376</ele>
        <time>2024-12-11T15:16:00Z</time>
      </trkpt>
      <trkpt lat="43.5349" lon="6.13043">
        <ele>376</ele>
        <time>2024-12-11T15:16:02Z</time>
      </trkpt>
      <trkpt lat="43.5349" lon="6.13047">
        <ele>375</ele>
        <time>2024-12-11T15:16:04Z</time>
      </trkpt>
      <trkpt lat="43.53489" lon="6.1305">
        <ele>375</ele>
        <time>2024-12-11T15:16:06Z</time>
      </trkpt>
      <trkpt lat="43.53491" lon="6.13059">
        <ele>375</ele>
        <time>2024-12-11T15:16:12Z</time>
      </trkpt>
      <trkpt lat="43.5349" lon="6.13068">
        <ele>374</ele>
        <time>2024-12-11T15:16:16Z</time>
      </trkpt>
      <trkpt lat="43.5349" lon="6.13071">
        <ele>373</ele>
        <time>2024-12-11T15:16:18Z</time>
      </trkpt>
      <trkpt lat="43.5349" lon="6.13081">
        <ele>372</ele>
        <time>2024-12-11T15:16:24Z</time>
      </trkpt>
      <trkpt lat="43.53493" lon="6.13099">
        <ele>373</ele>
        <time>2024-12-11T15:16:34Z</time>
      </trkpt>
      <trkpt lat="43.53493" lon="6.13106">
        <ele>373</ele>
        <time>2024-12-11T15:16:38Z</time>
      </trkpt>
      <trkpt lat="43.53496" lon="6.13138">
        <ele>376</ele>
        <time>2024-12-11T15:16:54Z</time>
      </trkpt>
      <trkpt lat="43.53495" lon="6.13142">
        <ele>376</ele>
        <time>2024-12-11T15:16:56Z</time>
      </trkpt>
      <trkpt lat="43.53491" lon="6.13156">
        <ele>377</ele>
        <time>2024-12-11T15:17:02Z</time>
      </trkpt>
      <trkpt lat="43.53489" lon="6.13168">
        <ele>377</ele>
        <time>2024-12-11T15:17:08Z</time>
      </trkpt>
      <trkpt lat="43.53488" lon="6.13172">
        <ele>377</ele>
        <time>2024-12-11T15:17:10Z</time>
      </trkpt>
      <trkpt lat="43.53488" lon="6.13197">
        <ele>376</ele>
        <time>2024-12-11T15:17:26Z</time>
      </trkpt>
      <trkpt lat="43.53486" lon="6.13204">
        <ele>376</ele>
        <time>2024-12-11T15:17:30Z</time>
      </trkpt>
      <trkpt lat="43.53485" lon="6.13207">
        <ele>375</ele>
        <time>2024-12-11T15:17:32Z</time>
      </trkpt>
      <trkpt lat="43.53484" lon="6.13213">
        <ele>375</ele>
        <time>2024-12-11T15:17:36Z</time>
      </trkpt>
      <trkpt lat="43.53483" lon="6.13217">
        <ele>376</ele>
        <time>2024-12-11T15:17:38Z</time>
      </trkpt>
      <trkpt lat="43.53483" lon="6.13225">
        <ele>376</ele>
        <time>2024-12-11T15:17:42Z</time>
      </trkpt>
      <trkpt lat="43.53482" lon="6.1323">
        <ele>375</ele>
        <time>2024-12-11T15:17:44Z</time>
      </trkpt>
      <trkpt lat="43.53479" lon="6.13242">
        <ele>375</ele>
        <time>2024-12-11T15:17:50Z</time>
      </trkpt>
      <trkpt lat="43.53478" lon="6.13246">
        <ele>375</ele>
        <time>2024-12-11T15:17:52Z</time>
      </trkpt>
      <trkpt lat="43.53478" lon="6.13264">
        <ele>376</ele>
        <time>2024-12-11T15:18:00Z</time>
      </trkpt>
      <trkpt lat="43.53476" lon="6.13282">
        <ele>379</ele>
        <time>2024-12-11T15:18:10Z</time>
      </trkpt>
      <trkpt lat="43.53475" lon="6.13285">
        <ele>379</ele>
        <time>2024-12-11T15:18:12Z</time>
      </trkpt>
      <trkpt lat="43.53474" lon="6.1329">
        <ele>380</ele>
        <time>2024-12-11T15:18:16Z</time>
      </trkpt>
      <trkpt lat="43.53475" lon="6.13294">
        <ele>381</ele>
        <time>2024-12-11T15:18:18Z</time>
      </trkpt>
      <trkpt lat="43.53476" lon="6.13304">
        <ele>382</ele>
        <time>2024-12-11T15:18:22Z</time>
      </trkpt>
      <trkpt lat="43.53477" lon="6.13342">
        <ele>380</ele>
        <time>2024-12-11T15:18:40Z</time>
      </trkpt>
      <trkpt lat="43.53477" lon="6.13346">
        <ele>380</ele>
        <time>2024-12-11T15:18:42Z</time>
      </trkpt>
      <trkpt lat="43.53475" lon="6.13376">
        <ele>379</ele>
        <time>2024-12-11T15:18:58Z</time>
      </trkpt>
      <trkpt lat="43.53476" lon="6.13386">
        <ele>380</ele>
        <time>2024-12-11T15:19:04Z</time>
      </trkpt>
      <trkpt lat="43.53475" lon="6.13397">
        <ele>382</ele>
        <time>2024-12-11T15:19:10Z</time>
      </trkpt>
      <trkpt lat="43.53475" lon="6.13415">
        <ele>383</ele>
        <time>2024-12-11T15:19:18Z</time>
      </trkpt>
      <trkpt lat="43.53474" lon="6.13423">
        <ele>382</ele>
        <time>2024-12-11T15:19:22Z</time>
      </trkpt>
      <trkpt lat="43.53473" lon="6.13428">
        <ele>381</ele>
        <time>2024-12-11T15:19:24Z</time>
      </trkpt>
      <trkpt lat="43.53471" lon="6.13435">
        <ele>379</ele>
        <time>2024-12-11T15:19:28Z</time>
      </trkpt>
      <trkpt lat="43.53471" lon="6.13438">
        <ele>379</ele>
        <time>2024-12-11T15:19:30Z</time>
      </trkpt>
      <trkpt lat="43.53471" lon="6.13442">
        <ele>378</ele>
        <time>2024-12-11T15:19:32Z</time>
      </trkpt>
      <trkpt lat="43.53472" lon="6.13445">
        <ele>378</ele>
        <time>2024-12-11T15:19:34Z</time>
      </trkpt>
      <trkpt lat="43.53472" lon="6.13448">
        <ele>378</ele>
        <time>2024-12-11T15:19:36Z</time>
      </trkpt>
      <trkpt lat="43.53472" lon="6.13458">
        <ele>379</ele>
        <time>2024-12-11T15:19:42Z</time>
      </trkpt>
      <trkpt lat="43.53471" lon="6.13462">
        <ele>379</ele>
        <time>2024-12-11T15:19:44Z</time>
      </trkpt>
      <trkpt lat="43.53469" lon="6.13465">
        <ele>380</ele>
        <time>2024-12-11T15:19:48Z</time>
      </trkpt>
      <trkpt lat="43.53469" lon="6.13467">
        <ele>381</ele>
        <time>2024-12-11T15:19:52Z</time>
      </trkpt>
      <trkpt lat="43.5347" lon="6.1347">
        <ele>381</ele>
        <time>2024-12-11T15:19:54Z</time>
      </trkpt>
      <trkpt lat="43.53477" lon="6.13526">
        <ele>377</ele>
        <time>2024-12-11T15:20:22Z</time>
      </trkpt>
      <trkpt lat="43.53476" lon="6.1353">
        <ele>377</ele>
        <time>2024-12-11T15:20:24Z</time>
      </trkpt>
      <trkpt lat="43.53475" lon="6.13537">
        <ele>378</ele>
        <time>2024-12-11T15:20:28Z</time>
      </trkpt>
      <trkpt lat="43.5348" lon="6.13555">
        <ele>378</ele>
        <time>2024-12-11T15:20:36Z</time>
      </trkpt>
      <trkpt lat="43.5349" lon="6.13575">
        <ele>375</ele>
        <time>2024-12-11T15:20:52Z</time>
      </trkpt>
      <trkpt lat="43.53496" lon="6.13596">
        <ele>373</ele>
        <time>2024-12-11T15:21:02Z</time>
      </trkpt>
      <trkpt lat="43.53501" lon="6.13609">
        <ele>371</ele>
        <time>2024-12-11T15:21:08Z</time>
      </trkpt>
      <trkpt lat="43.53511" lon="6.13624">
        <ele>370</ele>
        <time>2024-12-11T15:21:16Z</time>
      </trkpt>
      <trkpt lat="43.53512" lon="6.13627">
        <ele>370</ele>
        <time>2024-12-11T15:21:18Z</time>
      </trkpt>
      <trkpt lat="43.53514" lon="6.13628">
        <ele>370</ele>
        <time>2024-12-11T15:21:20Z</time>
      </trkpt>
      <trkpt lat="43.5352" lon="6.13639">
        <ele>371</ele>
        <time>2024-12-11T15:21:26Z</time>
      </trkpt>
      <trkpt lat="43.53533" lon="6.13657">
        <ele>371</ele>
        <time>2024-12-11T15:21:38Z</time>
      </trkpt>
      <trkpt lat="43.5354" lon="6.1367">
        <ele>371</ele>
        <time>2024-12-11T15:21:46Z</time>
      </trkpt>
      <trkpt lat="43.53543" lon="6.13675">
        <ele>371</ele>
        <time>2024-12-11T15:21:50Z</time>
      </trkpt>
      <trkpt lat="43.53547" lon="6.13688">
        <ele>370</ele>
        <time>2024-12-11T15:21:56Z</time>
      </trkpt>
      <trkpt lat="43.53548" lon="6.1369">
        <ele>369</ele>
        <time>2024-12-11T15:21:58Z</time>
      </trkpt>
      <trkpt lat="43.53547" lon="6.13693">
        <ele>369</ele>
        <time>2024-12-11T15:22:00Z</time>
      </trkpt>
      <trkpt lat="43.5355" lon="6.13739">
        <ele>364</ele>
        <time>2024-12-11T15:22:22Z</time>
      </trkpt>
      <trkpt lat="43.53551" lon="6.13752">
        <ele>364</ele>
        <time>2024-12-11T15:22:28Z</time>
      </trkpt>
      <trkpt lat="43.53553" lon="6.13756">
        <ele>364</ele>
        <time>2024-12-11T15:22:30Z</time>
      </trkpt>
      <trkpt lat="43.53555" lon="6.13759">
        <ele>364</ele>
        <time>2024-12-11T15:22:32Z</time>
      </trkpt>
      <trkpt lat="43.53556" lon="6.13763">
        <ele>363</ele>
        <time>2024-12-11T15:22:34Z</time>
      </trkpt>
      <trkpt lat="43.53556" lon="6.13766">
        <ele>364</ele>
        <time>2024-12-11T15:22:40Z</time>
      </trkpt>
      <trkpt lat="43.53556" lon="6.1377">
        <ele>364</ele>
        <time>2024-12-11T15:22:46Z</time>
      </trkpt>
      <trkpt lat="43.53562" lon="6.1378">
        <ele>364</ele>
        <time>2024-12-11T15:22:52Z</time>
      </trkpt>
      <trkpt lat="43.53566" lon="6.13794">
        <ele>365</ele>
        <time>2024-12-11T15:23:00Z</time>
      </trkpt>
      <trkpt lat="43.5357" lon="6.13804">
        <ele>363</ele>
        <time>2024-12-11T15:23:06Z</time>
      </trkpt>
      <trkpt lat="43.53571" lon="6.1381">
        <ele>363</ele>
        <time>2024-12-11T15:23:10Z</time>
      </trkpt>
      <trkpt lat="43.53573" lon="6.13814">
        <ele>363</ele>
        <time>2024-12-11T15:23:12Z</time>
      </trkpt>
      <trkpt lat="43.53574" lon="6.13819">
        <ele>362</ele>
        <time>2024-12-11T15:23:14Z</time>
      </trkpt>
      <trkpt lat="43.53576" lon="6.13831">
        <ele>360</ele>
        <time>2024-12-11T15:23:22Z</time>
      </trkpt>
      <trkpt lat="43.5358" lon="6.13838">
        <ele>360</ele>
        <time>2024-12-11T15:23:26Z</time>
      </trkpt>
      <trkpt lat="43.53584" lon="6.13844">
        <ele>359</ele>
        <time>2024-12-11T15:23:30Z</time>
      </trkpt>
      <trkpt lat="43.53586" lon="6.13847">
        <ele>358</ele>
        <time>2024-12-11T15:23:32Z</time>
      </trkpt>
      <trkpt lat="43.53593" lon="6.13859">
        <ele>356</ele>
        <time>2024-12-11T15:23:40Z</time>
      </trkpt>
      <trkpt lat="43.53595" lon="6.13863">
        <ele>356</ele>
        <time>2024-12-11T15:23:42Z</time>
      </trkpt>
      <trkpt lat="43.53602" lon="6.13882">
        <ele>354</ele>
        <time>2024-12-11T15:23:54Z</time>
      </trkpt>
      <trkpt lat="43.53604" lon="6.13889">
        <ele>354</ele>
        <time>2024-12-11T15:23:58Z</time>
      </trkpt>
      <trkpt lat="43.53614" lon="6.139">
        <ele>354</ele>
        <time>2024-12-11T15:24:08Z</time>
      </trkpt>
      <trkpt lat="43.53616" lon="6.13902">
        <ele>353</ele>
        <time>2024-12-11T15:24:10Z</time>
      </trkpt>
      <trkpt lat="43.53618" lon="6.13904">
        <ele>353</ele>
        <time>2024-12-11T15:24:14Z</time>
      </trkpt>
      <trkpt lat="43.53619" lon="6.13909">
        <ele>353</ele>
        <time>2024-12-11T15:24:16Z</time>
      </trkpt>
      <trkpt lat="43.53621" lon="6.13913">
        <ele>353</ele>
        <time>2024-12-11T15:24:18Z</time>
      </trkpt>
      <trkpt lat="43.53624" lon="6.13915">
        <ele>353</ele>
        <time>2024-12-11T15:24:20Z</time>
      </trkpt>
      <trkpt lat="43.53626" lon="6.13917">
        <ele>354</ele>
        <time>2024-12-11T15:24:22Z</time>
      </trkpt>
      <trkpt lat="43.5363" lon="6.1392">
        <ele>353</ele>
        <time>2024-12-11T15:24:26Z</time>
      </trkpt>
      <trkpt lat="43.53632" lon="6.13924">
        <ele>353</ele>
        <time>2024-12-11T15:24:30Z</time>
      </trkpt>
      <trkpt lat="43.53637" lon="6.13932">
        <ele>353</ele>
        <time>2024-12-11T15:24:36Z</time>
      </trkpt>
      <trkpt lat="43.5364" lon="6.13936">
        <ele>353</ele>
        <time>2024-12-11T15:24:40Z</time>
      </trkpt>
      <trkpt lat="43.53638" lon="6.13938">
        <ele>352</ele>
        <time>2024-12-11T15:24:44Z</time>
      </trkpt>
      <trkpt lat="43.53636" lon="6.13941">
        <ele>351</ele>
        <time>2024-12-11T15:24:48Z</time>
      </trkpt>
      <trkpt lat="43.53644" lon="6.13939">
        <ele>354</ele>
        <time>2024-12-11T15:26:08Z</time>
      </trkpt>
      <trkpt lat="43.53647" lon="6.13938">
        <ele>355</ele>
        <time>2024-12-11T15:26:12Z</time>
      </trkpt>
      <trkpt lat="43.53648" lon="6.1394">
        <ele>356</ele>
        <time>2024-12-11T15:26:20Z</time>
      </trkpt>
      <trkpt lat="43.53655" lon="6.13953">
        <ele>357</ele>
        <time>2024-12-11T15:26:30Z</time>
      </trkpt>
      <trkpt lat="43.53658" lon="6.13956">
        <ele>356</ele>
        <time>2024-12-11T15:26:32Z</time>
      </trkpt>
      <trkpt lat="43.53661" lon="6.13958">
        <ele>356</ele>
        <time>2024-12-11T15:26:34Z</time>
      </trkpt>
      <trkpt lat="43.53666" lon="6.13964">
        <ele>355</ele>
        <time>2024-12-11T15:26:38Z</time>
      </trkpt>
      <trkpt lat="43.53673" lon="6.13971">
        <ele>355</ele>
        <time>2024-12-11T15:26:46Z</time>
      </trkpt>
      <trkpt lat="43.53678" lon="6.13974">
        <ele>356</ele>
        <time>2024-12-11T15:26:50Z</time>
      </trkpt>
      <trkpt lat="43.53694" lon="6.13985">
        <ele>353</ele>
        <time>2024-12-11T15:27:04Z</time>
      </trkpt>
      <trkpt lat="43.53699" lon="6.13991">
        <ele>353</ele>
        <time>2024-12-11T15:27:10Z</time>
      </trkpt>
      <trkpt lat="43.53704" lon="6.13993">
        <ele>352</ele>
        <time>2024-12-11T15:27:14Z</time>
      </trkpt>
      <trkpt lat="43.53706" lon="6.13995">
        <ele>352</ele>
        <time>2024-12-11T15:27:16Z</time>
      </trkpt>
      <trkpt lat="43.53708" lon="6.13995">
        <ele>352</ele>
        <time>2024-12-11T15:27:18Z</time>
      </trkpt>
      <trkpt lat="43.53712" lon="6.14">
        <ele>354</ele>
        <time>2024-12-11T15:27:24Z</time>
      </trkpt>
      <trkpt lat="43.53715" lon="6.14002">
        <ele>355</ele>
        <time>2024-12-11T15:27:28Z</time>
      </trkpt>
      <trkpt lat="43.53715" lon="6.14006">
        <ele>356</ele>
        <time>2024-12-11T15:27:32Z</time>
      </trkpt>
      <trkpt lat="43.53712" lon="6.14016">
        <ele>358</ele>
        <time>2024-12-11T15:27:36Z</time>
      </trkpt>
      <trkpt lat="43.53706" lon="6.14039">
        <ele>359</ele>
        <time>2024-12-11T15:27:52Z</time>
      </trkpt>
      <trkpt lat="43.53705" lon="6.14043">
        <ele>359</ele>
        <time>2024-12-11T15:27:54Z</time>
      </trkpt>
      <trkpt lat="43.537" lon="6.14052">
        <ele>361</ele>
        <time>2024-12-11T15:28:04Z</time>
      </trkpt>
      <trkpt lat="43.53699" lon="6.14055">
        <ele>362</ele>
        <time>2024-12-11T15:28:06Z</time>
      </trkpt>
      <trkpt lat="43.53694" lon="6.14061">
        <ele>361</ele>
        <time>2024-12-11T15:28:10Z</time>
      </trkpt>
      <trkpt lat="43.53689" lon="6.14066">
        <ele>360</ele>
        <time>2024-12-11T15:28:14Z</time>
      </trkpt>
      <trkpt lat="43.53687" lon="6.14069">
        <ele>360</ele>
        <time>2024-12-11T15:28:18Z</time>
      </trkpt>
      <trkpt lat="43.53685" lon="6.14072">
        <ele>360</ele>
        <time>2024-12-11T15:28:20Z</time>
      </trkpt>
      <trkpt lat="43.53683" lon="6.14075">
        <ele>360</ele>
        <time>2024-12-11T15:28:22Z</time>
      </trkpt>
      <trkpt lat="43.53677" lon="6.14084">
        <ele>357</ele>
        <time>2024-12-11T15:28:24Z</time>
      </trkpt>
      <trkpt lat="43.53671" lon="6.1409">
        <ele>355</ele>
        <time>2024-12-11T15:28:30Z</time>
      </trkpt>
      <trkpt lat="43.53668" lon="6.14091">
        <ele>355</ele>
        <time>2024-12-11T15:28:32Z</time>
      </trkpt>
      <trkpt lat="43.53666" lon="6.14091">
        <ele>355</ele>
        <time>2024-12-11T15:28:36Z</time>
      </trkpt>
      <trkpt lat="43.53664" lon="6.14093">
        <ele>355</ele>
        <time>2024-12-11T15:28:38Z</time>
      </trkpt>
      <trkpt lat="43.53657" lon="6.14101">
        <ele>356</ele>
        <time>2024-12-11T15:28:44Z</time>
      </trkpt>
      <trkpt lat="43.53654" lon="6.14105">
        <ele>356</ele>
        <time>2024-12-11T15:28:48Z</time>
      </trkpt>
      <trkpt lat="43.5365" lon="6.14109">
        <ele>356</ele>
        <time>2024-12-11T15:28:52Z</time>
      </trkpt>
      <trkpt lat="43.53648" lon="6.14112">
        <ele>355</ele>
        <time>2024-12-11T15:28:54Z</time>
      </trkpt>
      <trkpt lat="43.53644" lon="6.14114">
        <ele>354</ele>
        <time>2024-12-11T15:28:56Z</time>
      </trkpt>
      <trkpt lat="43.53636" lon="6.1412">
        <ele>354</ele>
        <time>2024-12-11T15:29:06Z</time>
      </trkpt>
      <trkpt lat="43.53635" lon="6.14123">
        <ele>355</ele>
        <time>2024-12-11T15:29:10Z</time>
      </trkpt>
      <trkpt lat="43.53633" lon="6.14125">
        <ele>355</ele>
        <time>2024-12-11T15:29:12Z</time>
      </trkpt>
      <trkpt lat="43.53623" lon="6.14133">
        <ele>355</ele>
        <time>2024-12-11T15:29:20Z</time>
      </trkpt>
      <trkpt lat="43.53621" lon="6.14137">
        <ele>353</ele>
        <time>2024-12-11T15:29:22Z</time>
      </trkpt>
      <trkpt lat="43.53616" lon="6.14143">
        <ele>351</ele>
        <time>2024-12-11T15:29:26Z</time>
      </trkpt>
      <trkpt lat="43.53612" lon="6.14146">
        <ele>350</ele>
        <time>2024-12-11T15:29:30Z</time>
      </trkpt>
      <trkpt lat="43.53611" lon="6.14149">
        <ele>350</ele>
        <time>2024-12-11T15:29:32Z</time>
      </trkpt>
      <trkpt lat="43.53609" lon="6.14151">
        <ele>350</ele>
        <time>2024-12-11T15:29:34Z</time>
      </trkpt>
      <trkpt lat="43.53606" lon="6.14153">
        <ele>350</ele>
        <time>2024-12-11T15:29:36Z</time>
      </trkpt>
      <trkpt lat="43.53595" lon="6.14168">
        <ele>350</ele>
        <time>2024-12-11T15:29:44Z</time>
      </trkpt>
      <trkpt lat="43.5358" lon="6.14181">
        <ele>347</ele>
        <time>2024-12-11T15:29:56Z</time>
      </trkpt>
      <trkpt lat="43.53577" lon="6.14181">
        <ele>347</ele>
        <time>2024-12-11T15:29:58Z</time>
      </trkpt>
      <trkpt lat="43.53575" lon="6.14181">
        <ele>347</ele>
        <time>2024-12-11T15:30:00Z</time>
      </trkpt>
      <trkpt lat="43.53573" lon="6.1418">
        <ele>348</ele>
        <time>2024-12-11T15:30:02Z</time>
      </trkpt>
      <trkpt lat="43.53571" lon="6.1418">
        <ele>348</ele>
        <time>2024-12-11T15:30:04Z</time>
      </trkpt>
      <trkpt lat="43.53565" lon="6.14181">
        <ele>348</ele>
        <time>2024-12-11T15:30:08Z</time>
      </trkpt>
      <trkpt lat="43.5356" lon="6.1418">
        <ele>350</ele>
        <time>2024-12-11T15:30:12Z</time>
      </trkpt>
      <trkpt lat="43.53549" lon="6.1418">
        <ele>352</ele>
        <time>2024-12-11T15:30:20Z</time>
      </trkpt>
      <trkpt lat="43.53538" lon="6.14178">
        <ele>352</ele>
        <time>2024-12-11T15:30:26Z</time>
      </trkpt>
      <trkpt lat="43.53536" lon="6.14177">
        <ele>352</ele>
        <time>2024-12-11T15:30:28Z</time>
      </trkpt>
      <trkpt lat="43.53534" lon="6.14177">
        <ele>352</ele>
        <time>2024-12-11T15:30:30Z</time>
      </trkpt>
      <trkpt lat="43.53529" lon="6.1418">
        <ele>352</ele>
        <time>2024-12-11T15:30:36Z</time>
      </trkpt>
      <trkpt lat="43.53524" lon="6.14181">
        <ele>353</ele>
        <time>2024-12-11T15:30:40Z</time>
      </trkpt>
      <trkpt lat="43.53515" lon="6.1419">
        <ele>354</ele>
        <time>2024-12-11T15:30:48Z</time>
      </trkpt>
      <trkpt lat="43.53508" lon="6.14195">
        <ele>354</ele>
        <time>2024-12-11T15:30:52Z</time>
      </trkpt>
      <trkpt lat="43.53505" lon="6.14197">
        <ele>354</ele>
        <time>2024-12-11T15:30:54Z</time>
      </trkpt>
      <trkpt lat="43.53498" lon="6.142">
        <ele>354</ele>
        <time>2024-12-11T15:30:58Z</time>
      </trkpt>
      <trkpt lat="43.53479" lon="6.14212">
        <ele>348</ele>
        <time>2024-12-11T15:31:14Z</time>
      </trkpt>
      <trkpt lat="43.53468" lon="6.1422">
        <ele>348</ele>
        <time>2024-12-11T15:31:22Z</time>
      </trkpt>
      <trkpt lat="43.53463" lon="6.14222">
        <ele>347</ele>
        <time>2024-12-11T15:31:26Z</time>
      </trkpt>
      <trkpt lat="43.5346" lon="6.14223">
        <ele>346</ele>
        <time>2024-12-11T15:31:28Z</time>
      </trkpt>
      <trkpt lat="43.53457" lon="6.14222">
        <ele>346</ele>
        <time>2024-12-11T15:31:30Z</time>
      </trkpt>
      <trkpt lat="43.53454" lon="6.14222">
        <ele>345</ele>
        <time>2024-12-11T15:31:32Z</time>
      </trkpt>
      <trkpt lat="43.53453" lon="6.14223">
        <ele>344</ele>
        <time>2024-12-11T15:31:34Z</time>
      </trkpt>
      <trkpt lat="43.53442" lon="6.14227">
        <ele>341</ele>
        <time>2024-12-11T15:31:44Z</time>
      </trkpt>
      <trkpt lat="43.5344" lon="6.14228">
        <ele>341</ele>
        <time>2024-12-11T15:31:46Z</time>
      </trkpt>
      <trkpt lat="43.53436" lon="6.14229">
        <ele>339</ele>
        <time>2024-12-11T15:31:50Z</time>
      </trkpt>
      <trkpt lat="43.53434" lon="6.1423">
        <ele>339</ele>
        <time>2024-12-11T15:31:52Z</time>
      </trkpt>
      <trkpt lat="43.53432" lon="6.14231">
        <ele>339</ele>
        <time>2024-12-11T15:31:54Z</time>
      </trkpt>
      <trkpt lat="43.53424" lon="6.14238">
        <ele>340</ele>
        <time>2024-12-11T15:32:00Z</time>
      </trkpt>
      <trkpt lat="43.53416" lon="6.14241">
        <ele>339</ele>
        <time>2024-12-11T15:32:08Z</time>
      </trkpt>
      <trkpt lat="43.53413" lon="6.14243">
        <ele>338</ele>
        <time>2024-12-11T15:32:12Z</time>
      </trkpt>
      <trkpt lat="43.53409" lon="6.14244">
        <ele>338</ele>
        <time>2024-12-11T15:32:16Z</time>
      </trkpt>
      <trkpt lat="43.53408" lon="6.14243">
        <ele>339</ele>
        <time>2024-12-11T15:32:18Z</time>
      </trkpt>
      <trkpt lat="43.53401" lon="6.14243">
        <ele>339</ele>
        <time>2024-12-11T15:32:24Z</time>
      </trkpt>
      <trkpt lat="43.534" lon="6.14241">
        <ele>338</ele>
        <time>2024-12-11T15:32:26Z</time>
      </trkpt>
      <trkpt lat="43.53399" lon="6.14238">
        <ele>338</ele>
        <time>2024-12-11T15:32:30Z</time>
      </trkpt>
      <trkpt lat="43.53397" lon="6.14235">
        <ele>337</ele>
        <time>2024-12-11T15:32:34Z</time>
      </trkpt>
      <trkpt lat="43.53392" lon="6.14231">
        <ele>336</ele>
        <time>2024-12-11T15:32:38Z</time>
      </trkpt>
      <trkpt lat="43.53389" lon="6.14229">
        <ele>336</ele>
        <time>2024-12-11T15:32:40Z</time>
      </trkpt>
      <trkpt lat="43.53376" lon="6.14224">
        <ele>338</ele>
        <time>2024-12-11T15:32:48Z</time>
      </trkpt>
      <trkpt lat="43.53373" lon="6.14224">
        <ele>338</ele>
        <time>2024-12-11T15:32:50Z</time>
      </trkpt>
      <trkpt lat="43.53371" lon="6.14223">
        <ele>338</ele>
        <time>2024-12-11T15:32:52Z</time>
      </trkpt>
      <trkpt lat="43.53369" lon="6.14224">
        <ele>338</ele>
        <time>2024-12-11T15:32:54Z</time>
      </trkpt>
      <trkpt lat="43.53368" lon="6.14227">
        <ele>338</ele>
        <time>2024-12-11T15:32:58Z</time>
      </trkpt>
      <trkpt lat="43.53369" lon="6.14237">
        <ele>338</ele>
        <time>2024-12-11T15:33:06Z</time>
      </trkpt>
      <trkpt lat="43.53371" lon="6.14243">
        <ele>338</ele>
        <time>2024-12-11T15:33:10Z</time>
      </trkpt>
      <trkpt lat="43.53376" lon="6.14248">
        <ele>338</ele>
        <time>2024-12-11T15:33:16Z</time>
      </trkpt>
      <trkpt lat="43.53378" lon="6.14251">
        <ele>338</ele>
        <time>2024-12-11T15:33:18Z</time>
      </trkpt>
      <trkpt lat="43.53379" lon="6.14254">
        <ele>337</ele>
        <time>2024-12-11T15:33:20Z</time>
      </trkpt>
      <trkpt lat="43.53379" lon="6.14258">
        <ele>336</ele>
        <time>2024-12-11T15:33:22Z</time>
      </trkpt>
      <trkpt lat="43.53381" lon="6.1426">
        <ele>335</ele>
        <time>2024-12-11T15:33:24Z</time>
      </trkpt>
      <trkpt lat="43.53383" lon="6.14262">
        <ele>334</ele>
        <time>2024-12-11T15:33:26Z</time>
      </trkpt>
      <trkpt lat="43.53388" lon="6.14266">
        <ele>333</ele>
        <time>2024-12-11T15:33:32Z</time>
      </trkpt>
      <trkpt lat="43.53394" lon="6.14277">
        <ele>330</ele>
        <time>2024-12-11T15:33:40Z</time>
      </trkpt>
      <trkpt lat="43.53399" lon="6.14285">
        <ele>330</ele>
        <time>2024-12-11T15:33:46Z</time>
      </trkpt>
      <trkpt lat="43.53401" lon="6.14288">
        <ele>330</ele>
        <time>2024-12-11T15:33:48Z</time>
      </trkpt>
      <trkpt lat="43.53402" lon="6.14291">
        <ele>330</ele>
        <time>2024-12-11T15:33:50Z</time>
      </trkpt>
      <trkpt lat="43.53403" lon="6.14294">
        <ele>330</ele>
        <time>2024-12-11T15:33:52Z</time>
      </trkpt>
      <trkpt lat="43.53403" lon="6.14296">
        <ele>329</ele>
        <time>2024-12-11T15:33:56Z</time>
      </trkpt>
      <trkpt lat="43.53403" lon="6.14299">
        <ele>330</ele>
        <time>2024-12-11T15:34:00Z</time>
      </trkpt>
      <trkpt lat="43.53403" lon="6.14301">
        <ele>331</ele>
        <time>2024-12-11T15:34:04Z</time>
      </trkpt>
      <trkpt lat="43.534" lon="6.14304">
        <ele>332</ele>
        <time>2024-12-11T15:35:28Z</time>
      </trkpt>
      <trkpt lat="43.53399" lon="6.14303">
        <ele>332</ele>
        <time>2024-12-11T15:35:30Z</time>
      </trkpt>
      <trkpt lat="43.53395" lon="6.143">
        <ele>333</ele>
        <time>2024-12-11T15:35:34Z</time>
      </trkpt>
      <trkpt lat="43.53394" lon="6.14298">
        <ele>333</ele>
        <time>2024-12-11T15:35:36Z</time>
      </trkpt>
      <trkpt lat="43.53393" lon="6.14296">
        <ele>333</ele>
        <time>2024-12-11T15:35:38Z</time>
      </trkpt>
      <trkpt lat="43.53391" lon="6.14296">
        <ele>335</ele>
        <time>2024-12-11T15:35:48Z</time>
      </trkpt>
      <trkpt lat="43.53388" lon="6.14295">
        <ele>336</ele>
        <time>2024-12-11T15:35:52Z</time>
      </trkpt>
      <trkpt lat="43.53387" lon="6.14296">
        <ele>336</ele>
        <time>2024-12-11T15:35:54Z</time>
      </trkpt>
      <trkpt lat="43.53385" lon="6.143">
        <ele>335</ele>
        <time>2024-12-11T15:35:58Z</time>
      </trkpt>
      <trkpt lat="43.53382" lon="6.14308">
        <ele>334</ele>
        <time>2024-12-11T15:36:02Z</time>
      </trkpt>
      <trkpt lat="43.53377" lon="6.14318">
        <ele>328</ele>
        <time>2024-12-11T15:36:10Z</time>
      </trkpt>
      <trkpt lat="43.53374" lon="6.14322">
        <ele>327</ele>
        <time>2024-12-11T15:36:14Z</time>
      </trkpt>
      <trkpt lat="43.5337" lon="6.14328">
        <ele>324</ele>
        <time>2024-12-11T15:36:20Z</time>
      </trkpt>
      <trkpt lat="43.53362" lon="6.1434">
        <ele>318</ele>
        <time>2024-12-11T15:36:28Z</time>
      </trkpt>
      <trkpt lat="43.53361" lon="6.14342">
        <ele>316</ele>
        <time>2024-12-11T15:36:30Z</time>
      </trkpt>
      <trkpt lat="43.53359" lon="6.14342">
        <ele>315</ele>
        <time>2024-12-11T15:36:34Z</time>
      </trkpt>
      <trkpt lat="43.53357" lon="6.14344">
        <ele>314</ele>
        <time>2024-12-11T15:36:36Z</time>
      </trkpt>
      <trkpt lat="43.53349" lon="6.14356">
        <ele>314</ele>
        <time>2024-12-11T15:36:48Z</time>
      </trkpt>
      <trkpt lat="43.53345" lon="6.14356">
        <ele>314</ele>
        <time>2024-12-11T15:36:52Z</time>
      </trkpt>
      <trkpt lat="43.53342" lon="6.14355">
        <ele>314</ele>
        <time>2024-12-11T15:36:54Z</time>
      </trkpt>
      <trkpt lat="43.5334" lon="6.14356">
        <ele>315</ele>
        <time>2024-12-11T15:37:04Z</time>
      </trkpt>
      <trkpt lat="43.53342" lon="6.14364">
        <ele>319</ele>
        <time>2024-12-11T15:37:46Z</time>
      </trkpt>
      <trkpt lat="43.53336" lon="6.14374">
        <ele>319</ele>
        <time>2024-12-11T15:37:54Z</time>
      </trkpt>
      <trkpt lat="43.53335" lon="6.14377">
        <ele>319</ele>
        <time>2024-12-11T15:37:56Z</time>
      </trkpt>
      <trkpt lat="43.5333" lon="6.14384">
        <ele>317</ele>
        <time>2024-12-11T15:38:04Z</time>
      </trkpt>
      <trkpt lat="43.53329" lon="6.14387">
        <ele>317</ele>
        <time>2024-12-11T15:38:06Z</time>
      </trkpt>
      <trkpt lat="43.53328" lon="6.14392">
        <ele>317</ele>
        <time>2024-12-11T15:38:10Z</time>
      </trkpt>
      <trkpt lat="43.53324" lon="6.144">
        <ele>315</ele>
        <time>2024-12-11T15:38:16Z</time>
      </trkpt>
      <trkpt lat="43.53321" lon="6.14409">
        <ele>315</ele>
        <time>2024-12-11T15:38:24Z</time>
      </trkpt>
      <trkpt lat="43.53319" lon="6.14416">
        <ele>315</ele>
        <time>2024-12-11T15:38:28Z</time>
      </trkpt>
      <trkpt lat="43.53312" lon="6.14428">
        <ele>313</ele>
        <time>2024-12-11T15:38:36Z</time>
      </trkpt>
      <trkpt lat="43.53311" lon="6.14431">
        <ele>313</ele>
        <time>2024-12-11T15:38:38Z</time>
      </trkpt>
      <trkpt lat="43.53304" lon="6.14449">
        <ele>313</ele>
        <time>2024-12-11T15:38:48Z</time>
      </trkpt>
      <trkpt lat="43.53301" lon="6.14473">
        <ele>313</ele>
        <time>2024-12-11T15:39:08Z</time>
      </trkpt>
      <trkpt lat="43.533" lon="6.14476">
        <ele>313</ele>
        <time>2024-12-11T15:39:10Z</time>
      </trkpt>
      <trkpt lat="43.53298" lon="6.14482">
        <ele>313</ele>
        <time>2024-12-11T15:39:14Z</time>
      </trkpt>
      <trkpt lat="43.53298" lon="6.14485">
        <ele>314</ele>
        <time>2024-12-11T15:39:16Z</time>
      </trkpt>
      <trkpt lat="43.53295" lon="6.1449">
        <ele>315</ele>
        <time>2024-12-11T15:39:20Z</time>
      </trkpt>
      <trkpt lat="43.53293" lon="6.14492">
        <ele>316</ele>
        <time>2024-12-11T15:39:22Z</time>
      </trkpt>
      <trkpt lat="43.53291" lon="6.14494">
        <ele>316</ele>
        <time>2024-12-11T15:39:24Z</time>
      </trkpt>
      <trkpt lat="43.53288" lon="6.14498">
        <ele>317</ele>
        <time>2024-12-11T15:39:28Z</time>
      </trkpt>
      <trkpt lat="43.53288" lon="6.14502">
        <ele>317</ele>
        <time>2024-12-11T15:39:32Z</time>
      </trkpt>
      <trkpt lat="43.53287" lon="6.14504">
        <ele>319</ele>
        <time>2024-12-11T15:39:36Z</time>
      </trkpt>
      <trkpt lat="43.53283" lon="6.14507">
        <ele>321</ele>
        <time>2024-12-11T15:39:42Z</time>
      </trkpt>
      <trkpt lat="43.5328" lon="6.14508">
        <ele>321</ele>
        <time>2024-12-11T15:39:44Z</time>
      </trkpt>
      <trkpt lat="43.53273" lon="6.14511">
        <ele>323</ele>
        <time>2024-12-11T15:39:50Z</time>
      </trkpt>
      <trkpt lat="43.5327" lon="6.14512">
        <ele>323</ele>
        <time>2024-12-11T15:39:52Z</time>
      </trkpt>
      <trkpt lat="43.53268" lon="6.14516">
        <ele>323</ele>
        <time>2024-12-11T15:39:54Z</time>
      </trkpt>
      <trkpt lat="43.53263" lon="6.1452">
        <ele>322</ele>
        <time>2024-12-11T15:39:58Z</time>
      </trkpt>
      <trkpt lat="43.53261" lon="6.14522">
        <ele>322</ele>
        <time>2024-12-11T15:40:00Z</time>
      </trkpt>
      <trkpt lat="43.53258" lon="6.14521">
        <ele>322</ele>
        <time>2024-12-11T15:40:02Z</time>
      </trkpt>
      <trkpt lat="43.53257" lon="6.14524">
        <ele>322</ele>
        <time>2024-12-11T15:40:04Z</time>
      </trkpt>
      <trkpt lat="43.53254" lon="6.14528">
        <ele>324</ele>
        <time>2024-12-11T15:40:08Z</time>
      </trkpt>
      <trkpt lat="43.53242" lon="6.14545">
        <ele>324</ele>
        <time>2024-12-11T15:40:22Z</time>
      </trkpt>
      <trkpt lat="43.53239" lon="6.14547">
        <ele>324</ele>
        <time>2024-12-11T15:40:24Z</time>
      </trkpt>
      <trkpt lat="43.53236" lon="6.14547">
        <ele>323</ele>
        <time>2024-12-11T15:40:26Z</time>
      </trkpt>
      <trkpt lat="43.5323" lon="6.14554">
        <ele>322</ele>
        <time>2024-12-11T15:40:34Z</time>
      </trkpt>
      <trkpt lat="43.53228" lon="6.14556">
        <ele>322</ele>
        <time>2024-12-11T15:40:36Z</time>
      </trkpt>
      <trkpt lat="43.53226" lon="6.14558">
        <ele>321</ele>
        <time>2024-12-11T15:40:38Z</time>
      </trkpt>
      <trkpt lat="43.53225" lon="6.14559">
        <ele>322</ele>
        <time>2024-12-11T15:40:40Z</time>
      </trkpt>
      <trkpt lat="43.53226" lon="6.14555">
        <ele>323</ele>
        <time>2024-12-11T15:40:48Z</time>
      </trkpt>
      <trkpt lat="43.5323" lon="6.14549">
        <ele>323</ele>
        <time>2024-12-11T15:40:52Z</time>
      </trkpt>
      <trkpt lat="43.5323" lon="6.14545">
        <ele>322</ele>
        <time>2024-12-11T15:40:54Z</time>
      </trkpt>
      <trkpt lat="43.53229" lon="6.14539">
        <ele>321</ele>
        <time>2024-12-11T15:40:58Z</time>
      </trkpt>
      <trkpt lat="43.5323" lon="6.14534">
        <ele>320</ele>
        <time>2024-12-11T15:41:02Z</time>
      </trkpt>
      <trkpt lat="43.53227" lon="6.1453">
        <ele>320</ele>
        <time>2024-12-11T15:41:06Z</time>
      </trkpt>
      <trkpt lat="43.53229" lon="6.14526">
        <ele>319</ele>
        <time>2024-12-11T15:41:08Z</time>
      </trkpt>
      <trkpt lat="43.53228" lon="6.14524">
        <ele>318</ele>
        <time>2024-12-11T15:41:10Z</time>
      </trkpt>
      <trkpt lat="43.53222" lon="6.14524">
        <ele>313</ele>
        <time>2024-12-11T15:41:14Z</time>
      </trkpt>
      <trkpt lat="43.5322" lon="6.14521">
        <ele>312</ele>
        <time>2024-12-11T15:41:16Z</time>
      </trkpt>
      <trkpt lat="43.53218" lon="6.14517">
        <ele>311</ele>
        <time>2024-12-11T15:41:18Z</time>
      </trkpt>
      <trkpt lat="43.53217" lon="6.14515">
        <ele>310</ele>
        <time>2024-12-11T15:41:20Z</time>
      </trkpt>
      <trkpt lat="43.53214" lon="6.14515">
        <ele>311</ele>
        <time>2024-12-11T15:41:22Z</time>
      </trkpt>
      <trkpt lat="43.5321" lon="6.14514">
        <ele>311</ele>
        <time>2024-12-11T15:41:26Z</time>
      </trkpt>
      <trkpt lat="43.53206" lon="6.14514">
        <ele>311</ele>
        <time>2024-12-11T15:41:28Z</time>
      </trkpt>
      <trkpt lat="43.53202" lon="6.14512">
        <ele>310</ele>
        <time>2024-12-11T15:41:32Z</time>
      </trkpt>
      <trkpt lat="43.53197" lon="6.14513">
        <ele>310</ele>
        <time>2024-12-11T15:41:36Z</time>
      </trkpt>
      <trkpt lat="43.53189" lon="6.14511">
        <ele>313</ele>
        <time>2024-12-11T15:41:42Z</time>
      </trkpt>
      <trkpt lat="43.53187" lon="6.14511">
        <ele>313</ele>
        <time>2024-12-11T15:41:44Z</time>
      </trkpt>
      <trkpt lat="43.53176" lon="6.14513">
        <ele>312</ele>
        <time>2024-12-11T15:41:52Z</time>
      </trkpt>
      <trkpt lat="43.53175" lon="6.14514">
        <ele>311</ele>
        <time>2024-12-11T15:41:54Z</time>
      </trkpt>
      <trkpt lat="43.53167" lon="6.14519">
        <ele>310</ele>
        <time>2024-12-11T15:42:02Z</time>
      </trkpt>
      <trkpt lat="43.53162" lon="6.14521">
        <ele>309</ele>
        <time>2024-12-11T15:42:06Z</time>
      </trkpt>
      <trkpt lat="43.53158" lon="6.14523">
        <ele>310</ele>
        <time>2024-12-11T15:42:10Z</time>
      </trkpt>
      <trkpt lat="43.53156" lon="6.14525">
        <ele>311</ele>
        <time>2024-12-11T15:42:12Z</time>
      </trkpt>
      <trkpt lat="43.53154" lon="6.14525">
        <ele>311</ele>
        <time>2024-12-11T15:42:14Z</time>
      </trkpt>
      <trkpt lat="43.5313" lon="6.14533">
        <ele>313</ele>
        <time>2024-12-11T15:42:32Z</time>
      </trkpt>
      <trkpt lat="43.53126" lon="6.14535">
        <ele>312</ele>
        <time>2024-12-11T15:42:36Z</time>
      </trkpt>
      <trkpt lat="43.5312" lon="6.14537">
        <ele>312</ele>
        <time>2024-12-11T15:42:42Z</time>
      </trkpt>
      <trkpt lat="43.53107" lon="6.14544">
        <ele>311</ele>
        <time>2024-12-11T15:42:50Z</time>
      </trkpt>
      <trkpt lat="43.53104" lon="6.14544">
        <ele>311</ele>
        <time>2024-12-11T15:42:52Z</time>
      </trkpt>
      <trkpt lat="43.53102" lon="6.14543">
        <ele>311</ele>
        <time>2024-12-11T15:42:54Z</time>
      </trkpt>
      <trkpt lat="43.53082" lon="6.14549">
        <ele>310</ele>
        <time>2024-12-11T15:43:10Z</time>
      </trkpt>
      <trkpt lat="43.5308" lon="6.1455">
        <ele>311</ele>
        <time>2024-12-11T15:43:12Z</time>
      </trkpt>
      <trkpt lat="43.53074" lon="6.14553">
        <ele>311</ele>
        <time>2024-12-11T15:43:16Z</time>
      </trkpt>
      <trkpt lat="43.53071" lon="6.14554">
        <ele>311</ele>
        <time>2024-12-11T15:43:18Z</time>
      </trkpt>
      <trkpt lat="43.53064" lon="6.14556">
        <ele>310</ele>
        <time>2024-12-11T15:43:24Z</time>
      </trkpt>
      <trkpt lat="43.53057" lon="6.14561">
        <ele>310</ele>
        <time>2024-12-11T15:43:30Z</time>
      </trkpt>
      <trkpt lat="43.53054" lon="6.14562">
        <ele>310</ele>
        <time>2024-12-11T15:43:32Z</time>
      </trkpt>
      <trkpt lat="43.53049" lon="6.14564">
        <ele>310</ele>
        <time>2024-12-11T15:43:36Z</time>
      </trkpt>
      <trkpt lat="43.53047" lon="6.14564">
        <ele>310</ele>
        <time>2024-12-11T15:43:38Z</time>
      </trkpt>
      <trkpt lat="43.53043" lon="6.14567">
        <ele>311</ele>
        <time>2024-12-11T15:43:42Z</time>
      </trkpt>
      <trkpt lat="43.5304" lon="6.14568">
        <ele>312</ele>
        <time>2024-12-11T15:43:44Z</time>
      </trkpt>
      <trkpt lat="43.53037" lon="6.1457">
        <ele>313</ele>
        <time>2024-12-11T15:43:46Z</time>
      </trkpt>
      <trkpt lat="43.53034" lon="6.14571">
        <ele>313</ele>
        <time>2024-12-11T15:43:48Z</time>
      </trkpt>
      <trkpt lat="43.5303" lon="6.14571">
        <ele>314</ele>
        <time>2024-12-11T15:43:52Z</time>
      </trkpt>
      <trkpt lat="43.53027" lon="6.14574">
        <ele>315</ele>
        <time>2024-12-11T15:43:54Z</time>
      </trkpt>
      <trkpt lat="43.53023" lon="6.14577">
        <ele>315</ele>
        <time>2024-12-11T15:43:56Z</time>
      </trkpt>
      <trkpt lat="43.53021" lon="6.14573">
        <ele>315</ele>
        <time>2024-12-11T15:43:58Z</time>
      </trkpt>
      <trkpt lat="43.53014" lon="6.14579">
        <ele>318</ele>
        <time>2024-12-11T15:44:02Z</time>
      </trkpt>
      <trkpt lat="43.53012" lon="6.14579">
        <ele>318</ele>
        <time>2024-12-11T15:44:04Z</time>
      </trkpt>
      <trkpt lat="43.53005" lon="6.14589">
        <ele>333</ele>
        <time>2024-12-11T15:44:06Z</time>
      </trkpt>
      <trkpt lat="43.53003" lon="6.14589">
        <ele>337</ele>
        <time>2024-12-11T15:44:08Z</time>
      </trkpt>
      <trkpt lat="43.53001" lon="6.14588">
        <ele>340</ele>
        <time>2024-12-11T15:44:10Z</time>
      </trkpt>
      <trkpt lat="43.53" lon="6.14589">
        <ele>340</ele>
        <time>2024-12-11T15:44:12Z</time>
      </trkpt>
      <trkpt lat="43.52994" lon="6.14589">
        <ele>334</ele>
        <time>2024-12-11T15:44:18Z</time>
      </trkpt>
      <trkpt lat="43.52992" lon="6.14589">
        <ele>330</ele>
        <time>2024-12-11T15:44:20Z</time>
      </trkpt>
      <trkpt lat="43.52991" lon="6.14592">
        <ele>328</ele>
        <time>2024-12-11T15:44:24Z</time>
      </trkpt>
      <trkpt lat="43.52992" lon="6.14592">
        <ele>326</ele>
        <time>2024-12-11T15:44:30Z</time>
      </trkpt>
      <trkpt lat="43.52996" lon="6.14598">
        <ele>320</ele>
        <time>2024-12-11T15:45:24Z</time>
      </trkpt>
      <trkpt lat="43.52997" lon="6.14602">
        <ele>319</ele>
        <time>2024-12-11T15:45:26Z</time>
      </trkpt>
      <trkpt lat="43.52997" lon="6.14608">
        <ele>317</ele>
        <time>2024-12-11T15:45:30Z</time>
      </trkpt>
      <trkpt lat="43.52997" lon="6.14622">
        <ele>313</ele>
        <time>2024-12-11T15:45:38Z</time>
      </trkpt>
      <trkpt lat="43.52997" lon="6.14625">
        <ele>313</ele>
        <time>2024-12-11T15:45:40Z</time>
      </trkpt>
      <trkpt lat="43.52997" lon="6.14642">
        <ele>312</ele>
        <time>2024-12-11T15:45:52Z</time>
      </trkpt>
      <trkpt lat="43.52997" lon="6.14645">
        <ele>312</ele>
        <time>2024-12-11T15:45:54Z</time>
      </trkpt>
      <trkpt lat="43.52997" lon="6.14648">
        <ele>313</ele>
        <time>2024-12-11T15:45:56Z</time>
      </trkpt>
      <trkpt lat="43.52997" lon="6.14654">
        <ele>313</ele>
        <time>2024-12-11T15:45:58Z</time>
      </trkpt>
      <trkpt lat="43.52996" lon="6.14659">
        <ele>313</ele>
        <time>2024-12-11T15:46:00Z</time>
      </trkpt>
      <trkpt lat="43.52996" lon="6.14662">
        <ele>313</ele>
        <time>2024-12-11T15:46:02Z</time>
      </trkpt>
      <trkpt lat="43.52996" lon="6.14666">
        <ele>313</ele>
        <time>2024-12-11T15:46:06Z</time>
      </trkpt>
      <trkpt lat="43.53" lon="6.14693">
        <ele>312</ele>
        <time>2024-12-11T15:46:20Z</time>
      </trkpt>
      <trkpt lat="43.52998" lon="6.14697">
        <ele>311</ele>
        <time>2024-12-11T15:46:22Z</time>
      </trkpt>
      <trkpt lat="43.53001" lon="6.14703">
        <ele>310</ele>
        <time>2024-12-11T15:46:28Z</time>
      </trkpt>
      <trkpt lat="43.53002" lon="6.14709">
        <ele>308</ele>
        <time>2024-12-11T15:46:30Z</time>
      </trkpt>
      <trkpt lat="43.53003" lon="6.14719">
        <ele>306</ele>
        <time>2024-12-11T15:46:34Z</time>
      </trkpt>
      <trkpt lat="43.53004" lon="6.14722">
        <ele>306</ele>
        <time>2024-12-11T15:46:36Z</time>
      </trkpt>
      <trkpt lat="43.53006" lon="6.14735">
        <ele>306</ele>
        <time>2024-12-11T15:46:44Z</time>
      </trkpt>
      <trkpt lat="43.53007" lon="6.14746">
        <ele>307</ele>
        <time>2024-12-11T15:46:50Z</time>
      </trkpt>
      <trkpt lat="43.53006" lon="6.1475">
        <ele>307</ele>
        <time>2024-12-11T15:46:52Z</time>
      </trkpt>
      <trkpt lat="43.53006" lon="6.14753">
        <ele>308</ele>
        <time>2024-12-11T15:46:54Z</time>
      </trkpt>
      <trkpt lat="43.53006" lon="6.14758">
        <ele>308</ele>
        <time>2024-12-11T15:46:56Z</time>
      </trkpt>
      <trkpt lat="43.53004" lon="6.14765">
        <ele>308</ele>
        <time>2024-12-11T15:47:00Z</time>
      </trkpt>
      <trkpt lat="43.53002" lon="6.14768">
        <ele>309</ele>
        <time>2024-12-11T15:47:02Z</time>
      </trkpt>
      <trkpt lat="43.53" lon="6.14772">
        <ele>310</ele>
        <time>2024-12-11T15:47:06Z</time>
      </trkpt>
      <trkpt lat="43.52996" lon="6.14782">
        <ele>312</ele>
        <time>2024-12-11T15:47:14Z</time>
      </trkpt>
      <trkpt lat="43.52993" lon="6.14786">
        <ele>312</ele>
        <time>2024-12-11T15:47:18Z</time>
      </trkpt>
      <trkpt lat="43.5299" lon="6.14788">
        <ele>312</ele>
        <time>2024-12-11T15:47:20Z</time>
      </trkpt>
      <trkpt lat="43.52987" lon="6.14789">
        <ele>312</ele>
        <time>2024-12-11T15:47:24Z</time>
      </trkpt>
      <trkpt lat="43.52984" lon="6.1479">
        <ele>311</ele>
        <time>2024-12-11T15:47:28Z</time>
      </trkpt>
      <trkpt lat="43.52982" lon="6.14792">
        <ele>311</ele>
        <time>2024-12-11T15:47:30Z</time>
      </trkpt>
      <trkpt lat="43.5298" lon="6.14794">
        <ele>310</ele>
        <time>2024-12-11T15:47:32Z</time>
      </trkpt>
      <trkpt lat="43.52978" lon="6.14797">
        <ele>310</ele>
        <time>2024-12-11T15:47:34Z</time>
      </trkpt>
      <trkpt lat="43.52976" lon="6.14801">
        <ele>310</ele>
        <time>2024-12-11T15:47:36Z</time>
      </trkpt>
      <trkpt lat="43.52975" lon="6.14803">
        <ele>310</ele>
        <time>2024-12-11T15:47:38Z</time>
      </trkpt>
      <trkpt lat="43.52969" lon="6.14814">
        <ele>310</ele>
        <time>2024-12-11T15:47:48Z</time>
      </trkpt>
      <trkpt lat="43.52968" lon="6.14814">
        <ele>311</ele>
        <time>2024-12-11T15:47:52Z</time>
      </trkpt>
      <trkpt lat="43.52966" lon="6.14815">
        <ele>314</ele>
        <time>2024-12-11T15:47:58Z</time>
      </trkpt>
      <trkpt lat="43.52962" lon="6.1481">
        <ele>315</ele>
        <time>2024-12-11T15:48:16Z</time>
      </trkpt>
      <trkpt lat="43.52969" lon="6.14815">
        <ele>314</ele>
        <time>2024-12-11T15:50:38Z</time>
      </trkpt>
      <trkpt lat="43.52967" lon="6.14818">
        <ele>314</ele>
        <time>2024-12-11T15:50:40Z</time>
      </trkpt>
      <trkpt lat="43.52965" lon="6.14814">
        <ele>315</ele>
        <time>2024-12-11T15:50:42Z</time>
      </trkpt>
      <trkpt lat="43.52967" lon="6.1481">
        <ele>316</ele>
        <time>2024-12-11T15:51:02Z</time>
      </trkpt>
      <trkpt lat="43.52972" lon="6.14812">
        <ele>313</ele>
        <time>2024-12-11T15:51:24Z</time>
      </trkpt>
      <trkpt lat="43.52972" lon="6.14807">
        <ele>313</ele>
        <time>2024-12-11T15:51:30Z</time>
      </trkpt>
      <trkpt lat="43.52974" lon="6.14801">
        <ele>313</ele>
        <time>2024-12-11T15:51:34Z</time>
      </trkpt>
      <trkpt lat="43.52975" lon="6.14799">
        <ele>313</ele>
        <time>2024-12-11T15:51:36Z</time>
      </trkpt>
      <trkpt lat="43.52977" lon="6.14796">
        <ele>313</ele>
        <time>2024-12-11T15:51:40Z</time>
      </trkpt>
      <trkpt lat="43.52979" lon="6.14794">
        <ele>314</ele>
        <time>2024-12-11T15:51:44Z</time>
      </trkpt>
      <trkpt lat="43.52983" lon="6.14795">
        <ele>312</ele>
        <time>2024-12-11T15:51:48Z</time>
      </trkpt>
      <trkpt lat="43.52985" lon="6.14796">
        <ele>312</ele>
        <time>2024-12-11T15:51:50Z</time>
      </trkpt>
      <trkpt lat="43.52989" lon="6.14795">
        <ele>310</ele>
        <time>2024-12-11T15:51:54Z</time>
      </trkpt>
      <trkpt lat="43.52991" lon="6.14793">
        <ele>309</ele>
        <time>2024-12-11T15:51:56Z</time>
      </trkpt>
      <trkpt lat="43.52993" lon="6.14794">
        <ele>309</ele>
        <time>2024-12-11T15:51:58Z</time>
      </trkpt>
      <trkpt lat="43.52995" lon="6.14793">
        <ele>308</ele>
        <time>2024-12-11T15:52:02Z</time>
      </trkpt>
      <trkpt lat="43.52994" lon="6.14792">
        <ele>308</ele>
        <time>2024-12-11T15:52:08Z</time>
      </trkpt>
      <trkpt lat="43.52994" lon="6.14787">
        <ele>309</ele>
        <time>2024-12-11T15:52:12Z</time>
      </trkpt>
      <trkpt lat="43.52992" lon="6.14789">
        <ele>309</ele>
        <time>2024-12-11T15:52:22Z</time>
      </trkpt>
      <trkpt lat="43.52988" lon="6.1479">
        <ele>312</ele>
        <time>2024-12-11T15:52:36Z</time>
      </trkpt>
      <trkpt lat="43.5299" lon="6.14786">
        <ele>313</ele>
        <time>2024-12-11T15:52:38Z</time>
      </trkpt>
      <trkpt lat="43.52996" lon="6.14776">
        <ele>314</ele>
        <time>2024-12-11T15:52:42Z</time>
      </trkpt>
      <trkpt lat="43.52999" lon="6.14773">
        <ele>313</ele>
        <time>2024-12-11T15:52:44Z</time>
      </trkpt>
      <trkpt lat="43.53005" lon="6.14758">
        <ele>312</ele>
        <time>2024-12-11T15:52:52Z</time>
      </trkpt>
      <trkpt lat="43.53004" lon="6.14741">
        <ele>311</ele>
        <time>2024-12-11T15:53:00Z</time>
      </trkpt>
      <trkpt lat="43.53005" lon="6.1473">
        <ele>311</ele>
        <time>2024-12-11T15:53:06Z</time>
      </trkpt>
      <trkpt lat="43.53004" lon="6.14724">
        <ele>310</ele>
        <time>2024-12-11T15:53:10Z</time>
      </trkpt>
      <trkpt lat="43.53003" lon="6.14721">
        <ele>310</ele>
        <time>2024-12-11T15:53:12Z</time>
      </trkpt>
      <trkpt lat="43.53003" lon="6.14718">
        <ele>310</ele>
        <time>2024-12-11T15:53:14Z</time>
      </trkpt>
      <trkpt lat="43.53003" lon="6.14712">
        <ele>309</ele>
        <time>2024-12-11T15:53:18Z</time>
      </trkpt>
      <trkpt lat="43.53001" lon="6.14705">
        <ele>308</ele>
        <time>2024-12-11T15:53:22Z</time>
      </trkpt>
      <trkpt lat="43.53001" lon="6.14694">
        <ele>307</ele>
        <time>2024-12-11T15:53:28Z</time>
      </trkpt>
      <trkpt lat="43.53001" lon="6.14689">
        <ele>307</ele>
        <time>2024-12-11T15:53:30Z</time>
      </trkpt>
      <trkpt lat="43.53" lon="6.14684">
        <ele>307</ele>
        <time>2024-12-11T15:53:32Z</time>
      </trkpt>
      <trkpt lat="43.52999" lon="6.14679">
        <ele>307</ele>
        <time>2024-12-11T15:53:34Z</time>
      </trkpt>
      <trkpt lat="43.52998" lon="6.14676">
        <ele>307</ele>
        <time>2024-12-11T15:53:36Z</time>
      </trkpt>
      <trkpt lat="43.52997" lon="6.14672">
        <ele>307</ele>
        <time>2024-12-11T15:53:38Z</time>
      </trkpt>
      <trkpt lat="43.52996" lon="6.14668">
        <ele>307</ele>
        <time>2024-12-11T15:53:40Z</time>
      </trkpt>
      <trkpt lat="43.52996" lon="6.14664">
        <ele>307</ele>
        <time>2024-12-11T15:53:42Z</time>
      </trkpt>
      <trkpt lat="43.52996" lon="6.14654">
        <ele>307</ele>
        <time>2024-12-11T15:53:46Z</time>
      </trkpt>
      <trkpt lat="43.52995" lon="6.14645">
        <ele>307</ele>
        <time>2024-12-11T15:53:50Z</time>
      </trkpt>
      <trkpt lat="43.52996" lon="6.14625">
        <ele>308</ele>
        <time>2024-12-11T15:54:00Z</time>
      </trkpt>
      <trkpt lat="43.52993" lon="6.146">
        <ele>309</ele>
        <time>2024-12-11T15:54:12Z</time>
      </trkpt>
      <trkpt lat="43.52992" lon="6.14598">
        <ele>310</ele>
        <time>2024-12-11T15:54:14Z</time>
      </trkpt>
      <trkpt lat="43.5299" lon="6.14597">
        <ele>311</ele>
        <time>2024-12-11T15:54:20Z</time>
      </trkpt>
      <trkpt lat="43.52987" lon="6.14597">
        <ele>314</ele>
        <time>2024-12-11T15:54:42Z</time>
      </trkpt>
      <trkpt lat="43.52986" lon="6.14599">
        <ele>314</ele>
        <time>2024-12-11T15:54:44Z</time>
      </trkpt>
      <trkpt lat="43.52983" lon="6.14601">
        <ele>315</ele>
        <time>2024-12-11T15:54:46Z</time>
      </trkpt>
      <trkpt lat="43.52979" lon="6.14608">
        <ele>315</ele>
        <time>2024-12-11T15:54:50Z</time>
      </trkpt>
      <trkpt lat="43.52975" lon="6.14612">
        <ele>314</ele>
        <time>2024-12-11T15:54:54Z</time>
      </trkpt>
      <trkpt lat="43.52972" lon="6.14619">
        <ele>314</ele>
        <time>2024-12-11T15:55:00Z</time>
      </trkpt>
      <trkpt lat="43.52961" lon="6.14628">
        <ele>313</ele>
        <time>2024-12-11T15:55:10Z</time>
      </trkpt>
      <trkpt lat="43.52959" lon="6.14629">
        <ele>312</ele>
        <time>2024-12-11T15:55:12Z</time>
      </trkpt>
      <trkpt lat="43.52957" lon="6.14633">
        <ele>311</ele>
        <time>2024-12-11T15:55:16Z</time>
      </trkpt>
      <trkpt lat="43.52954" lon="6.1464">
        <ele>310</ele>
        <time>2024-12-11T15:55:22Z</time>
      </trkpt>
      <trkpt lat="43.52953" lon="6.14644">
        <ele>310</ele>
        <time>2024-12-11T15:55:24Z</time>
      </trkpt>
      <trkpt lat="43.5295" lon="6.14647">
        <ele>309</ele>
        <time>2024-12-11T15:55:26Z</time>
      </trkpt>
      <trkpt lat="43.52945" lon="6.14651">
        <ele>307</ele>
        <time>2024-12-11T15:55:30Z</time>
      </trkpt>
      <trkpt lat="43.5294" lon="6.14653">
        <ele>306</ele>
        <time>2024-12-11T15:55:34Z</time>
      </trkpt>
      <trkpt lat="43.52935" lon="6.14662">
        <ele>304</ele>
        <time>2024-12-11T15:55:42Z</time>
      </trkpt>
      <trkpt lat="43.52936" lon="6.14667">
        <ele>303</ele>
        <time>2024-12-11T15:55:46Z</time>
      </trkpt>
      <trkpt lat="43.52936" lon="6.14672">
        <ele>303</ele>
        <time>2024-12-11T15:55:50Z</time>
      </trkpt>
      <trkpt lat="43.52934" lon="6.14676">
        <ele>303</ele>
        <time>2024-12-11T15:55:54Z</time>
      </trkpt>
      <trkpt lat="43.52933" lon="6.14679">
        <ele>303</ele>
        <time>2024-12-11T15:55:56Z</time>
      </trkpt>
      <trkpt lat="43.52931" lon="6.14682">
        <ele>303</ele>
        <time>2024-12-11T15:55:58Z</time>
      </trkpt>
      <trkpt lat="43.52928" lon="6.1469">
        <ele>303</ele>
        <time>2024-12-11T15:56:04Z</time>
      </trkpt>
      <trkpt lat="43.52927" lon="6.14694">
        <ele>304</ele>
        <time>2024-12-11T15:56:08Z</time>
      </trkpt>
      <trkpt lat="43.52927" lon="6.14697">
        <ele>306</ele>
        <time>2024-12-11T15:56:14Z</time>
      </trkpt>
      <trkpt lat="43.52921" lon="6.14699">
        <ele>310</ele>
        <time>2024-12-11T15:56:24Z</time>
      </trkpt>
      <trkpt lat="43.52918" lon="6.14697">
        <ele>310</ele>
        <time>2024-12-11T15:56:28Z</time>
      </trkpt>
      <trkpt lat="43.52917" lon="6.14694">
        <ele>310</ele>
        <time>2024-12-11T15:56:30Z</time>
      </trkpt>
      <trkpt lat="43.52913" lon="6.14694">
        <ele>309</ele>
        <time>2024-12-11T15:56:36Z</time>
      </trkpt>
      <trkpt lat="43.5291" lon="6.14692">
        <ele>306</ele>
        <time>2024-12-11T15:56:40Z</time>
      </trkpt>
      <trkpt lat="43.52908" lon="6.1469">
        <ele>304</ele>
        <time>2024-12-11T15:56:44Z</time>
      </trkpt>
      <trkpt lat="43.52906" lon="6.14691">
        <ele>303</ele>
        <time>2024-12-11T15:56:48Z</time>
      </trkpt>
      <trkpt lat="43.52911" lon="6.14695">
        <ele>303</ele>
        <time>2024-12-11T15:57:08Z</time>
      </trkpt>
      <trkpt lat="43.5291" lon="6.14697">
        <ele>303</ele>
        <time>2024-12-11T15:57:20Z</time>
      </trkpt>
      <trkpt lat="43.52908" lon="6.14699">
        <ele>304</ele>
        <time>2024-12-11T15:57:24Z</time>
      </trkpt>
      <trkpt lat="43.52907" lon="6.14703">
        <ele>304</ele>
        <time>2024-12-11T15:57:28Z</time>
      </trkpt>
      <trkpt lat="43.52906" lon="6.14706">
        <ele>304</ele>
        <time>2024-12-11T15:57:32Z</time>
      </trkpt>
      <trkpt lat="43.52904" lon="6.14707">
        <ele>305</ele>
        <time>2024-12-11T15:57:36Z</time>
      </trkpt>
      <trkpt lat="43.52904" lon="6.14712">
        <ele>306</ele>
        <time>2024-12-11T15:57:42Z</time>
      </trkpt>
      <trkpt lat="43.52905" lon="6.14716">
        <ele>306</ele>
        <time>2024-12-11T15:57:46Z</time>
      </trkpt>
      <trkpt lat="43.52907" lon="6.14718">
        <ele>306</ele>
        <time>2024-12-11T15:57:54Z</time>
      </trkpt>
      <trkpt lat="43.52906" lon="6.14723">
        <ele>306</ele>
        <time>2024-12-11T15:57:58Z</time>
      </trkpt>
      <trkpt lat="43.52904" lon="6.14727">
        <ele>305</ele>
        <time>2024-12-11T15:58:06Z</time>
      </trkpt>
      <trkpt lat="43.52904" lon="6.1473">
        <ele>303</ele>
        <time>2024-12-11T15:58:10Z</time>
      </trkpt>
      <trkpt lat="43.52903" lon="6.14733">
        <ele>302</ele>
        <time>2024-12-11T15:58:14Z</time>
      </trkpt>
      <trkpt lat="43.52905" lon="6.14737">
        <ele>300</ele>
        <time>2024-12-11T15:58:20Z</time>
      </trkpt>
      <trkpt lat="43.52903" lon="6.14742">
        <ele>299</ele>
        <time>2024-12-11T15:58:24Z</time>
      </trkpt>
      <trkpt lat="43.52898" lon="6.14745">
        <ele>298</ele>
        <time>2024-12-11T15:58:28Z</time>
      </trkpt>
      <trkpt lat="43.52898" lon="6.1475">
        <ele>296</ele>
        <time>2024-12-11T15:58:32Z</time>
      </trkpt>
      <trkpt lat="43.529" lon="6.14753">
        <ele>294</ele>
        <time>2024-12-11T15:58:34Z</time>
      </trkpt>
      <trkpt lat="43.52902" lon="6.14757">
        <ele>292</ele>
        <time>2024-12-11T15:58:38Z</time>
      </trkpt>
      <trkpt lat="43.52902" lon="6.1476">
        <ele>291</ele>
        <time>2024-12-11T15:58:40Z</time>
      </trkpt>
      <trkpt lat="43.52901" lon="6.14777">
        <ele>290</ele>
        <time>2024-12-11T15:58:50Z</time>
      </trkpt>
      <trkpt lat="43.52903" lon="6.14779">
        <ele>289</ele>
        <time>2024-12-11T15:58:54Z</time>
      </trkpt>
      <trkpt lat="43.52902" lon="6.14783">
        <ele>288</ele>
        <time>2024-12-11T15:58:58Z</time>
      </trkpt>
      <trkpt lat="43.52902" lon="6.14785">
        <ele>287</ele>
        <time>2024-12-11T15:59:02Z</time>
      </trkpt>
      <trkpt lat="43.529" lon="6.14784">
        <ele>286</ele>
        <time>2024-12-11T15:59:08Z</time>
      </trkpt>
      <trkpt lat="43.52895" lon="6.14782">
        <ele>284</ele>
        <time>2024-12-11T15:59:14Z</time>
      </trkpt>
      <trkpt lat="43.52894" lon="6.14778">
        <ele>281</ele>
        <time>2024-12-11T15:59:18Z</time>
      </trkpt>
      <trkpt lat="43.52895" lon="6.14775">
        <ele>280</ele>
        <time>2024-12-11T15:59:20Z</time>
      </trkpt>
      <trkpt lat="43.52893" lon="6.14771">
        <ele>277</ele>
        <time>2024-12-11T15:59:24Z</time>
      </trkpt>
      <trkpt lat="43.52891" lon="6.14767">
        <ele>275</ele>
        <time>2024-12-11T15:59:28Z</time>
      </trkpt>
      <trkpt lat="43.52888" lon="6.14765">
        <ele>273</ele>
        <time>2024-12-11T15:59:34Z</time>
      </trkpt>
      <trkpt lat="43.52886" lon="6.14764">
        <ele>273</ele>
        <time>2024-12-11T15:59:38Z</time>
      </trkpt>
      <trkpt lat="43.52885" lon="6.14767">
        <ele>273</ele>
        <time>2024-12-11T15:59:42Z</time>
      </trkpt>
      <trkpt lat="43.52887" lon="6.1477">
        <ele>273</ele>
        <time>2024-12-11T15:59:46Z</time>
      </trkpt>
      <trkpt lat="43.52887" lon="6.14774">
        <ele>274</ele>
        <time>2024-12-11T15:59:50Z</time>
      </trkpt>
      <trkpt lat="43.52886" lon="6.14779">
        <ele>275</ele>
        <time>2024-12-11T15:59:54Z</time>
      </trkpt>
      <trkpt lat="43.52886" lon="6.14782">
        <ele>274</ele>
        <time>2024-12-11T16:00:02Z</time>
      </trkpt>
      <trkpt lat="43.52891" lon="6.14782">
        <ele>273</ele>
        <time>2024-12-11T16:00:24Z</time>
      </trkpt>
      <trkpt lat="43.52893" lon="6.14782">
        <ele>272</ele>
        <time>2024-12-11T16:00:28Z</time>
      </trkpt>
      <trkpt lat="43.52896" lon="6.14779">
        <ele>272</ele>
        <time>2024-12-11T16:00:40Z</time>
      </trkpt>
      <trkpt lat="43.52896" lon="6.14783">
        <ele>272</ele>
        <time>2024-12-11T16:00:48Z</time>
      </trkpt>
      <trkpt lat="43.52895" lon="6.14786">
        <ele>272</ele>
        <time>2024-12-11T16:00:50Z</time>
      </trkpt>
      <trkpt lat="43.52895" lon="6.14788">
        <ele>272</ele>
        <time>2024-12-11T16:00:52Z</time>
      </trkpt>
      <trkpt lat="43.52895" lon="6.14792">
        <ele>272</ele>
        <time>2024-12-11T16:00:54Z</time>
      </trkpt>
      <trkpt lat="43.52895" lon="6.14796">
        <ele>272</ele>
        <time>2024-12-11T16:00:56Z</time>
      </trkpt>
      <trkpt lat="43.52898" lon="6.14811">
        <ele>274</ele>
        <time>2024-12-11T16:01:06Z</time>
      </trkpt>
      <trkpt lat="43.52906" lon="6.14811">
        <ele>271</ele>
        <time>2024-12-11T16:01:14Z</time>
      </trkpt>
      <trkpt lat="43.52908" lon="6.14811">
        <ele>270</ele>
        <time>2024-12-11T16:01:16Z</time>
      </trkpt>
      <trkpt lat="43.52908" lon="6.14815">
        <ele>269</ele>
        <time>2024-12-11T16:01:18Z</time>
      </trkpt>
      <trkpt lat="43.5291" lon="6.14817">
        <ele>270</ele>
        <time>2024-12-11T16:01:24Z</time>
      </trkpt>
      <trkpt lat="43.52912" lon="6.14818">
        <ele>270</ele>
        <time>2024-12-11T16:01:30Z</time>
      </trkpt>
      <trkpt lat="43.52913" lon="6.1482">
        <ele>268</ele>
        <time>2024-12-11T16:01:42Z</time>
      </trkpt>
      <trkpt lat="43.5291" lon="6.1482">
        <ele>266</ele>
        <time>2024-12-11T16:01:50Z</time>
      </trkpt>
      <trkpt lat="43.52907" lon="6.14822">
        <ele>265</ele>
        <time>2024-12-11T16:01:54Z</time>
      </trkpt>
      <trkpt lat="43.52905" lon="6.14821">
        <ele>265</ele>
        <time>2024-12-11T16:03:10Z</time>
      </trkpt>
      <trkpt lat="43.52902" lon="6.14822">
        <ele>264</ele>
        <time>2024-12-11T16:03:14Z</time>
      </trkpt>
      <trkpt lat="43.529" lon="6.1482">
        <ele>264</ele>
        <time>2024-12-11T16:03:16Z</time>
      </trkpt>
      <trkpt lat="43.52899" lon="6.14817">
        <ele>263</ele>
        <time>2024-12-11T16:03:18Z</time>
      </trkpt>
      <trkpt lat="43.52896" lon="6.14814">
        <ele>262</ele>
        <time>2024-12-11T16:03:22Z</time>
      </trkpt>
      <trkpt lat="43.52893" lon="6.14815">
        <ele>262</ele>
        <time>2024-12-11T16:03:24Z</time>
      </trkpt>
      <trkpt lat="43.52892" lon="6.14816">
        <ele>262</ele>
        <time>2024-12-11T16:03:28Z</time>
      </trkpt>
      <trkpt lat="43.52892" lon="6.14819">
        <ele>261</ele>
        <time>2024-12-11T16:03:34Z</time>
      </trkpt>
      <trkpt lat="43.52893" lon="6.14822">
        <ele>260</ele>
        <time>2024-12-11T16:03:38Z</time>
      </trkpt>
      <trkpt lat="43.52892" lon="6.14825">
        <ele>260</ele>
        <time>2024-12-11T16:03:42Z</time>
      </trkpt>
      <trkpt lat="43.52888" lon="6.14828">
        <ele>257</ele>
        <time>2024-12-11T16:03:46Z</time>
      </trkpt>
      <trkpt lat="43.52884" lon="6.14832">
        <ele>257</ele>
        <time>2024-12-11T16:04:02Z</time>
      </trkpt>
      <trkpt lat="43.52885" lon="6.14843">
        <ele>259</ele>
        <time>2024-12-11T16:04:14Z</time>
      </trkpt>
      <trkpt lat="43.52887" lon="6.14845">
        <ele>258</ele>
        <time>2024-12-11T16:04:20Z</time>
      </trkpt>
      <trkpt lat="43.52898" lon="6.1483">
        <ele>254</ele>
        <time>2024-12-11T16:04:30Z</time>
      </trkpt>
      <trkpt lat="43.52903" lon="6.14828">
        <ele>252</ele>
        <time>2024-12-11T16:04:34Z</time>
      </trkpt>
      <trkpt lat="43.52909" lon="6.14834">
        <ele>250</ele>
        <time>2024-12-11T16:04:42Z</time>
      </trkpt>
      <trkpt lat="43.52911" lon="6.14835">
        <ele>250</ele>
        <time>2024-12-11T16:04:44Z</time>
      </trkpt>
      <trkpt lat="43.52914" lon="6.14838">
        <ele>250</ele>
        <time>2024-12-11T16:04:48Z</time>
      </trkpt>
      <trkpt lat="43.5291" lon="6.14839">
        <ele>250</ele>
        <time>2024-12-11T16:05:08Z</time>
      </trkpt>
      <trkpt lat="43.52911" lon="6.14851">
        <ele>257</ele>
        <time>2024-12-11T16:05:40Z</time>
      </trkpt>
      <trkpt lat="43.52912" lon="6.14854">
        <ele>260</ele>
        <time>2024-12-11T16:06:00Z</time>
      </trkpt>
      <trkpt lat="43.52912" lon="6.14859">
        <ele>260</ele>
        <time>2024-12-11T16:06:08Z</time>
      </trkpt>
      <trkpt lat="43.52915" lon="6.14857">
        <ele>259</ele>
        <time>2024-12-11T16:06:10Z</time>
      </trkpt>
      <trkpt lat="43.52915" lon="6.14853">
        <ele>259</ele>
        <time>2024-12-11T16:06:12Z</time>
      </trkpt>
      <trkpt lat="43.52912" lon="6.14851">
        <ele>259</ele>
        <time>2024-12-11T16:06:14Z</time>
      </trkpt>
      <trkpt lat="43.52907" lon="6.14847">
        <ele>259</ele>
        <time>2024-12-11T16:06:18Z</time>
      </trkpt>
      <trkpt lat="43.52905" lon="6.14842">
        <ele>258</ele>
        <time>2024-12-11T16:06:22Z</time>
      </trkpt>
      <trkpt lat="43.52903" lon="6.14845">
        <ele>258</ele>
        <time>2024-12-11T16:06:24Z</time>
      </trkpt>
      <trkpt lat="43.52902" lon="6.1485">
        <ele>258</ele>
        <time>2024-12-11T16:06:28Z</time>
      </trkpt>
      <trkpt lat="43.529" lon="6.14853">
        <ele>258</ele>
        <time>2024-12-11T16:06:32Z</time>
      </trkpt>
      <trkpt lat="43.52898" lon="6.14858">
        <ele>259</ele>
        <time>2024-12-11T16:06:36Z</time>
      </trkpt>
      <trkpt lat="43.529" lon="6.14861">
        <ele>256</ele>
        <time>2024-12-11T16:06:44Z</time>
      </trkpt>
      <trkpt lat="43.52903" lon="6.14864">
        <ele>255</ele>
        <time>2024-12-11T16:06:50Z</time>
      </trkpt>
      <trkpt lat="43.52906" lon="6.14865">
        <ele>255</ele>
        <time>2024-12-11T16:06:52Z</time>
      </trkpt>
      <trkpt lat="43.52908" lon="6.1489">
        <ele>257</ele>
        <time>2024-12-11T16:07:04Z</time>
      </trkpt>
      <trkpt lat="43.5291" lon="6.14892">
        <ele>258</ele>
        <time>2024-12-11T16:07:10Z</time>
      </trkpt>
      <trkpt lat="43.52912" lon="6.1489">
        <ele>259</ele>
        <time>2024-12-11T16:07:14Z</time>
      </trkpt>
      <trkpt lat="43.52916" lon="6.14891">
        <ele>258</ele>
        <time>2024-12-11T16:07:18Z</time>
      </trkpt>
      <trkpt lat="43.52916" lon="6.14895">
        <ele>258</ele>
        <time>2024-12-11T16:07:22Z</time>
      </trkpt>
      <trkpt lat="43.52913" lon="6.14893">
        <ele>258</ele>
        <time>2024-12-11T16:07:26Z</time>
      </trkpt>
      <trkpt lat="43.52912" lon="6.149">
        <ele>257</ele>
        <time>2024-12-11T16:07:30Z</time>
      </trkpt>
      <trkpt lat="43.52886" lon="6.14891">
        <ele>250</ele>
        <time>2024-12-11T16:08:07Z</time>
      </trkpt>
      <trkpt lat="43.52894" lon="6.14903">
        <ele>243</ele>
        <time>2024-12-11T16:08:09Z</time>
      </trkpt>
      <trkpt lat="43.529" lon="6.14903">
        <ele>239</ele>
        <time>2024-12-11T16:08:11Z</time>
      </trkpt>
      <trkpt lat="43.52903" lon="6.14902">
        <ele>235</ele>
        <time>2024-12-11T16:08:13Z</time>
      </trkpt>
      <trkpt lat="43.52903" lon="6.14902">
        <ele>240</ele>
        <time>2024-12-11T16:08:29Z</time>
      </trkpt>
      <trkpt lat="43.52903" lon="6.14906">
        <ele>242</ele>
        <time>2024-12-11T16:08:31Z</time>
      </trkpt>
      <trkpt lat="43.52899" lon="6.14915">
        <ele>254</ele>
        <time>2024-12-11T16:08:33Z</time>
      </trkpt>
      <trkpt lat="43.52901" lon="6.14912">
        <ele>259</ele>
        <time>2024-12-11T16:08:39Z</time>
      </trkpt>
      <trkpt lat="43.52903" lon="6.14915">
        <ele>261</ele>
        <time>2024-12-11T16:08:45Z</time>
      </trkpt>
      <trkpt lat="43.52902" lon="6.14911">
        <ele>259</ele>
        <time>2024-12-11T16:08:57Z</time>
      </trkpt>
      <trkpt lat="43.52901" lon="6.14906">
        <ele>254</ele>
        <time>2024-12-11T16:09:13Z</time>
      </trkpt>
      <trkpt lat="43.529" lon="6.14908">
        <ele>252</ele>
        <time>2024-12-11T16:09:17Z</time>
      </trkpt>
      <trkpt lat="43.52898" lon="6.14911">
        <ele>251</ele>
        <time>2024-12-11T16:09:21Z</time>
      </trkpt>
      <trkpt lat="43.52897" lon="6.14916">
        <ele>252</ele>
        <time>2024-12-11T16:09:29Z</time>
      </trkpt>
      <trkpt lat="43.52898" lon="6.1492">
        <ele>253</ele>
        <time>2024-12-11T16:09:33Z</time>
      </trkpt>
      <trkpt lat="43.52897" lon="6.14921">
        <ele>256</ele>
        <time>2024-12-11T16:09:51Z</time>
      </trkpt>
      <trkpt lat="43.52895" lon="6.14917">
        <ele>256</ele>
        <time>2024-12-11T16:09:55Z</time>
      </trkpt>
      <trkpt lat="43.52893" lon="6.14915">
        <ele>256</ele>
        <time>2024-12-11T16:09:57Z</time>
      </trkpt>
      <trkpt lat="43.52892" lon="6.14912">
        <ele>255</ele>
        <time>2024-12-11T16:09:59Z</time>
      </trkpt>
      <trkpt lat="43.52892" lon="6.14908">
        <ele>256</ele>
        <time>2024-12-11T16:10:03Z</time>
      </trkpt>
      <trkpt lat="43.52892" lon="6.14905">
        <ele>256</ele>
        <time>2024-12-11T16:10:07Z</time>
      </trkpt>
      <trkpt lat="43.52892" lon="6.14902">
        <ele>255</ele>
        <time>2024-12-11T16:10:13Z</time>
      </trkpt>
      <trkpt lat="43.52892" lon="6.14897">
        <ele>254</ele>
        <time>2024-12-11T16:10:17Z</time>
      </trkpt>
      <trkpt lat="43.52889" lon="6.14898">
        <ele>253</ele>
        <time>2024-12-11T16:10:19Z</time>
      </trkpt>
      <trkpt lat="43.52885" lon="6.14902">
        <ele>251</ele>
        <time>2024-12-11T16:10:21Z</time>
      </trkpt>
      <trkpt lat="43.52882" lon="6.14903">
        <ele>250</ele>
        <time>2024-12-11T16:10:23Z</time>
      </trkpt>
      <trkpt lat="43.52879" lon="6.14903">
        <ele>249</ele>
        <time>2024-12-11T16:10:25Z</time>
      </trkpt>
      <trkpt lat="43.52875" lon="6.14908">
        <ele>247</ele>
        <time>2024-12-11T16:10:29Z</time>
      </trkpt>
      <trkpt lat="43.52872" lon="6.1491">
        <ele>245</ele>
        <time>2024-12-11T16:10:35Z</time>
      </trkpt>
      <trkpt lat="43.52862" lon="6.14901">
        <ele>243</ele>
        <time>2024-12-11T16:10:41Z</time>
      </trkpt>
      <trkpt lat="43.52857" lon="6.14901">
        <ele>244</ele>
        <time>2024-12-11T16:10:43Z</time>
      </trkpt>
      <trkpt lat="43.52855" lon="6.14904">
        <ele>244</ele>
        <time>2024-12-11T16:10:51Z</time>
      </trkpt>
      <trkpt lat="43.52857" lon="6.14904">
        <ele>245</ele>
        <time>2024-12-11T16:11:27Z</time>
      </trkpt>
      <trkpt lat="43.52856" lon="6.1491">
        <ele>245</ele>
        <time>2024-12-11T16:11:35Z</time>
      </trkpt>
      <trkpt lat="43.52853" lon="6.14907">
        <ele>241</ele>
        <time>2024-12-11T16:11:47Z</time>
      </trkpt>
      <trkpt lat="43.52852" lon="6.14898">
        <ele>240</ele>
        <time>2024-12-11T16:11:51Z</time>
      </trkpt>
      <trkpt lat="43.52848" lon="6.14895">
        <ele>241</ele>
        <time>2024-12-11T16:11:55Z</time>
      </trkpt>
      <trkpt lat="43.52838" lon="6.14903">
        <ele>239</ele>
        <time>2024-12-11T16:12:09Z</time>
      </trkpt>
      <trkpt lat="43.52832" lon="6.14902">
        <ele>238</ele>
        <time>2024-12-11T16:12:15Z</time>
      </trkpt>
      <trkpt lat="43.52826" lon="6.14908">
        <ele>238</ele>
        <time>2024-12-11T16:12:17Z</time>
      </trkpt>
      <trkpt lat="43.52818" lon="6.14901">
        <ele>247</ele>
        <time>2024-12-11T16:12:21Z</time>
      </trkpt>
      <trkpt lat="43.52814" lon="6.14901">
        <ele>252</ele>
        <time>2024-12-11T16:12:25Z</time>
      </trkpt>
      <trkpt lat="43.52813" lon="6.14905">
        <ele>251</ele>
        <time>2024-12-11T16:12:31Z</time>
      </trkpt>
      <trkpt lat="43.52811" lon="6.14904">
        <ele>251</ele>
        <time>2024-12-11T16:12:33Z</time>
      </trkpt>
      <trkpt lat="43.52809" lon="6.14906">
        <ele>253</ele>
        <time>2024-12-11T16:12:45Z</time>
      </trkpt>
      <trkpt lat="43.52824" lon="6.14838">
        <ele>257</ele>
        <time>2024-12-11T16:13:30Z</time>
      </trkpt>
      <trkpt lat="43.52809" lon="6.14871">
        <ele>255</ele>
        <time>2024-12-11T16:14:15Z</time>
      </trkpt>
      <trkpt lat="43.52813" lon="6.14874">
        <ele>245</ele>
        <time>2024-12-11T16:14:25Z</time>
      </trkpt>
      <trkpt lat="43.5282" lon="6.14864">
        <ele>232</ele>
        <time>2024-12-11T16:14:33Z</time>
      </trkpt>
      <trkpt lat="43.52822" lon="6.14853">
        <ele>226</ele>
        <time>2024-12-11T16:14:43Z</time>
      </trkpt>
      <trkpt lat="43.52819" lon="6.14856">
        <ele>222</ele>
        <time>2024-12-11T16:15:01Z</time>
      </trkpt>
      <trkpt lat="43.52809" lon="6.14889">
        <ele>219</ele>
        <time>2024-12-11T16:18:54Z</time>
      </trkpt>
      <trkpt lat="43.52812" lon="6.14877">
        <ele>216</ele>
        <time>2024-12-11T16:18:58Z</time>
      </trkpt>
      <trkpt lat="43.52808" lon="6.14868">
        <ele>215</ele>
        <time>2024-12-11T16:19:00Z</time>
      </trkpt>
      <trkpt lat="43.52801" lon="6.14863">
        <ele>219</ele>
        <time>2024-12-11T16:19:02Z</time>
      </trkpt>
      <trkpt lat="43.52792" lon="6.14869">
        <ele>239</ele>
        <time>2024-12-11T16:19:06Z</time>
      </trkpt>
      <trkpt lat="43.528" lon="6.14872">
        <ele>250</ele>
        <time>2024-12-11T16:19:10Z</time>
      </trkpt>
      <trkpt lat="43.52812" lon="6.14869">
        <ele>259</ele>
        <time>2024-12-11T16:19:14Z</time>
      </trkpt>
      <trkpt lat="43.52809" lon="6.1488">
        <ele>260</ele>
        <time>2024-12-11T16:19:30Z</time>
      </trkpt>
      <trkpt lat="43.52816" lon="6.14896">
        <ele>260</ele>
        <time>2024-12-11T16:19:32Z</time>
      </trkpt>
      <trkpt lat="43.52816" lon="6.14904">
        <ele>259</ele>
        <time>2024-12-11T16:19:34Z</time>
      </trkpt>
      <trkpt lat="43.52814" lon="6.149">
        <ele>259</ele>
        <time>2024-12-11T16:19:42Z</time>
      </trkpt>
      <trkpt lat="43.52812" lon="6.14903">
        <ele>258</ele>
        <time>2024-12-11T16:19:54Z</time>
      </trkpt>
      <trkpt lat="43.52816" lon="6.14902">
        <ele>257</ele>
        <time>2024-12-11T16:20:00Z</time>
      </trkpt>
      <trkpt lat="43.52818" lon="6.14902">
        <ele>257</ele>
        <time>2024-12-11T16:20:02Z</time>
      </trkpt>
      <trkpt lat="43.5282" lon="6.14902">
        <ele>257</ele>
        <time>2024-12-11T16:20:06Z</time>
      </trkpt>
      <trkpt lat="43.5282" lon="6.14898">
        <ele>256</ele>
        <time>2024-12-11T16:20:10Z</time>
      </trkpt>
      <trkpt lat="43.52817" lon="6.14896">
        <ele>255</ele>
        <time>2024-12-11T16:20:14Z</time>
      </trkpt>
      <trkpt lat="43.52801" lon="6.14902">
        <ele>252</ele>
        <time>2024-12-11T16:20:28Z</time>
      </trkpt>
      <trkpt lat="43.52801" lon="6.14906">
        <ele>251</ele>
        <time>2024-12-11T16:20:30Z</time>
      </trkpt>
      <trkpt lat="43.52801" lon="6.14913">
        <ele>249</ele>
        <time>2024-12-11T16:20:34Z</time>
      </trkpt>
      <trkpt lat="43.52795" lon="6.14926">
        <ele>243</ele>
        <time>2024-12-11T16:20:40Z</time>
      </trkpt>
      <trkpt lat="43.52792" lon="6.14923">
        <ele>240</ele>
        <time>2024-12-11T16:20:44Z</time>
      </trkpt>
      <trkpt lat="43.52788" lon="6.14924">
        <ele>239</ele>
        <time>2024-12-11T16:20:48Z</time>
      </trkpt>
      <trkpt lat="43.52786" lon="6.14926">
        <ele>239</ele>
        <time>2024-12-11T16:20:54Z</time>
      </trkpt>
      <trkpt lat="43.52781" lon="6.14925">
        <ele>239</ele>
        <time>2024-12-11T16:20:58Z</time>
      </trkpt>
      <trkpt lat="43.52777" lon="6.14925">
        <ele>238</ele>
        <time>2024-12-11T16:21:00Z</time>
      </trkpt>
      <trkpt lat="43.52769" lon="6.14928">
        <ele>238</ele>
        <time>2024-12-11T16:21:06Z</time>
      </trkpt>
      <trkpt lat="43.52768" lon="6.14933">
        <ele>237</ele>
        <time>2024-12-11T16:21:14Z</time>
      </trkpt>
      <trkpt lat="43.52766" lon="6.14933">
        <ele>237</ele>
        <time>2024-12-11T16:21:16Z</time>
      </trkpt>
      <trkpt lat="43.52762" lon="6.14933">
        <ele>236</ele>
        <time>2024-12-11T16:21:18Z</time>
      </trkpt>
      <trkpt lat="43.52759" lon="6.14932">
        <ele>235</ele>
        <time>2024-12-11T16:21:20Z</time>
      </trkpt>
      <trkpt lat="43.52757" lon="6.14931">
        <ele>235</ele>
        <time>2024-12-11T16:21:22Z</time>
      </trkpt>
      <trkpt lat="43.52755" lon="6.14929">
        <ele>234</ele>
        <time>2024-12-11T16:21:24Z</time>
      </trkpt>
      <trkpt lat="43.52753" lon="6.14928">
        <ele>233</ele>
        <time>2024-12-11T16:21:28Z</time>
      </trkpt>
      <trkpt lat="43.52751" lon="6.14927">
        <ele>233</ele>
        <time>2024-12-11T16:21:30Z</time>
      </trkpt>
      <trkpt lat="43.52748" lon="6.14926">
        <ele>233</ele>
        <time>2024-12-11T16:21:32Z</time>
      </trkpt>
      <trkpt lat="43.52745" lon="6.14926">
        <ele>233</ele>
        <time>2024-12-11T16:21:34Z</time>
      </trkpt>
      <trkpt lat="43.52738" lon="6.14928">
        <ele>231</ele>
        <time>2024-12-11T16:21:42Z</time>
      </trkpt>
      <trkpt lat="43.52735" lon="6.14928">
        <ele>231</ele>
        <time>2024-12-11T16:21:44Z</time>
      </trkpt>
      <trkpt lat="43.52733" lon="6.14927">
        <ele>230</ele>
        <time>2024-12-11T16:21:46Z</time>
      </trkpt>
      <trkpt lat="43.5273" lon="6.14927">
        <ele>229</ele>
        <time>2024-12-11T16:21:48Z</time>
      </trkpt>
      <trkpt lat="43.52729" lon="6.14927">
        <ele>229</ele>
        <time>2024-12-11T16:21:50Z</time>
      </trkpt>
      <trkpt lat="43.52717" lon="6.14931">
        <ele>228</ele>
        <time>2024-12-11T16:21:58Z</time>
      </trkpt>
      <trkpt lat="43.52713" lon="6.14931">
        <ele>228</ele>
        <time>2024-12-11T16:22:02Z</time>
      </trkpt>
      <trkpt lat="43.52711" lon="6.14931">
        <ele>228</ele>
        <time>2024-12-11T16:22:04Z</time>
      </trkpt>
      <trkpt lat="43.52704" lon="6.14931">
        <ele>226</ele>
        <time>2024-12-11T16:22:10Z</time>
      </trkpt>
      <trkpt lat="43.52702" lon="6.14931">
        <ele>226</ele>
        <time>2024-12-11T16:22:12Z</time>
      </trkpt>
      <trkpt lat="43.527" lon="6.14931">
        <ele>226</ele>
        <time>2024-12-11T16:22:14Z</time>
      </trkpt>
      <trkpt lat="43.52695" lon="6.14932">
        <ele>226</ele>
        <time>2024-12-11T16:22:18Z</time>
      </trkpt>
      <trkpt lat="43.52693" lon="6.14933">
        <ele>227</ele>
        <time>2024-12-11T16:22:20Z</time>
      </trkpt>
      <trkpt lat="43.52688" lon="6.14933">
        <ele>226</ele>
        <time>2024-12-11T16:22:24Z</time>
      </trkpt>
      <trkpt lat="43.52685" lon="6.14934">
        <ele>226</ele>
        <time>2024-12-11T16:22:26Z</time>
      </trkpt>
      <trkpt lat="43.5268" lon="6.14936">
        <ele>226</ele>
        <time>2024-12-11T16:22:30Z</time>
      </trkpt>
      <trkpt lat="43.5267" lon="6.14935">
        <ele>225</ele>
        <time>2024-12-11T16:22:40Z</time>
      </trkpt>
      <trkpt lat="43.52666" lon="6.14935">
        <ele>225</ele>
        <time>2024-12-11T16:22:44Z</time>
      </trkpt>
      <trkpt lat="43.52663" lon="6.14934">
        <ele>225</ele>
        <time>2024-12-11T16:22:48Z</time>
      </trkpt>
      <trkpt lat="43.52658" lon="6.14932">
        <ele>225</ele>
        <time>2024-12-11T16:22:54Z</time>
      </trkpt>
      <trkpt lat="43.52648" lon="6.1493">
        <ele>225</ele>
        <time>2024-12-11T16:23:04Z</time>
      </trkpt>
      <trkpt lat="43.52646" lon="6.14928">
        <ele>225</ele>
        <time>2024-12-11T16:23:08Z</time>
      </trkpt>
      <trkpt lat="43.52644" lon="6.14926">
        <ele>225</ele>
        <time>2024-12-11T16:23:14Z</time>
      </trkpt>
      <trkpt lat="43.52642" lon="6.14927">
        <ele>226</ele>
        <time>2024-12-11T16:23:18Z</time>
      </trkpt>
      <trkpt lat="43.52641" lon="6.1493">
        <ele>228</ele>
        <time>2024-12-11T16:23:24Z</time>
      </trkpt>
      <trkpt lat="43.52639" lon="6.14933">
        <ele>229</ele>
        <time>2024-12-11T16:23:30Z</time>
      </trkpt>
      <trkpt lat="43.52643" lon="6.14928">
        <ele>229</ele>
        <time>2024-12-11T16:23:54Z</time>
      </trkpt>
      <trkpt lat="43.52639" lon="6.1493">
        <ele>230</ele>
        <time>2024-12-11T16:24:02Z</time>
      </trkpt>
      <trkpt lat="43.52641" lon="6.14941">
        <ele>237</ele>
        <time>2024-12-11T16:24:12Z</time>
      </trkpt>
      <trkpt lat="43.52641" lon="6.14947">
        <ele>239</ele>
        <time>2024-12-11T16:24:16Z</time>
      </trkpt>
      <trkpt lat="43.5264" lon="6.14951">
        <ele>241</ele>
        <time>2024-12-11T16:24:20Z</time>
      </trkpt>
      <trkpt lat="43.52639" lon="6.14955">
        <ele>242</ele>
        <time>2024-12-11T16:24:22Z</time>
      </trkpt>
      <trkpt lat="43.52637" lon="6.14956">
        <ele>243</ele>
        <time>2024-12-11T16:24:26Z</time>
      </trkpt>
      <trkpt lat="43.52633" lon="6.14953">
        <ele>243</ele>
        <time>2024-12-11T16:24:30Z</time>
      </trkpt>
      <trkpt lat="43.52631" lon="6.14951">
        <ele>242</ele>
        <time>2024-12-11T16:24:32Z</time>
      </trkpt>
      <trkpt lat="43.5263" lon="6.1495">
        <ele>241</ele>
        <time>2024-12-11T16:24:36Z</time>
      </trkpt>
      <trkpt lat="43.52627" lon="6.14949">
        <ele>240</ele>
        <time>2024-12-11T16:24:40Z</time>
      </trkpt>
      <trkpt lat="43.52623" lon="6.14946">
        <ele>239</ele>
        <time>2024-12-11T16:24:50Z</time>
      </trkpt>
      <trkpt lat="43.52621" lon="6.14944">
        <ele>238</ele>
        <time>2024-12-11T16:24:54Z</time>
      </trkpt>
      <trkpt lat="43.5262" lon="6.14941">
        <ele>235</ele>
        <time>2024-12-11T16:25:00Z</time>
      </trkpt>
      <trkpt lat="43.52621" lon="6.14938">
        <ele>235</ele>
        <time>2024-12-11T16:25:02Z</time>
      </trkpt>
      <trkpt lat="43.52617" lon="6.14938">
        <ele>233</ele>
        <time>2024-12-11T16:25:08Z</time>
      </trkpt>
      <trkpt lat="43.52615" lon="6.14937">
        <ele>232</ele>
        <time>2024-12-11T16:25:10Z</time>
      </trkpt>
      <trkpt lat="43.52612" lon="6.14934">
        <ele>230</ele>
        <time>2024-12-11T16:25:14Z</time>
      </trkpt>
      <trkpt lat="43.52608" lon="6.14931">
        <ele>227</ele>
        <time>2024-12-11T16:25:18Z</time>
      </trkpt>
      <trkpt lat="43.52607" lon="6.14929">
        <ele>225</ele>
        <time>2024-12-11T16:25:20Z</time>
      </trkpt>
      <trkpt lat="43.52606" lon="6.14925">
        <ele>223</ele>
        <time>2024-12-11T16:25:22Z</time>
      </trkpt>
      <trkpt lat="43.52604" lon="6.14918">
        <ele>220</ele>
        <time>2024-12-11T16:25:26Z</time>
      </trkpt>
      <trkpt lat="43.52602" lon="6.14914">
        <ele>218</ele>
        <time>2024-12-11T16:25:30Z</time>
      </trkpt>
      <trkpt lat="43.526" lon="6.14913">
        <ele>217</ele>
        <time>2024-12-11T16:25:32Z</time>
      </trkpt>
      <trkpt lat="43.52598" lon="6.1491">
        <ele>217</ele>
        <time>2024-12-11T16:25:34Z</time>
      </trkpt>
      <trkpt lat="43.52592" lon="6.14903">
        <ele>215</ele>
        <time>2024-12-11T16:25:42Z</time>
      </trkpt>
      <trkpt lat="43.5259" lon="6.14902">
        <ele>215</ele>
        <time>2024-12-11T16:25:44Z</time>
      </trkpt>
      <trkpt lat="43.52588" lon="6.14901">
        <ele>215</ele>
        <time>2024-12-11T16:25:46Z</time>
      </trkpt>
      <trkpt lat="43.52586" lon="6.14899">
        <ele>214</ele>
        <time>2024-12-11T16:25:48Z</time>
      </trkpt>
      <trkpt lat="43.5258" lon="6.14897">
        <ele>214</ele>
        <time>2024-12-11T16:25:54Z</time>
      </trkpt>
      <trkpt lat="43.52577" lon="6.14897">
        <ele>214</ele>
        <time>2024-12-11T16:25:56Z</time>
      </trkpt>
      <trkpt lat="43.52575" lon="6.14897">
        <ele>214</ele>
        <time>2024-12-11T16:25:58Z</time>
      </trkpt>
      <trkpt lat="43.52572" lon="6.14897">
        <ele>213</ele>
        <time>2024-12-11T16:26:02Z</time>
      </trkpt>
      <trkpt lat="43.52571" lon="6.14897">
        <ele>213</ele>
        <time>2024-12-11T16:26:04Z</time>
      </trkpt>
      <trkpt lat="43.52567" lon="6.14894">
        <ele>213</ele>
        <time>2024-12-11T16:26:12Z</time>
      </trkpt>
      <trkpt lat="43.52563" lon="6.14894">
        <ele>214</ele>
        <time>2024-12-11T16:26:18Z</time>
      </trkpt>
      <trkpt lat="43.52562" lon="6.14895">
        <ele>214</ele>
        <time>2024-12-11T16:26:20Z</time>
      </trkpt>
      <trkpt lat="43.5256" lon="6.14895">
        <ele>214</ele>
        <time>2024-12-11T16:26:22Z</time>
      </trkpt>
      <trkpt lat="43.52559" lon="6.14894">
        <ele>214</ele>
        <time>2024-12-11T16:26:24Z</time>
      </trkpt>
      <trkpt lat="43.52555" lon="6.14894">
        <ele>214</ele>
        <time>2024-12-11T16:26:28Z</time>
      </trkpt>
      <trkpt lat="43.52554" lon="6.14896">
        <ele>214</ele>
        <time>2024-12-11T16:26:30Z</time>
      </trkpt>
      <trkpt lat="43.52552" lon="6.14897">
        <ele>214</ele>
        <time>2024-12-11T16:26:32Z</time>
      </trkpt>
      <trkpt lat="43.5255" lon="6.14897">
        <ele>214</ele>
        <time>2024-12-11T16:26:34Z</time>
      </trkpt>
      <trkpt lat="43.52548" lon="6.14899">
        <ele>215</ele>
        <time>2024-12-11T16:26:38Z</time>
      </trkpt>
      <trkpt lat="43.52548" lon="6.14901">
        <ele>215</ele>
        <time>2024-12-11T16:26:40Z</time>
      </trkpt>
      <trkpt lat="43.52552" lon="6.14914">
        <ele>215</ele>
        <time>2024-12-11T16:26:48Z</time>
      </trkpt>
      <trkpt lat="43.52552" lon="6.14917">
        <ele>215</ele>
        <time>2024-12-11T16:26:50Z</time>
      </trkpt>
      <trkpt lat="43.52549" lon="6.14928">
        <ele>216</ele>
        <time>2024-12-11T16:26:58Z</time>
      </trkpt>
      <trkpt lat="43.52547" lon="6.1493">
        <ele>217</ele>
        <time>2024-12-11T16:27:00Z</time>
      </trkpt>
      <trkpt lat="43.52539" lon="6.1494">
        <ele>217</ele>
        <time>2024-12-11T16:27:10Z</time>
      </trkpt>
      <trkpt lat="43.52535" lon="6.14944">
        <ele>217</ele>
        <time>2024-12-11T16:27:16Z</time>
      </trkpt>
      <trkpt lat="43.52532" lon="6.1495">
        <ele>218</ele>
        <time>2024-12-11T16:27:22Z</time>
      </trkpt>
      <trkpt lat="43.5253" lon="6.14952">
        <ele>218</ele>
        <time>2024-12-11T16:27:24Z</time>
      </trkpt>
      <trkpt lat="43.52527" lon="6.14956">
        <ele>218</ele>
        <time>2024-12-11T16:27:28Z</time>
      </trkpt>
      <trkpt lat="43.52521" lon="6.14963">
        <ele>218</ele>
        <time>2024-12-11T16:27:36Z</time>
      </trkpt>
      <trkpt lat="43.52518" lon="6.14965">
        <ele>218</ele>
        <time>2024-12-11T16:27:38Z</time>
      </trkpt>
      <trkpt lat="43.52517" lon="6.14967">
        <ele>219</ele>
        <time>2024-12-11T16:27:40Z</time>
      </trkpt>
      <trkpt lat="43.52516" lon="6.14968">
        <ele>219</ele>
        <time>2024-12-11T16:27:42Z</time>
      </trkpt>
      <trkpt lat="43.52514" lon="6.14969">
        <ele>220</ele>
        <time>2024-12-11T16:27:44Z</time>
      </trkpt>
      <trkpt lat="43.52498" lon="6.14983">
        <ele>219</ele>
        <time>2024-12-11T16:28:00Z</time>
      </trkpt>
      <trkpt lat="43.52493" lon="6.14985">
        <ele>219</ele>
        <time>2024-12-11T16:28:04Z</time>
      </trkpt>
      <trkpt lat="43.5249" lon="6.14987">
        <ele>219</ele>
        <time>2024-12-11T16:28:06Z</time>
      </trkpt>
      <trkpt lat="43.52489" lon="6.14992">
        <ele>221</ele>
        <time>2024-12-11T16:28:10Z</time>
      </trkpt>
      <trkpt lat="43.5249" lon="6.14997">
        <ele>221</ele>
        <time>2024-12-11T16:28:14Z</time>
      </trkpt>
      <trkpt lat="43.52485" lon="6.15006">
        <ele>218</ele>
        <time>2024-12-11T16:28:22Z</time>
      </trkpt>
      <trkpt lat="43.52483" lon="6.15008">
        <ele>218</ele>
        <time>2024-12-11T16:28:24Z</time>
      </trkpt>
      <trkpt lat="43.52482" lon="6.1501">
        <ele>217</ele>
        <time>2024-12-11T16:28:26Z</time>
      </trkpt>
    </trkseg>
  </trk>
</gpx>